Time,TemperatureF,DewpointF,PressureIn,WindDirection,WindDirectionDegrees,WindSpeedMPH,WindSpeedGustMPH,Humidity,HourlyPrecipIn,Conditions,Clouds,dailyrainin,SolarRadiationWatts/m^2,SoftwareType,DateUTC
2013-11-15 00:00:00,76.1,68.4,30.08,East,92,10.0,12.0,77,0.00,,FEW,0.00,0.00,VWS V14.01,2013-11-15 05:00:00,
2013-11-15 00:01:00,76.1,68.4,30.08,NE,43,2.0,12.0,77,0.00,,FEW,0.00,0.00,VWS V14.01,2013-11-15 05:01:00,
2013-11-15 00:06:00,76.2,68.8,30.08,ESE,108,10.0,11.0,78,0.00,,FEW,0.00,0.00,VWS V14.01,2013-11-15 05:06:00,
2013-11-15 00:11:00,76.2,68.8,30.08,SE,126,2.0,3.0,78,0.00,,FEW,0.00,0.00,VWS V14.01,2013-11-15 05:11:00,
2013-11-15 00:16:00,76.1,68.8,30.07,ESE,107,5.0,13.0,78,0.00,,FEW,0.00,0.00,VWS V14.01,2013-11-15 05:16:00,
2013-11-15 00:21:00,76.0,68.7,30.07,ENE,63,5.0,8.0,78,0.00,,FEW,0.00,0.00,VWS V14.01,2013-11-15 05:21:00,
2013-11-15 00:22:00,76.0,68.7,30.07,ENE,57,3.0,9.0,78,0.00,,FEW,0.00,0.00,VWS V14.01,2013-11-15 05:22:00,
2013-11-15 00:26:00,76.0,68.7,30.07,ESE,113,4.0,9.0,78,0.00,,FEW,0.00,0.00,VWS V14.01,2013-11-15 05:26:00,
2013-11-15 00:27:00,76.0,68.7,30.07,East,88,7.0,10.0,78,0.00,,FEW,0.00,0.00,VWS V14.01,2013-11-15 05:27:00,
2013-11-15 00:31:00,76.0,68.7,30.07,ENE,72,9.0,9.0,78,0.00,,FEW,0.00,0.00,VWS V14.01,2013-11-15 05:31:00,
2013-11-15 00:32:00,76.0,68.7,30.07,East,88,5.0,9.0,78,0.00,,FEW,0.00,0.00,VWS V14.01,2013-11-15 05:32:00,
2013-11-15 00:33:00,76.0,68.7,30.07,ENE,59,3.0,9.0,78,0.00,,FEW,0.00,0.00,VWS V14.01,2013-11-15 05:33:00,
2013-11-15 00:36:00,76.0,68.7,30.07,East,86,3.0,10.0,78,0.00,,FEW,0.00,0.00,VWS V14.01,2013-11-15 05:36:00,
2013-11-15 00:37:00,76.1,68.8,30.07,NNW,343,11.0,13.0,78,0.00,,FEW,0.00,0.00,VWS V14.01,2013-11-15 05:37:00,
2013-11-15 00:38:00,76.1,68.4,30.07,ENE,75,7.0,13.0,77,0.00,,FEW,0.00,0.00,VWS V14.01,2013-11-15 05:38:00,
2013-11-15 00:41:00,76.2,68.8,30.07,East,84,2.0,13.0,78,0.00,,FEW,0.00,0.00,VWS V14.01,2013-11-15 05:41:00,
2013-11-15 00:42:00,76.2,68.8,30.07,East,80,9.0,13.0,78,0.00,,FEW,0.00,0.00,VWS V14.01,2013-11-15 05:42:00,
2013-11-15 00:43:00,76.3,68.9,30.07,East,84,3.0,13.0,78,0.00,,FEW,0.00,0.00,VWS V14.01,2013-11-15 05:43:00,
2013-11-15 00:46:00,76.4,68.7,30.06,East,99,8.0,13.0,77,0.00,,FEW,0.00,0.00,VWS V14.01,2013-11-15 05:46:00,
2013-11-15 00:47:00,76.4,68.7,30.06,ESE,107,7.0,13.0,77,0.00,,FEW,0.00,0.00,VWS V14.01,2013-11-15 05:47:00,
2013-11-15 00:48:00,76.4,68.7,30.06,East,84,2.0,13.0,77,0.00,,FEW,0.00,0.00,VWS V14.01,2013-11-15 05:48:00,
2013-11-15 00:49:00,76.4,68.7,30.06,East,86,3.0,13.0,77,0.00,,FEW,0.00,0.00,VWS V14.01,2013-11-15 05:49:00,
2013-11-15 00:51:00,76.4,68.7,30.06,ENE,78,3.0,11.0,77,0.00,,FEW,0.00,0.00,VWS V14.01,2013-11-15 05:51:00,
2013-11-15 00:52:00,76.5,68.8,30.06,East,86,2.0,11.0,77,0.00,,FEW,0.00,0.00,VWS V14.01,2013-11-15 05:52:00,
2013-11-15 00:53:00,76.5,68.8,30.06,East,87,2.0,11.0,77,0.00,,FEW,0.00,0.00,VWS V14.01,2013-11-15 05:53:00,
2013-11-15 00:54:00,76.5,68.8,30.06,East,85,5.0,11.0,77,0.00,,FEW,0.00,0.00,VWS V14.01,2013-11-15 05:54:00,
2013-11-15 00:56:00,76.5,68.8,30.06,ENE,69,2.0,11.0,77,0.00,,FEW,0.00,0.00,VWS V14.01,2013-11-15 05:56:00,
2013-11-15 00:57:00,76.5,68.8,30.06,East,98,2.0,11.0,77,0.00,,FEW,0.00,0.00,VWS V14.01,2013-11-15 05:57:00,
2013-11-15 00:58:00,76.6,68.9,30.06,ESE,108,12.0,12.0,77,0.00,,FEW,0.00,0.00,VWS V14.01,2013-11-15 05:58:00,
2013-11-15 00:59:00,76.5,68.4,30.06,East,84,5.0,12.0,76,0.00,,FEW,0.00,0.00,VWS V14.01,2013-11-15 05:59:00,
2013-11-15 01:01:00,76.5,68.4,30.06,ENE,65,3.0,10.0,76,0.00,,FEW,0.00,0.00,VWS V14.01,2013-11-15 06:01:00,
2013-11-15 01:02:00,76.5,68.4,30.06,East,96,6.0,10.0,76,0.00,,FEW,0.00,0.00,VWS V14.01,2013-11-15 06:02:00,
2013-11-15 01:03:00,76.5,68.4,30.06,ENE,62,5.0,10.0,76,0.00,,FEW,0.00,0.00,VWS V14.01,2013-11-15 06:03:00,
2013-11-15 01:04:00,76.5,68.4,30.06,NE,40,4.0,10.0,76,0.00,,FEW,0.00,0.00,VWS V14.01,2013-11-15 06:04:00,
2013-11-15 01:06:00,76.6,68.5,30.06,East,92,7.0,10.0,76,0.00,,FEW,0.00,0.00,VWS V14.01,2013-11-15 06:06:00,
2013-11-15 01:07:00,76.6,68.5,30.06,ENE,74,3.0,10.0,76,0.00,,FEW,0.00,0.00,VWS V14.01,2013-11-15 06:07:00,
2013-11-15 01:08:00,76.6,68.5,30.06,East,89,2.0,10.0,76,0.00,,FEW,0.00,0.00,VWS V14.01,2013-11-15 06:08:00,
2013-11-15 01:09:00,76.6,68.5,30.06,ESE,113,1.0,10.0,76,0.00,,FEW,0.00,0.00,VWS V14.01,2013-11-15 06:09:00,
2013-11-15 01:11:00,76.7,68.2,30.06,ENE,77,5.0,8.0,75,0.00,,FEW,0.00,0.00,VWS V14.01,2013-11-15 06:11:00,
2013-11-15 01:12:00,76.7,68.2,30.06,East,86,2.0,8.0,75,0.00,,FEW,0.00,0.00,VWS V14.01,2013-11-15 06:12:00,
2013-11-15 01:13:00,76.7,68.2,30.06,East,80,2.0,8.0,75,0.00,,FEW,0.00,0.00,VWS V14.01,2013-11-15 06:13:00,
2013-11-15 01:14:00,76.7,68.2,30.06,East,98,2.0,8.0,75,0.00,,FEW,0.00,0.00,VWS V14.01,2013-11-15 06:14:00,
2013-11-15 01:17:00,76.7,68.6,30.06,East,101,5.0,8.0,76,0.00,,FEW,0.00,0.00,VWS V14.01,2013-11-15 06:17:00,
2013-11-15 01:19:00,76.8,68.7,30.06,East,91,8.0,8.0,76,0.00,,FEW,0.00,0.00,VWS V14.01,2013-11-15 06:19:00,
2013-11-15 01:20:00,76.8,68.7,30.06,East,101,6.0,8.0,76,0.00,,FEW,0.00,0.00,VWS V14.01,2013-11-15 06:20:00,
2013-11-15 01:21:00,76.8,68.7,30.06,East,97,6.0,14.0,76,0.00,,FEW,0.00,0.00,VWS V14.01,2013-11-15 06:21:00,
2013-11-15 01:22:00,76.8,69.1,30.06,ESE,108,3.0,14.0,77,0.00,,FEW,0.00,0.00,VWS V14.01,2013-11-15 06:22:00,
2013-11-15 01:24:00,76.9,69.5,30.06,East,88,5.0,14.0,78,0.00,,FEW,0.00,0.00,VWS V14.01,2013-11-15 06:24:00,
2013-11-15 01:25:00,76.8,69.4,30.06,SE,134,4.0,14.0,78,0.00,,FEW,0.00,0.00,VWS V14.01,2013-11-15 06:25:00,
2013-11-15 01:27:00,76.7,69.3,30.06,East,100,2.0,14.0,78,0.00,,FEW,0.00,0.00,VWS V14.01,2013-11-15 06:27:00,
2013-11-15 01:29:00,76.6,69.2,30.06,East,82,3.0,14.0,78,0.00,,FEW,0.00,0.00,VWS V14.01,2013-11-15 06:29:00,
2013-11-15 01:30:00,76.5,69.5,30.05,ENE,73,3.0,14.0,79,0.00,,FEW,0.00,0.00,VWS V14.01,2013-11-15 06:30:00,
2013-11-15 01:32:00,76.3,69.3,30.05,ESE,120,8.0,8.0,79,0.00,,FEW,0.00,0.00,VWS V14.01,2013-11-15 06:32:00,
2013-11-15 01:34:00,76.2,69.2,30.05,ENE,73,4.0,8.0,79,0.00,,FEW,0.00,0.00,VWS V14.01,2013-11-15 06:34:00,
2013-11-15 01:35:00,76.2,69.2,30.05,ENE,57,3.0,8.0,79,0.00,,FEW,0.00,0.00,VWS V14.01,2013-11-15 06:35:00,
2013-11-15 01:37:00,76.2,69.2,30.05,East,101,2.0,8.0,79,0.00,,FEW,0.00,0.00,VWS V14.01,2013-11-15 06:37:00,
2013-11-15 01:39:00,76.1,69.1,30.05,ESE,123,4.0,9.0,79,0.00,,FEW,0.00,0.00,VWS V14.01,2013-11-15 06:39:00,
2013-11-15 01:40:00,76.1,69.1,30.05,ENE,71,8.0,10.0,79,0.00,,FEW,0.00,0.00,VWS V14.01,2013-11-15 06:40:00,
2013-11-15 01:42:00,76.0,69.4,30.05,East,101,10.0,11.0,80,0.00,,FEW,0.00,0.00,VWS V14.01,2013-11-15 06:42:00,
2013-11-15 01:43:00,76.0,69.4,30.05,ENE,58,3.0,11.0,80,0.00,,FEW,0.00,0.00,VWS V14.01,2013-11-15 06:43:00,
2013-11-15 01:44:00,76.0,69.4,30.05,ENE,58,4.0,11.0,80,0.00,,FEW,0.00,0.00,VWS V14.01,2013-11-15 06:44:00,
2013-11-15 01:45:00,76.0,69.4,30.05,ENE,72,8.0,11.0,80,0.00,,FEW,0.00,0.00,VWS V14.01,2013-11-15 06:45:00,
2013-11-15 01:47:00,76.0,69.4,30.05,East,100,6.0,11.0,80,0.00,,FEW,0.00,0.00,VWS V14.01,2013-11-15 06:47:00,
2013-11-15 01:48:00,75.9,69.3,30.05,ENE,70,3.0,11.0,80,0.00,,FEW,0.00,0.00,VWS V14.01,2013-11-15 06:48:00,
2013-11-15 01:49:00,75.9,69.3,30.05,ENE,61,4.0,11.0,80,0.00,,FEW,0.00,0.00,VWS V14.01,2013-11-15 06:49:00,
2013-11-15 01:50:00,75.9,69.3,30.05,East,88,5.0,11.0,80,0.00,,FEW,0.00,0.00,VWS V14.01,2013-11-15 06:50:00,
2013-11-15 01:52:00,75.9,69.3,30.05,East,79,7.0,9.0,80,0.00,,FEW,0.00,0.00,VWS V14.01,2013-11-15 06:52:00,
2013-11-15 01:53:00,75.9,69.3,30.05,East,94,2.0,9.0,80,0.00,,FEW,0.00,0.00,VWS V14.01,2013-11-15 06:53:00,
2013-11-15 01:54:00,75.9,69.3,30.05,North,9,4.0,9.0,80,0.00,,FEW,0.00,0.00,VWS V14.01,2013-11-15 06:54:00,
2013-11-15 01:55:00,75.9,69.3,30.05,ESE,114,4.0,9.0,80,0.00,,FEW,0.00,0.00,VWS V14.01,2013-11-15 06:55:00,
2013-11-15 01:56:00,75.9,69.3,30.05,NE,36,4.0,9.0,80,0.00,,FEW,0.00,0.00,VWS V14.01,2013-11-15 06:56:00,
2013-11-15 01:57:00,75.9,69.3,30.05,East,85,3.0,9.0,80,0.00,,FEW,0.00,0.00,VWS V14.01,2013-11-15 06:57:00,
2013-11-15 01:58:00,75.9,69.3,30.05,East,99,7.0,9.0,80,0.00,,FEW,0.00,0.00,VWS V14.01,2013-11-15 06:58:00,
2013-11-15 01:59:00,75.9,69.7,30.05,ENE,64,4.0,9.0,81,0.00,,FEW,0.00,0.00,VWS V14.01,2013-11-15 06:59:00,
2013-11-15 02:00:00,75.9,69.7,30.04,East,81,2.0,9.0,81,0.00,,FEW,0.00,0.00,VWS V14.01,2013-11-15 07:00:00,
2013-11-15 02:01:00,75.9,69.7,30.04,NE,39,6.0,7.0,81,0.00,,FEW,0.00,0.00,VWS V14.01,2013-11-15 07:01:00,
2013-11-15 02:03:00,75.9,69.7,30.04,NE,56,6.0,8.0,81,0.00,,FEW,0.00,0.00,VWS V14.01,2013-11-15 07:03:00,
2013-11-15 02:05:00,75.9,69.3,30.04,ENE,59,7.0,10.0,80,0.00,,FEW,0.00,0.00,VWS V14.01,2013-11-15 07:05:00,
2013-11-15 02:06:00,75.9,69.3,30.04,East,87,3.0,10.0,80,0.00,,FEW,0.00,0.00,VWS V14.01,2013-11-15 07:06:00,
2013-11-15 02:08:00,75.9,69.3,30.04,ENE,63,3.0,10.0,80,0.00,,FEW,0.00,0.00,VWS V14.01,2013-11-15 07:08:00,
2013-11-15 02:10:00,76.0,69.0,30.04,ESE,104,5.0,10.0,79,0.00,,FEW,0.00,0.00,VWS V14.01,2013-11-15 07:10:00,
2013-11-15 02:11:00,76.0,69.0,30.04,ENE,74,4.0,14.0,79,0.00,,FEW,0.00,0.00,VWS V14.01,2013-11-15 07:11:00,
2013-11-15 02:13:00,76.1,69.1,30.04,ESE,117,4.0,14.0,79,0.00,,FEW,0.00,0.00,VWS V14.01,2013-11-15 07:13:00,
2013-11-15 02:15:00,76.2,69.2,30.04,East,98,6.0,14.0,79,0.00,,FEW,0.00,0.00,VWS V14.01,2013-11-15 07:15:00,
2013-11-15 02:16:00,76.2,68.8,30.04,East,93,5.0,14.0,78,0.00,,FEW,0.00,0.00,VWS V14.01,2013-11-15 07:16:00,
2013-11-15 02:17:00,76.3,68.9,30.04,East,81,2.0,14.0,78,0.00,,FEW,0.00,0.00,VWS V14.01,2013-11-15 07:17:00,
2013-11-15 02:18:00,76.3,68.9,30.04,ENE,65,2.0,14.0,78,0.00,,FEW,0.00,0.00,VWS V14.01,2013-11-15 07:18:00,
2013-11-15 02:20:00,76.4,69.0,30.04,ESE,112,7.0,14.0,78,0.00,,FEW,0.00,0.00,VWS V14.01,2013-11-15 07:20:00,
2013-11-15 02:22:00,76.4,69.0,30.04,ESE,103,2.0,7.0,78,0.00,,FEW,0.00,0.00,VWS V14.01,2013-11-15 07:22:00,
2013-11-15 02:23:00,76.4,69.0,30.04,ESE,107,2.0,7.0,78,0.00,,FEW,0.00,0.00,VWS V14.01,2013-11-15 07:23:00,
2013-11-15 02:25:00,76.5,69.1,30.04,ENE,76,5.0,9.0,78,0.00,,FEW,0.00,0.00,VWS V14.01,2013-11-15 07:25:00,
2013-11-15 02:27:00,76.5,69.1,30.04,ENE,66,4.0,9.0,78,0.00,,FEW,0.00,0.00,VWS V14.01,2013-11-15 07:27:00,
2013-11-15 02:28:00,76.6,69.2,30.04,ENE,70,3.0,9.0,78,0.00,,FEW,0.00,0.00,VWS V14.01,2013-11-15 07:28:00,
2013-11-15 02:30:00,76.6,69.2,30.03,ESE,114,2.0,9.0,78,0.00,,FEW,0.00,0.00,VWS V14.01,2013-11-15 07:30:00,
2013-11-15 02:31:00,76.6,69.2,30.03,East,92,7.0,7.0,78,0.00,,FEW,0.00,0.00,VWS V14.01,2013-11-15 07:31:00,
2013-11-15 02:32:00,76.6,69.2,30.03,ENE,70,4.0,7.0,78,0.00,,FEW,0.00,0.00,VWS V14.01,2013-11-15 07:32:00,
2013-11-15 02:33:00,76.6,69.2,30.03,East,81,6.0,8.0,78,0.00,,FEW,0.00,0.00,VWS V14.01,2013-11-15 07:33:00,
2013-11-15 02:35:00,76.6,68.5,30.03,ENE,67,3.0,10.0,76,0.00,,FEW,0.00,0.00,VWS V14.01,2013-11-15 07:35:00,
2013-11-15 02:36:00,76.6,68.5,30.03,ENE,67,3.0,10.0,76,0.00,,FEW,0.00,0.00,VWS V14.01,2013-11-15 07:36:00,
2013-11-15 02:37:00,76.5,68.4,30.03,East,90,2.0,10.0,76,0.00,,FEW,0.00,0.00,VWS V14.01,2013-11-15 07:37:00,
2013-11-15 02:38:00,76.5,68.4,30.03,ENE,71,5.0,10.0,76,0.00,,FEW,0.00,0.00,VWS V14.01,2013-11-15 07:38:00,
2013-11-15 02:39:00,76.5,68.4,30.03,ESE,121,4.0,10.0,76,0.00,,FEW,0.00,0.00,VWS V14.01,2013-11-15 07:39:00,
2013-11-15 02:41:00,76.6,68.5,30.03,East,96,2.0,3.0,76,0.00,,FEW,0.00,0.00,VWS V14.01,2013-11-15 07:41:00,
2013-11-15 02:43:00,76.6,68.1,30.03,ENE,67,5.0,8.0,75,0.00,,FEW,0.00,0.00,VWS V14.01,2013-11-15 07:43:00,
2013-11-15 02:44:00,76.6,68.1,30.03,ENE,57,7.0,9.0,75,0.00,,FEW,0.00,0.00,VWS V14.01,2013-11-15 07:44:00,
2013-11-15 02:46:00,76.6,68.1,30.02,East,80,7.0,9.0,75,0.00,,FEW,0.00,0.00,VWS V14.01,2013-11-15 07:46:00,
2013-11-15 02:48:00,76.7,68.2,30.02,ESE,105,7.0,10.0,75,0.00,,FEW,0.00,0.00,VWS V14.01,2013-11-15 07:48:00,
2013-11-15 02:49:00,76.7,68.2,30.02,ENE,72,1.0,10.0,75,0.00,,FEW,0.00,0.00,VWS V14.01,2013-11-15 07:49:00,
2013-11-15 02:51:00,76.7,68.6,30.02,ENE,76,4.0,10.0,76,0.00,,FEW,0.00,0.00,VWS V14.01,2013-11-15 07:51:00,
2013-11-15 02:53:00,76.7,68.6,30.02,ENE,78,4.0,10.0,76,0.00,,FEW,0.00,0.00,VWS V14.01,2013-11-15 07:53:00,
2013-11-15 02:54:00,76.7,68.2,30.02,ESE,115,4.0,10.0,75,0.00,,FEW,0.00,0.00,VWS V14.01,2013-11-15 07:54:00,
2013-11-15 02:55:00,76.7,68.2,30.02,East,86,2.0,10.0,75,0.00,,FEW,0.00,0.00,VWS V14.01,2013-11-15 07:55:00,
2013-11-15 02:56:00,76.7,68.2,30.02,ESE,105,4.0,14.0,75,0.00,,FEW,0.00,0.00,VWS V14.01,2013-11-15 07:56:00,
2013-11-15 02:58:00,76.7,68.2,30.02,ENE,65,5.0,14.0,75,0.00,,FEW,0.00,0.00,VWS V14.01,2013-11-15 07:58:00,
2013-11-15 02:59:00,76.7,68.2,30.02,ENE,77,4.0,14.0,75,0.00,,FEW,0.00,0.00,VWS V14.01,2013-11-15 07:59:00,
2013-11-15 03:00:00,76.7,68.2,30.02,ENE,61,5.0,14.0,75,0.00,,FEW,0.00,0.00,VWS V14.01,2013-11-15 08:00:00,
2013-11-15 03:01:00,76.8,68.3,30.02,ENE,69,2.0,6.0,75,0.00,,FEW,0.00,0.00,VWS V14.01,2013-11-15 08:01:00,
2013-11-15 03:03:00,76.8,68.3,30.02,ENE,78,4.0,6.0,75,0.00,,FEW,0.00,0.00,VWS V14.01,2013-11-15 08:03:00,
2013-11-15 03:04:00,76.8,68.7,30.02,East,88,7.0,9.0,76,0.00,,FEW,0.00,0.00,VWS V14.01,2013-11-15 08:04:00,
2013-11-15 03:05:00,76.8,68.7,30.02,ENE,66,3.0,9.0,76,0.00,,FEW,0.00,0.00,VWS V14.01,2013-11-15 08:05:00,
2013-11-15 03:06:00,76.8,68.7,30.02,ENE,68,3.0,9.0,76,0.00,,FEW,0.00,0.00,VWS V14.01,2013-11-15 08:06:00,
2013-11-15 03:07:00,76.8,68.7,30.02,East,88,6.0,9.0,76,0.00,,FEW,0.00,0.00,VWS V14.01,2013-11-15 08:07:00,
2013-11-15 03:08:00,76.8,68.7,30.02,East,88,3.0,9.0,76,0.00,,FEW,0.00,0.00,VWS V14.01,2013-11-15 08:08:00,
2013-11-15 03:09:00,76.9,68.8,30.02,East,96,6.0,9.0,76,0.00,,FEW,0.00,0.00,VWS V14.01,2013-11-15 08:09:00,
2013-11-15 03:10:00,76.8,68.7,30.02,ENE,69,4.0,9.0,76,0.00,,FEW,0.00,0.00,VWS V14.01,2013-11-15 08:10:00,
2013-11-15 03:12:00,76.8,68.7,30.02,ENE,77,4.0,5.0,76,0.00,,FEW,0.00,0.00,VWS V14.01,2013-11-15 08:12:00,
2013-11-15 03:14:00,76.7,68.2,30.02,East,88,3.0,7.0,75,0.00,,FEW,0.00,0.00,VWS V14.01,2013-11-15 08:14:00,
2013-11-15 03:16:00,76.8,68.7,30.02,East,82,2.0,9.0,76,0.00,,FEW,0.00,0.00,VWS V14.01,2013-11-15 08:16:00,
2013-11-15 03:17:00,76.8,68.7,30.02,East,80,6.0,10.0,76,0.00,,FEW,0.00,0.00,VWS V14.01,2013-11-15 08:17:00,
2013-11-15 03:19:00,76.8,68.7,30.02,NE,39,3.0,10.0,76,0.00,,FEW,0.00,0.00,VWS V14.01,2013-11-15 08:19:00,
2013-11-15 03:21:00,76.8,68.7,30.02,NNE,22,7.0,7.0,76,0.00,,FEW,0.00,0.00,VWS V14.01,2013-11-15 08:21:00,
2013-11-15 03:22:00,76.8,68.7,30.02,ENE,57,5.0,7.0,76,0.00,,FEW,0.00,0.00,VWS V14.01,2013-11-15 08:22:00,
2013-11-15 03:24:00,76.8,68.7,30.02,East,89,3.0,11.0,76,0.00,,FEW,0.00,0.00,VWS V14.01,2013-11-15 08:24:00,
2013-11-15 03:26:00,76.8,68.7,30.02,East,88,6.0,11.0,76,0.00,,FEW,0.00,0.00,VWS V14.01,2013-11-15 08:26:00,
2013-11-15 03:27:00,76.8,68.7,30.02,ENE,71,8.0,11.0,76,0.00,,FEW,0.00,0.00,VWS V14.01,2013-11-15 08:27:00,
2013-11-15 03:29:00,76.9,68.8,30.02,ESE,119,5.0,11.0,76,0.00,,FEW,0.00,0.00,VWS V14.01,2013-11-15 08:29:00,
2013-11-15 03:30:00,76.8,68.7,30.02,East,94,6.0,11.0,76,0.00,,FEW,0.00,0.00,VWS V14.01,2013-11-15 08:30:00,
2013-11-15 03:31:00,76.8,68.7,30.02,ESE,108,4.0,8.0,76,0.00,,FEW,0.00,0.00,VWS V14.01,2013-11-15 08:31:00,
2013-11-15 03:32:00,76.8,68.7,30.02,ENE,65,4.0,8.0,76,0.00,,FEW,0.00,0.00,VWS V14.01,2013-11-15 08:32:00,
2013-11-15 03:34:00,76.9,68.8,30.02,ENE,70,3.0,9.0,76,0.00,,FEW,0.00,0.00,VWS V14.01,2013-11-15 08:34:00,
2013-11-15 03:35:00,76.9,68.8,30.02,ENE,61,3.0,9.0,76,0.00,,FEW,0.00,0.00,VWS V14.01,2013-11-15 08:35:00,
2013-11-15 03:36:00,76.9,68.8,30.02,East,84,1.0,9.0,76,0.00,,FEW,0.00,0.00,VWS V14.01,2013-11-15 08:36:00,
2013-11-15 03:37:00,76.9,69.2,30.02,East,84,2.0,9.0,77,0.00,,FEW,0.00,0.00,VWS V14.01,2013-11-15 08:37:00,
2013-11-15 03:39:00,76.9,69.2,30.02,ENE,76,7.0,9.0,77,0.00,,FEW,0.00,0.00,VWS V14.01,2013-11-15 08:39:00,
2013-11-15 03:40:00,76.9,69.2,30.02,SE,139,5.0,9.0,77,0.00,,FEW,0.00,0.00,VWS V14.01,2013-11-15 08:40:00,
2013-11-15 03:42:00,76.9,69.2,30.02,East,84,2.0,5.0,77,0.00,,FEW,0.00,0.00,VWS V14.01,2013-11-15 08:42:00,
2013-11-15 03:43:00,76.9,69.2,30.02,East,81,2.0,5.0,77,0.00,,FEW,0.00,0.00,VWS V14.01,2013-11-15 08:43:00,
2013-11-15 03:44:00,77.0,69.2,30.02,East,79,1.0,5.0,77,0.00,,FEW,0.00,0.00,VWS V14.01,2013-11-15 08:44:00,
2013-11-15 03:45:00,77.0,69.2,30.02,ENE,69,3.0,5.0,77,0.00,,FEW,0.00,0.00,VWS V14.01,2013-11-15 08:45:00,
2013-11-15 03:47:00,76.9,69.2,30.02,East,101,2.0,7.0,77,0.00,,FEW,0.00,0.00,VWS V14.01,2013-11-15 08:47:00,
2013-11-15 03:48:00,76.9,69.2,30.02,East,86,5.0,7.0,77,0.00,,FEW,0.00,0.00,VWS V14.01,2013-11-15 08:48:00,
2013-11-15 03:49:00,76.9,69.2,30.02,SE,142,6.0,8.0,77,0.00,,FEW,0.00,0.00,VWS V14.01,2013-11-15 08:49:00,
2013-11-15 03:50:00,76.9,69.2,30.02,ENE,77,4.0,8.0,77,0.00,,FEW,0.00,0.00,VWS V14.01,2013-11-15 08:50:00,
2013-11-15 03:52:00,76.9,69.2,30.02,SSE,155,7.0,7.0,77,0.00,,FEW,0.00,0.00,VWS V14.01,2013-11-15 08:52:00,
2013-11-15 03:53:00,76.9,69.2,30.02,East,82,2.0,8.0,77,0.00,,FEW,0.00,0.00,VWS V14.01,2013-11-15 08:53:00,
2013-11-15 03:54:00,76.9,69.2,30.02,ENE,75,5.0,8.0,77,0.00,,FEW,0.00,0.00,VWS V14.01,2013-11-15 08:54:00,
2013-11-15 03:55:00,76.9,69.2,30.02,ENE,62,4.0,8.0,77,0.00,,FEW,0.00,0.00,VWS V14.01,2013-11-15 08:55:00,
2013-11-15 03:56:00,76.9,69.2,30.02,ENE,66,8.0,8.0,77,0.00,,FEW,0.00,0.00,VWS V14.01,2013-11-15 08:56:00,
2013-11-15 03:57:00,76.9,69.5,30.02,ENE,74,7.0,8.0,78,0.00,,FEW,0.00,0.00,VWS V14.01,2013-11-15 08:57:00,
2013-11-15 03:58:00,76.9,69.5,30.02,SE,124,5.0,8.0,78,0.00,,FEW,0.00,0.00,VWS V14.01,2013-11-15 08:58:00,
2013-11-15 03:59:00,76.9,69.5,30.02,East,83,5.0,8.0,78,0.00,,FEW,0.00,0.00,VWS V14.01,2013-11-15 08:59:00,
2013-11-15 04:00:00,76.9,69.5,30.02,SE,125,3.0,8.0,78,0.00,,FEW,0.00,0.00,VWS V14.01,2013-11-15 09:00:00,
2013-11-15 04:01:00,76.9,69.5,30.02,NE,54,3.0,6.0,78,0.00,,FEW,0.00,0.00,VWS V14.01,2013-11-15 09:01:00,
2013-11-15 04:03:00,76.9,69.5,30.02,East,98,7.0,10.0,78,0.00,,FEW,0.00,0.00,VWS V14.01,2013-11-15 09:03:00,
2013-11-15 04:04:00,76.9,69.5,30.02,ENE,63,3.0,10.0,78,0.00,,FEW,0.00,0.00,VWS V14.01,2013-11-15 09:04:00,
2013-11-15 04:05:00,76.9,69.5,30.02,ENE,57,7.0,10.0,78,0.00,,FEW,0.00,0.00,VWS V14.01,2013-11-15 09:05:00,
2013-11-15 04:06:00,76.9,69.5,30.02,ENE,75,5.0,10.0,78,0.00,,FEW,0.00,0.00,VWS V14.01,2013-11-15 09:06:00,
2013-11-15 04:08:00,77.0,69.6,30.02,ESE,113,3.0,10.0,78,0.00,,FEW,0.00,0.00,VWS V14.01,2013-11-15 09:08:00,
2013-11-15 04:09:00,77.0,69.6,30.02,ENE,63,3.0,10.0,78,0.00,,FEW,0.00,0.00,VWS V14.01,2013-11-15 09:09:00,
2013-11-15 04:10:00,77.0,69.6,30.02,East,86,3.0,10.0,78,0.00,,FEW,0.00,0.00,VWS V14.01,2013-11-15 09:10:00,
2013-11-15 04:11:00,76.9,69.5,30.02,ENE,61,5.0,10.0,78,0.00,,FEW,0.00,0.00,VWS V14.01,2013-11-15 09:11:00,
2013-11-15 04:13:00,76.9,69.2,30.02,ENE,72,3.0,10.0,77,0.00,,FEW,0.00,0.00,VWS V14.01,2013-11-15 09:13:00,
2013-11-15 04:14:00,76.9,69.2,30.02,East,80,2.0,10.0,77,0.00,,FEW,0.00,0.00,VWS V14.01,2013-11-15 09:14:00,
2013-11-15 04:15:00,76.9,69.2,30.03,NE,51,4.0,10.0,77,0.00,,FEW,0.00,0.00,VWS V14.01,2013-11-15 09:15:00,
2013-11-15 04:16:00,76.9,69.2,30.03,East,94,3.0,10.0,77,0.00,,FEW,0.00,0.00,VWS V14.01,2013-11-15 09:16:00,
2013-11-15 04:18:00,76.9,69.2,30.03,East,79,5.0,10.0,77,0.00,,FEW,0.00,0.00,VWS V14.01,2013-11-15 09:18:00,
2013-11-15 04:19:00,76.9,69.2,30.03,East,99,6.0,10.0,77,0.00,,FEW,0.00,0.00,VWS V14.01,2013-11-15 09:19:00,
2013-11-15 04:20:00,76.9,69.2,30.03,ESE,115,5.0,10.0,77,0.00,,FEW,0.00,0.00,VWS V14.01,2013-11-15 09:20:00,
2013-11-15 04:21:00,77.0,69.2,30.03,East,92,1.0,5.0,77,0.00,,FEW,0.00,0.00,VWS V14.01,2013-11-15 09:21:00,
2013-11-15 04:24:00,77.0,69.2,30.03,ENE,77,7.0,7.0,77,0.00,,FEW,0.00,0.00,VWS V14.01,2013-11-15 09:24:00,
2013-11-15 04:25:00,77.0,69.2,30.03,ENE,74,3.0,7.0,77,0.00,,FEW,0.00,0.00,VWS V14.01,2013-11-15 09:25:00,
2013-11-15 04:26:00,77.0,69.2,30.03,ENE,67,4.0,7.0,77,0.00,,FEW,0.00,0.00,VWS V14.01,2013-11-15 09:26:00,
2013-11-15 04:29:00,77.1,69.7,30.03,East,88,1.0,7.0,78,0.00,,FEW,0.00,0.00,VWS V14.01,2013-11-15 09:29:00,
2013-11-15 04:30:00,77.1,69.7,30.03,ESE,109,4.0,8.0,78,0.00,,FEW,0.00,0.00,VWS V14.01,2013-11-15 09:30:00,
2013-11-15 04:31:00,77.0,69.6,30.03,East,90,5.0,6.0,78,0.00,,FEW,0.00,0.00,VWS V14.01,2013-11-15 09:31:00,
2013-11-15 04:32:00,77.0,69.6,30.03,East,90,2.0,7.0,78,0.00,,FEW,0.00,0.00,VWS V14.01,2013-11-15 09:32:00,
2013-11-15 04:34:00,77.0,69.2,30.03,NE,53,4.0,7.0,77,0.00,,FEW,0.00,0.00,VWS V14.01,2013-11-15 09:34:00,
2013-11-15 04:35:00,77.0,69.2,30.03,East,90,3.0,7.0,77,0.00,,FEW,0.00,0.00,VWS V14.01,2013-11-15 09:35:00,
2013-11-15 04:36:00,77.0,69.2,30.03,East,88,6.0,8.0,77,0.00,,FEW,0.00,0.00,VWS V14.01,2013-11-15 09:36:00,
2013-11-15 04:37:00,77.0,69.2,30.03,ENE,63,2.0,9.0,77,0.00,,FEW,0.00,0.00,VWS V14.01,2013-11-15 09:37:00,
2013-11-15 04:39:00,77.0,69.2,30.03,SE,138,4.0,9.0,77,0.00,,FEW,0.00,0.00,VWS V14.01,2013-11-15 09:39:00,
2013-11-15 04:40:00,77.0,69.2,30.03,ENE,78,4.0,10.0,77,0.00,,FEW,0.00,0.00,VWS V14.01,2013-11-15 09:40:00,
2013-11-15 04:41:00,77.0,69.2,30.03,East,85,3.0,3.0,77,0.00,,FEW,0.00,0.00,VWS V14.01,2013-11-15 09:41:00,
2013-11-15 04:42:00,77.0,69.2,30.03,ENE,69,5.0,7.0,77,0.00,,FEW,0.00,0.00,VWS V14.01,2013-11-15 09:42:00,
2013-11-15 04:44:00,77.1,69.3,30.03,ESE,116,3.0,9.0,77,0.00,,FEW,0.00,0.00,VWS V14.01,2013-11-15 09:44:00,
2013-11-15 04:45:00,77.1,69.3,30.03,ENE,71,3.0,9.0,77,0.00,,FEW,0.00,0.00,VWS V14.01,2013-11-15 09:45:00,
2013-11-15 04:46:00,77.1,69.3,30.03,ENE,69,4.0,9.0,77,0.00,,FEW,0.00,0.00,VWS V14.01,2013-11-15 09:46:00,
2013-11-15 04:48:00,77.1,69.7,30.03,ESE,117,4.0,9.0,78,0.00,,FEW,0.00,0.00,VWS V14.01,2013-11-15 09:48:00,
2013-11-15 04:49:00,77.1,69.7,30.03,ENE,74,7.0,9.0,78,0.00,,FEW,0.00,0.00,VWS V14.01,2013-11-15 09:49:00,
2013-11-15 04:50:00,77.1,69.7,30.03,East,92,2.0,9.0,78,0.00,,FEW,0.00,0.00,VWS V14.01,2013-11-15 09:50:00,
2013-11-15 04:51:00,77.1,69.7,30.03,East,84,5.0,5.0,78,0.00,,FEW,0.00,0.00,VWS V14.01,2013-11-15 09:51:00,
2013-11-15 04:53:00,77.1,69.7,30.03,ENE,67,3.0,8.0,78,0.00,,FEW,0.00,0.00,VWS V14.01,2013-11-15 09:53:00,
2013-11-15 04:54:00,77.1,69.3,30.03,East,94,3.0,9.0,77,0.00,,FEW,0.00,0.00,VWS V14.01,2013-11-15 09:54:00,
2013-11-15 04:55:00,77.0,69.2,30.03,ENE,59,4.0,9.0,77,0.00,,FEW,0.00,0.00,VWS V14.01,2013-11-15 09:55:00,
2013-11-15 04:57:00,77.0,69.2,30.03,East,92,5.0,9.0,77,0.00,,FEW,0.00,0.00,VWS V14.01,2013-11-15 09:57:00,
2013-11-15 04:59:00,77.1,69.7,30.03,East,83,3.0,9.0,78,0.00,,FEW,0.00,0.00,VWS V14.01,2013-11-15 09:59:00,
2013-11-15 05:00:00,77.1,69.7,30.03,East,90,1.0,9.0,78,0.00,,FEW,0.00,0.00,VWS V14.01,2013-11-15 10:00:00,
2013-11-15 05:01:00,77.1,69.7,30.03,East,88,5.0,5.0,78,0.00,,FEW,0.00,0.00,VWS V14.01,2013-11-15 10:01:00,
2013-11-15 05:02:00,77.1,69.7,30.03,East,99,2.0,7.0,78,0.00,,FEW,0.00,0.00,VWS V14.01,2013-11-15 10:02:00,
2013-11-15 05:04:00,77.1,69.7,30.03,East,88,5.0,7.0,78,0.00,,FEW,0.00,0.00,VWS V14.01,2013-11-15 10:04:00,
2013-11-15 05:06:00,77.1,69.7,30.03,ENE,67,4.0,7.0,78,0.00,,FEW,0.00,0.00,VWS V14.01,2013-11-15 10:06:00,
2013-11-15 05:07:00,77.1,69.7,30.03,East,98,3.0,7.0,78,0.00,,FEW,0.00,0.00,VWS V14.01,2013-11-15 10:07:00,
2013-11-15 05:08:00,77.1,69.7,30.03,ENE,72,2.0,7.0,78,0.00,,FEW,0.00,0.00,VWS V14.01,2013-11-15 10:08:00,
2013-11-15 05:09:00,77.1,69.7,30.03,East,82,9.0,9.0,78,0.00,,FEW,0.00,0.00,VWS V14.01,2013-11-15 10:09:00,
2013-11-15 05:11:00,77.1,69.7,30.03,ENE,76,3.0,3.0,78,0.00,,FEW,0.00,0.00,VWS V14.01,2013-11-15 10:11:00,
2013-11-15 05:13:00,77.1,69.7,30.03,East,89,6.0,7.0,78,0.00,,FEW,0.00,0.00,VWS V14.01,2013-11-15 10:13:00,
2013-11-15 05:14:00,77.1,69.7,30.03,East,86,3.0,7.0,78,0.00,,FEW,0.00,0.00,VWS V14.01,2013-11-15 10:14:00,
2013-11-15 05:16:00,77.1,69.7,30.03,East,85,5.0,7.0,78,0.00,,FEW,0.00,0.00,VWS V14.01,2013-11-15 10:16:00,
2013-11-15 05:18:00,77.1,69.7,30.03,ENE,74,2.0,8.0,78,0.00,,FEW,0.00,0.00,VWS V14.01,2013-11-15 10:18:00,
2013-11-15 05:19:00,77.0,69.6,30.03,SE,126,2.0,8.0,78,0.00,,FEW,0.00,0.00,VWS V14.01,2013-11-15 10:19:00,
2013-11-15 05:20:00,77.1,69.7,30.03,NE,53,4.0,8.0,78,0.00,,FEW,0.00,0.00,VWS V14.01,2013-11-15 10:20:00,
2013-11-15 05:21:00,77.1,69.7,30.03,East,84,6.0,6.0,78,0.00,,FEW,0.00,0.00,VWS V14.01,2013-11-15 10:21:00,
2013-11-15 05:22:00,77.1,69.7,30.03,East,79,2.0,6.0,78,0.00,,FEW,0.00,0.00,VWS V14.01,2013-11-15 10:22:00,
2013-11-15 05:23:00,77.1,69.7,30.03,SE,128,2.0,6.0,78,0.00,,FEW,0.00,0.00,VWS V14.01,2013-11-15 10:23:00,
2013-11-15 05:24:00,77.1,69.7,30.03,ENE,77,4.0,6.0,78,0.00,,FEW,0.00,0.00,VWS V14.01,2013-11-15 10:24:00,
2013-11-15 05:25:00,77.1,69.7,30.03,ENE,74,4.0,6.0,78,0.00,,FEW,0.00,0.00,VWS V14.01,2013-11-15 10:25:00,
2013-11-15 05:26:00,77.1,69.7,30.03,East,96,1.0,6.0,78,0.00,,FEW,0.00,0.00,VWS V14.01,2013-11-15 10:26:00,
2013-11-15 05:27:00,77.1,69.7,30.03,ENE,76,2.0,6.0,78,0.00,,FEW,0.00,0.00,VWS V14.01,2013-11-15 10:27:00,
2013-11-15 05:28:00,77.1,69.7,30.03,East,97,6.0,6.0,78,0.00,,FEW,0.00,0.00,VWS V14.01,2013-11-15 10:28:00,
2013-11-15 05:29:00,77.0,69.6,30.03,ENE,59,4.0,6.0,78,0.00,,FEW,0.00,0.00,VWS V14.01,2013-11-15 10:29:00,
2013-11-15 05:30:00,77.1,69.7,30.03,ENE,61,2.0,6.0,78,0.00,,FEW,0.00,0.00,VWS V14.01,2013-11-15 10:30:00,
2013-11-15 05:31:00,77.0,69.6,30.03,ENE,69,7.0,9.0,78,0.00,,FEW,0.00,0.00,VWS V14.01,2013-11-15 10:31:00,
2013-11-15 05:32:00,77.0,69.6,30.03,ESE,105,3.0,9.0,78,0.00,,FEW,0.00,0.00,VWS V14.01,2013-11-15 10:32:00,
2013-11-15 05:34:00,77.0,69.6,30.03,ENE,71,4.0,9.0,78,0.00,,FEW,0.00,0.00,VWS V14.01,2013-11-15 10:34:00,
2013-11-15 05:35:00,77.0,69.6,30.03,East,84,3.0,9.0,78,0.00,,FEW,0.00,0.00,VWS V14.01,2013-11-15 10:35:00,
2013-11-15 05:36:00,77.0,69.6,30.03,ENE,67,5.0,9.0,78,0.00,,FEW,0.00,0.00,VWS V14.01,2013-11-15 10:36:00,
2013-11-15 05:38:00,77.1,69.7,30.03,ENE,72,5.0,9.0,78,0.00,,FEW,0.00,0.00,VWS V14.01,2013-11-15 10:38:00,
2013-11-15 05:39:00,77.1,69.7,30.03,East,86,6.0,9.0,78,0.00,,FEW,0.00,0.00,VWS V14.01,2013-11-15 10:39:00,
2013-11-15 05:41:00,77.1,69.7,30.03,East,82,9.0,9.0,78,0.00,,FEW,0.00,0.00,VWS V14.01,2013-11-15 10:41:00,
2013-11-15 05:43:00,77.1,69.7,30.03,SE,128,6.0,9.0,78,0.00,,FEW,0.00,0.00,VWS V14.01,2013-11-15 10:43:00,
2013-11-15 05:44:00,77.1,69.7,30.03,SE,136,4.0,9.0,78,0.00,,FEW,0.00,0.00,VWS V14.01,2013-11-15 10:44:00,
2013-11-15 05:46:00,77.2,69.8,30.03,SE,125,2.0,9.0,78,0.00,,FEW,0.00,0.00,VWS V14.01,2013-11-15 10:46:00,
2013-11-15 05:48:00,77.1,69.7,30.03,East,92,2.0,9.0,78,0.00,,FEW,0.00,0.00,VWS V14.01,2013-11-15 10:48:00,
2013-11-15 05:49:00,77.1,69.7,30.03,East,80,2.0,9.0,78,0.00,,FEW,0.00,0.00,VWS V14.01,2013-11-15 10:49:00,
2013-11-15 05:51:00,77.1,69.7,30.03,East,98,6.0,6.0,78,0.00,,FEW,0.00,0.00,VWS V14.01,2013-11-15 10:51:00,
2013-11-15 05:52:00,77.1,69.7,30.03,East,82,5.0,6.0,78,0.00,,FEW,0.00,0.00,VWS V14.01,2013-11-15 10:52:00,
2013-11-15 05:53:00,77.1,69.7,30.03,ENE,73,4.0,11.0,78,0.00,,FEW,0.00,0.00,VWS V14.01,2013-11-15 10:53:00,
2013-11-15 05:54:00,77.1,69.7,30.03,ESE,114,4.0,11.0,78,0.00,,FEW,0.00,0.00,VWS V14.01,2013-11-15 10:54:00,
2013-11-15 05:55:00,77.1,69.7,30.03,SE,132,1.0,11.0,78,0.00,,FEW,0.00,0.00,VWS V14.01,2013-11-15 10:55:00,
2013-11-15 05:56:00,77.1,69.7,30.03,East,87,2.0,11.0,78,0.00,,FEW,0.00,0.00,VWS V14.01,2013-11-15 10:56:00,
2013-11-15 05:57:00,77.1,69.7,30.03,East,101,2.0,11.0,78,0.00,,FEW,0.00,0.00,VWS V14.01,2013-11-15 10:57:00,
2013-11-15 05:59:00,77.1,69.7,30.03,East,99,1.0,11.0,78,0.00,,FEW,0.00,0.00,VWS V14.01,2013-11-15 10:59:00,
2013-11-15 06:00:00,77.1,69.7,30.03,ENE,67,2.0,11.0,78,0.00,,FEW,0.00,0.00,VWS V14.01,2013-11-15 11:00:00,
2013-11-15 06:01:00,77.1,69.7,30.03,East,96,5.0,10.0,78,0.00,,FEW,0.00,0.00,VWS V14.01,2013-11-15 11:01:00,
2013-11-15 06:02:00,77.1,69.7,30.03,ENE,77,4.0,10.0,78,0.00,,FEW,0.00,0.00,VWS V14.01,2013-11-15 11:02:00,
2013-11-15 06:04:00,77.1,69.7,30.03,East,94,3.0,10.0,78,0.00,,FEW,0.00,0.00,VWS V14.01,2013-11-15 11:04:00,
2013-11-15 06:05:00,77.1,70.1,30.03,East,88,2.0,10.0,79,0.00,,FEW,0.00,0.00,VWS V14.01,2013-11-15 11:05:00,
2013-11-15 06:07:00,77.1,70.1,30.03,ESE,104,3.0,10.0,79,0.00,,FEW,0.00,0.00,VWS V14.01,2013-11-15 11:07:00,
2013-11-15 06:09:00,77.1,70.1,30.03,SE,128,4.0,10.0,79,0.00,,FEW,0.00,0.00,VWS V14.01,2013-11-15 11:09:00,
2013-11-15 06:10:00,77.1,70.1,30.03,East,95,2.0,10.0,79,0.00,,FEW,0.00,0.00,VWS V14.01,2013-11-15 11:10:00,
2013-11-15 06:12:00,77.2,70.2,30.03,ESE,103,3.0,8.0,79,0.00,,FEW,0.00,0.00,VWS V14.01,2013-11-15 11:12:00,
2013-11-15 06:14:00,77.2,70.2,30.03,ENE,70,4.0,9.0,79,0.00,,FEW,0.00,0.00,VWS V14.01,2013-11-15 11:14:00,
2013-11-15 06:15:00,77.2,70.2,30.04,ESE,105,5.0,9.0,79,0.00,,FEW,0.00,0.00,VWS V14.01,2013-11-15 11:15:00,
2013-11-15 06:17:00,77.2,70.2,30.04,ENE,62,2.0,10.0,79,0.00,,FEW,0.00,0.00,VWS V14.01,2013-11-15 11:17:00,
2013-11-15 06:18:00,77.2,70.2,30.04,ESE,109,4.0,10.0,79,0.00,,FEW,0.00,0.00,VWS V14.01,2013-11-15 11:18:00,
2013-11-15 06:19:00,77.2,70.2,30.04,ENE,74,8.0,10.0,79,0.00,,FEW,0.00,0.00,VWS V14.01,2013-11-15 11:19:00,
2013-11-15 06:20:00,77.2,70.6,30.04,East,92,3.0,10.0,80,0.00,,FEW,0.00,0.00,VWS V14.01,2013-11-15 11:20:00,
2013-11-15 06:21:00,77.2,70.6,30.04,ENE,62,5.0,5.0,80,0.00,,FEW,0.00,0.00,VWS V14.01,2013-11-15 11:21:00,
2013-11-15 06:22:00,77.2,70.6,30.04,East,79,3.0,10.0,80,0.00,,FEW,0.00,0.00,VWS V14.01,2013-11-15 11:22:00,
2013-11-15 06:23:00,77.2,70.6,30.04,East,80,2.0,11.0,80,0.00,,FEW,0.00,0.00,VWS V14.01,2013-11-15 11:23:00,
2013-11-15 06:24:00,77.2,70.6,30.04,East,93,5.0,11.0,80,0.00,,FEW,0.00,0.00,VWS V14.01,2013-11-15 11:24:00,
2013-11-15 06:25:00,77.2,70.6,30.04,ENE,68,5.0,11.0,80,0.00,,FEW,0.00,0.00,VWS V14.01,2013-11-15 11:25:00,
2013-11-15 06:26:00,77.2,70.6,30.04,NE,46,6.0,11.0,80,0.00,,FEW,0.00,0.00,VWS V14.01,2013-11-15 11:26:00,
2013-11-15 06:27:00,77.2,70.6,30.04,East,83,8.0,11.0,80,0.00,,FEW,0.00,0.00,VWS V14.01,2013-11-15 11:27:00,
2013-11-15 06:28:00,77.1,70.5,30.04,East,88,2.0,11.0,80,0.00,,FEW,0.00,0.00,VWS V14.01,2013-11-15 11:28:00,
2013-11-15 06:30:00,77.1,70.5,30.05,East,83,7.0,11.0,80,0.00,,FEW,0.00,0.00,VWS V14.01,2013-11-15 11:30:00,
2013-11-15 06:31:00,77.1,70.5,30.05,East,101,3.0,8.0,80,0.00,,FEW,0.00,0.00,VWS V14.01,2013-11-15 11:31:00,
2013-11-15 06:33:00,77.1,70.5,30.05,East,96,5.0,8.0,80,0.00,,FEW,0.00,0.00,VWS V14.01,2013-11-15 11:33:00,
2013-11-15 06:35:00,77.1,70.8,30.05,ESE,113,3.0,8.0,81,0.00,,FEW,0.00,0.00,VWS V14.01,2013-11-15 11:35:00,
2013-11-15 06:36:00,77.1,70.8,30.05,East,99,3.0,8.0,81,0.00,,FEW,0.00,0.00,VWS V14.01,2013-11-15 11:36:00,
2013-11-15 06:38:00,77.1,70.8,30.05,ESE,103,7.0,8.0,81,0.00,,FEW,0.00,0.00,VWS V14.01,2013-11-15 11:38:00,
2013-11-15 06:39:00,77.0,70.7,30.05,ENE,76,3.0,8.0,81,0.00,,FEW,0.00,0.00,VWS V14.01,2013-11-15 11:39:00,
2013-11-15 06:40:00,77.0,70.7,30.05,East,90,3.0,3.0,81,0.00,,FEW,0.00,0.00,VWS V14.01,2013-11-15 11:40:00,
2013-11-15 06:41:00,77.0,70.7,30.05,ESE,102,12.0,12.0,81,0.00,,FEW,0.00,0.00,VWS V14.01,2013-11-15 11:41:00,
2013-11-15 06:43:00,76.9,70.6,30.05,East,87,5.0,12.0,81,0.00,,FEW,0.00,0.00,VWS V14.01,2013-11-15 11:43:00,
2013-11-15 06:44:00,76.9,70.6,30.05,ENE,57,7.0,12.0,81,0.00,,FEW,0.00,0.00,VWS V14.01,2013-11-15 11:44:00,
2013-11-15 06:46:00,76.9,70.6,30.04,ENE,65,3.0,12.0,81,0.00,,FEW,0.00,0.00,VWS V14.01,2013-11-15 11:46:00,
2013-11-15 06:48:00,76.9,71.0,30.04,East,82,1.0,12.0,82,0.00,,FEW,0.00,5.00,VWS V14.01,2013-11-15 11:48:00,
2013-11-15 06:49:00,76.8,70.9,30.04,East,94,6.0,12.0,82,0.00,,FEW,0.00,5.00,VWS V14.01,2013-11-15 11:49:00,
2013-11-15 06:51:00,76.8,70.9,30.04,East,92,1.0,2.0,82,0.00,,FEW,0.00,7.00,VWS V14.01,2013-11-15 11:51:00,
2013-11-15 06:53:00,76.8,70.9,30.04,East,99,3.0,8.0,82,0.00,,FEW,0.00,9.00,VWS V14.01,2013-11-15 11:53:00,
2013-11-15 06:54:00,76.7,70.8,30.04,East,98,2.0,8.0,82,0.00,,FEW,0.00,9.00,VWS V14.01,2013-11-15 11:54:00,
2013-11-15 06:56:00,76.7,70.8,30.04,East,101,5.0,8.0,82,0.00,,FEW,0.00,11.00,VWS V14.01,2013-11-15 11:56:00,
2013-11-15 06:57:00,76.7,70.8,30.04,East,99,7.0,8.0,82,0.00,,FEW,0.00,12.00,VWS V14.01,2013-11-15 11:57:00,
2013-11-15 06:58:00,76.7,70.8,30.04,East,89,6.0,10.0,82,0.00,,FEW,0.00,12.00,VWS V14.01,2013-11-15 11:58:00,
2013-11-15 06:59:00,76.7,70.8,30.04,East,94,3.0,10.0,82,0.00,,FEW,0.00,14.00,VWS V14.01,2013-11-15 11:59:00,
2013-11-15 07:00:00,76.7,70.8,30.05,ESE,120,3.0,10.0,82,0.00,,FEW,0.00,14.00,VWS V14.01,2013-11-15 12:00:00,
2013-11-15 07:01:00,76.7,70.8,30.05,ENE,74,4.0,8.0,82,0.00,,FEW,0.00,14.00,VWS V14.01,2013-11-15 12:01:00,
2013-11-15 07:03:00,76.7,70.8,30.05,East,82,3.0,10.0,82,0.00,,FEW,0.00,19.00,VWS V14.01,2013-11-15 12:03:00,
2013-11-15 07:04:00,76.7,70.8,30.05,East,98,3.0,10.0,82,0.00,,FEW,0.00,19.00,VWS V14.01,2013-11-15 12:04:00,
2013-11-15 07:05:00,76.7,70.8,30.05,East,101,3.0,10.0,82,0.00,,FEW,0.00,21.00,VWS V14.01,2013-11-15 12:05:00,
2013-11-15 07:06:00,76.7,70.8,30.05,East,86,1.0,10.0,82,0.00,,FEW,0.00,21.00,VWS V14.01,2013-11-15 12:06:00,
2013-11-15 07:08:00,76.7,70.8,30.05,ENE,57,7.0,10.0,82,0.00,,FEW,0.00,21.00,VWS V14.01,2013-11-15 12:08:00,
2013-11-15 07:09:00,76.7,70.8,30.05,ESE,122,7.0,10.0,82,0.00,,FEW,0.00,23.00,VWS V14.01,2013-11-15 12:09:00,
2013-11-15 07:10:00,76.7,70.8,30.05,ENE,74,10.0,10.0,82,0.00,,FEW,0.00,25.00,VWS V14.01,2013-11-15 12:10:00,
2013-11-15 07:11:00,76.7,70.8,30.05,East,97,8.0,8.0,82,0.00,,FEW,0.00,26.00,VWS V14.01,2013-11-15 12:11:00,
2013-11-15 07:13:00,76.7,70.8,30.05,East,95,3.0,8.0,82,0.00,,FEW,0.00,28.00,VWS V14.01,2013-11-15 12:13:00,
2013-11-15 07:14:00,76.7,70.8,30.05,East,83,2.0,8.0,82,0.00,,FEW,0.00,30.00,VWS V14.01,2013-11-15 12:14:00,
2013-11-15 07:15:00,76.7,70.8,30.05,East,92,9.0,11.0,82,0.00,,FEW,0.00,32.00,VWS V14.01,2013-11-15 12:15:00,
2013-11-15 07:16:00,76.7,70.8,30.05,ESE,102,9.0,11.0,82,0.00,,FEW,0.00,35.00,VWS V14.01,2013-11-15 12:16:00,
2013-11-15 07:18:00,76.7,70.8,30.05,ENE,69,3.0,11.0,82,0.00,,FEW,0.00,40.00,VWS V14.01,2013-11-15 12:18:00,
2013-11-15 07:19:00,76.7,70.8,30.05,East,91,3.0,11.0,82,0.00,,FEW,0.00,42.00,VWS V14.01,2013-11-15 12:19:00,
2013-11-15 07:20:00,76.7,70.8,30.05,East,89,2.0,11.0,82,0.00,,FEW,0.00,46.00,VWS V14.01,2013-11-15 12:20:00,
2013-11-15 07:21:00,76.7,70.8,30.05,SE,132,4.0,6.0,82,0.00,,FEW,0.00,47.00,VWS V14.01,2013-11-15 12:21:00,
2013-11-15 07:23:00,76.8,71.2,30.05,East,84,2.0,7.0,83,0.00,,FEW,0.00,54.00,VWS V14.01,2013-11-15 12:23:00,
2013-11-15 07:25:00,76.8,71.2,30.05,NE,49,5.0,7.0,83,0.00,,FEW,0.00,54.00,VWS V14.01,2013-11-15 12:25:00,
2013-11-15 07:26:00,76.8,71.2,30.05,ENE,74,4.0,7.0,83,0.00,,FEW,0.00,60.00,VWS V14.01,2013-11-15 12:26:00,
2013-11-15 07:28:00,76.8,71.2,30.05,East,84,5.0,8.0,83,0.00,,FEW,0.00,65.00,VWS V14.01,2013-11-15 12:28:00,
2013-11-15 07:30:00,76.8,70.9,30.05,ENE,75,4.0,8.0,82,0.00,,FEW,0.00,69.00,VWS V14.01,2013-11-15 12:30:00,
2013-11-15 07:31:00,76.8,70.9,30.05,ENE,75,3.0,6.0,82,0.00,,FEW,0.00,72.00,VWS V14.01,2013-11-15 12:31:00,
2013-11-15 07:33:00,76.8,70.9,30.05,NNE,21,3.0,10.0,82,0.00,,FEW,0.00,76.00,VWS V14.01,2013-11-15 12:33:00,
2013-11-15 07:35:00,76.9,71.0,30.05,ENE,71,5.0,10.0,82,0.00,,FEW,0.00,79.00,VWS V14.01,2013-11-15 12:35:00,
2013-11-15 07:36:00,76.9,71.0,30.05,ENE,78,4.0,10.0,82,0.00,,FEW,0.00,81.00,VWS V14.01,2013-11-15 12:36:00,
2013-11-15 07:37:00,76.9,71.0,30.05,East,94,7.0,10.0,82,0.00,,FEW,0.00,84.00,VWS V14.01,2013-11-15 12:37:00,
2013-11-15 07:38:00,77.0,71.1,30.05,East,94,7.0,10.0,82,0.00,,FEW,0.00,86.00,VWS V14.01,2013-11-15 12:38:00,
2013-11-15 07:40:00,77.1,70.8,30.05,ENE,71,3.0,10.0,81,0.00,,FEW,0.00,95.00,VWS V14.01,2013-11-15 12:40:00,
2013-11-15 07:41:00,77.1,70.8,30.05,East,86,9.0,9.0,81,0.00,,FEW,0.00,102.00,VWS V14.01,2013-11-15 12:41:00,
2013-11-15 07:42:00,77.2,70.9,30.05,East,82,3.0,9.0,81,0.00,,FEW,0.00,109.00,VWS V14.01,2013-11-15 12:42:00,
2013-11-15 07:44:00,77.3,71.0,30.05,ESE,107,7.0,9.0,81,0.00,,FEW,0.00,127.00,VWS V14.01,2013-11-15 12:44:00,
2013-11-15 07:45:00,77.3,71.0,30.05,East,88,3.0,9.0,81,0.00,,FEW,0.00,139.00,VWS V14.01,2013-11-15 12:45:00,
2013-11-15 07:46:00,77.4,71.1,30.05,East,79,5.0,9.0,81,0.00,,FEW,0.00,139.00,VWS V14.01,2013-11-15 12:46:00,
2013-11-15 07:47:00,77.4,71.1,30.05,ENE,67,7.0,10.0,81,0.00,,FEW,0.00,148.00,VWS V14.01,2013-11-15 12:47:00,
2013-11-15 07:49:00,77.5,71.2,30.05,ESE,109,2.0,10.0,81,0.00,,FEW,0.00,172.00,VWS V14.01,2013-11-15 12:49:00,
2013-11-15 07:51:00,77.6,71.3,30.05,East,90,7.0,7.0,81,0.00,,FEW,0.00,174.00,VWS V14.01,2013-11-15 12:51:00,
2013-11-15 07:52:00,77.6,71.3,30.05,ESE,123,5.0,10.0,81,0.00,,FEW,0.00,174.00,VWS V14.01,2013-11-15 12:52:00,
2013-11-15 07:54:00,77.7,71.0,30.05,East,88,5.0,10.0,80,0.00,,FEW,0.00,185.00,VWS V14.01,2013-11-15 12:54:00,
2013-11-15 07:56:00,77.8,71.1,30.05,East,88,7.0,10.0,80,0.00,,FEW,0.00,174.00,VWS V14.01,2013-11-15 12:56:00,
2013-11-15 07:57:00,77.8,71.1,30.05,ENE,64,4.0,10.0,80,0.00,,FEW,0.00,165.00,VWS V14.01,2013-11-15 12:57:00,
2013-11-15 07:58:00,77.8,71.1,30.05,ENE,71,5.0,10.0,80,0.00,,FEW,0.00,165.00,VWS V14.01,2013-11-15 12:58:00,
2013-11-15 07:59:00,77.8,70.8,30.05,ESE,106,2.0,10.0,79,0.00,,FEW,0.00,148.00,VWS V14.01,2013-11-15 12:59:00,
2013-11-15 08:01:00,77.9,70.9,30.05,ENE,74,2.0,11.0,79,0.00,,FEW,0.00,130.00,VWS V14.01,2013-11-15 13:01:00,
2013-11-15 08:02:00,78.0,71.0,30.05,ENE,69,4.0,11.0,79,0.00,,FEW,0.00,125.00,VWS V14.01,2013-11-15 13:02:00,
2013-11-15 08:03:00,78.0,71.0,30.05,ENE,67,3.0,11.0,79,0.00,,FEW,0.00,121.00,VWS V14.01,2013-11-15 13:03:00,
2013-11-15 08:04:00,78.0,71.0,30.05,ESE,119,4.0,11.0,79,0.00,,FEW,0.00,118.00,VWS V14.01,2013-11-15 13:04:00,
2013-11-15 08:07:00,78.1,71.1,30.05,ENE,78,4.0,11.0,79,0.00,,FEW,0.00,114.00,VWS V14.01,2013-11-15 13:07:00,
2013-11-15 08:08:00,78.1,71.1,30.05,ENE,65,4.0,11.0,79,0.00,,FEW,0.00,113.00,VWS V14.01,2013-11-15 13:08:00,
2013-11-15 08:09:00,78.1,71.1,30.05,East,89,7.0,11.0,79,0.00,,FEW,0.00,113.00,VWS V14.01,2013-11-15 13:09:00,
2013-11-15 08:10:00,78.1,71.1,30.05,East,79,7.0,12.0,79,0.00,,FEW,0.00,113.00,VWS V14.01,2013-11-15 13:10:00,
2013-11-15 08:12:00,78.0,71.0,30.05,ENE,73,5.0,13.0,79,0.00,,FEW,0.00,111.00,VWS V14.01,2013-11-15 13:12:00,
2013-11-15 08:13:00,78.0,71.0,30.05,NE,53,5.0,13.0,79,0.00,,FEW,0.00,111.00,VWS V14.01,2013-11-15 13:13:00,
2013-11-15 08:14:00,78.1,71.1,30.05,NE,55,8.0,13.0,79,0.00,,FEW,0.00,111.00,VWS V14.01,2013-11-15 13:14:00,
2013-11-15 08:15:00,78.1,71.1,30.06,ESE,102,9.0,13.0,79,0.00,,FEW,0.00,113.00,VWS V14.01,2013-11-15 13:15:00,
2013-11-15 08:17:00,78.0,70.6,30.06,East,89,3.0,13.0,78,0.00,,FEW,0.00,120.00,VWS V14.01,2013-11-15 13:17:00,
2013-11-15 08:18:00,78.1,70.7,30.06,East,85,3.0,13.0,78,0.00,,FEW,0.00,125.00,VWS V14.01,2013-11-15 13:18:00,
2013-11-15 08:20:00,78.1,70.7,30.06,ENE,72,4.0,13.0,78,0.00,,FEW,0.00,128.00,VWS V14.01,2013-11-15 13:20:00,
2013-11-15 08:22:00,78.1,70.7,30.06,ESE,119,3.0,10.0,78,0.00,,FEW,0.00,141.00,VWS V14.01,2013-11-15 13:22:00,
2013-11-15 08:23:00,78.2,70.8,30.06,East,96,7.0,10.0,78,0.00,,FEW,0.00,144.00,VWS V14.01,2013-11-15 13:23:00,
2013-11-15 08:24:00,78.2,70.8,30.06,ESE,119,3.0,10.0,78,0.00,,FEW,0.00,144.00,VWS V14.01,2013-11-15 13:24:00,
2013-11-15 08:25:00,78.2,70.8,30.06,NNE,19,5.0,10.0,78,0.00,,FEW,0.00,141.00,VWS V14.01,2013-11-15 13:25:00,
2013-11-15 08:27:00,78.3,70.9,30.06,ESE,119,3.0,10.0,78,0.00,,FEW,0.00,135.00,VWS V14.01,2013-11-15 13:27:00,
2013-11-15 08:28:00,78.3,70.9,30.06,East,80,6.0,10.0,78,0.00,,FEW,0.00,134.00,VWS V14.01,2013-11-15 13:28:00,
2013-11-15 08:29:00,78.3,70.9,30.06,East,92,2.0,10.0,78,0.00,,FEW,0.00,132.00,VWS V14.01,2013-11-15 13:29:00,
2013-11-15 08:30:00,78.3,70.9,30.06,East,91,7.0,10.0,78,0.00,,FEW,0.00,132.00,VWS V14.01,2013-11-15 13:30:00,
2013-11-15 08:32:00,78.3,70.9,30.06,ESE,113,2.0,7.0,78,0.00,,FEW,0.00,128.00,VWS V14.01,2013-11-15 13:32:00,
2013-11-15 08:34:00,78.3,70.9,30.06,ENE,77,4.0,7.0,78,0.00,,FEW,0.00,127.00,VWS V14.01,2013-11-15 13:34:00,
2013-11-15 08:35:00,78.4,71.0,30.06,East,85,2.0,7.0,78,0.00,,FEW,0.00,127.00,VWS V14.01,2013-11-15 13:35:00,
2013-11-15 08:36:00,78.4,71.0,30.06,ENE,75,4.0,8.0,78,0.00,,FEW,0.00,127.00,VWS V14.01,2013-11-15 13:36:00,
2013-11-15 08:37:00,78.4,71.0,30.06,ENE,78,7.0,10.0,78,0.00,,FEW,0.00,134.00,VWS V14.01,2013-11-15 13:37:00,
2013-11-15 08:39:00,78.4,70.6,30.06,East,86,2.0,10.0,77,0.00,,FEW,0.00,139.00,VWS V14.01,2013-11-15 13:39:00,
2013-11-15 08:40:00,78.4,70.6,30.06,East,98,5.0,11.0,77,0.00,,FEW,0.00,142.00,VWS V14.01,2013-11-15 13:40:00,
2013-11-15 08:41:00,78.4,70.6,30.06,East,83,3.0,7.0,77,0.00,,FEW,0.00,146.00,VWS V14.01,2013-11-15 13:41:00,
2013-11-15 08:43:00,78.4,71.0,30.06,NE,40,5.0,8.0,78,0.00,,FEW,0.00,149.00,VWS V14.01,2013-11-15 13:43:00,
2013-11-15 08:44:00,78.4,71.0,30.06,ENE,78,3.0,8.0,78,0.00,,FEW,0.00,151.00,VWS V14.01,2013-11-15 13:44:00,
2013-11-15 08:45:00,78.4,71.0,30.06,East,96,3.0,8.0,78,0.00,,FEW,0.00,153.00,VWS V14.01,2013-11-15 13:45:00,
2013-11-15 08:46:00,78.4,71.0,30.06,ENE,63,4.0,8.0,78,0.00,,FEW,0.00,151.00,VWS V14.01,2013-11-15 13:46:00,
2013-11-15 08:48:00,78.4,71.0,30.06,ESE,107,4.0,9.0,78,0.00,,FEW,0.00,148.00,VWS V14.01,2013-11-15 13:48:00,
2013-11-15 08:49:00,78.5,71.1,30.06,ENE,76,3.0,11.0,78,0.00,,FEW,0.00,146.00,VWS V14.01,2013-11-15 13:49:00,
2013-11-15 08:50:00,78.5,71.1,30.06,ENE,76,4.0,11.0,78,0.00,,FEW,0.00,142.00,VWS V14.01,2013-11-15 13:50:00,
2013-11-15 08:51:00,78.4,71.0,30.06,NE,52,3.0,5.0,78,0.00,,FEW,0.00,141.00,VWS V14.01,2013-11-15 13:51:00,
2013-11-15 08:53:00,78.5,71.1,30.06,ENE,57,8.0,8.0,78,0.00,,FEW,0.00,139.00,VWS V14.01,2013-11-15 13:53:00,
2013-11-15 08:55:00,78.4,71.0,30.06,East,99,3.0,8.0,78,0.00,,FEW,0.00,135.00,VWS V14.01,2013-11-15 13:55:00,
2013-11-15 08:56:00,78.4,71.0,30.06,ESE,103,8.0,10.0,78,0.00,,FEW,0.00,134.00,VWS V14.01,2013-11-15 13:56:00,
2013-11-15 08:58:00,78.4,71.0,30.06,ENE,58,5.0,10.0,78,0.00,,FEW,0.00,134.00,VWS V14.01,2013-11-15 13:58:00,
2013-11-15 09:00:00,78.4,70.6,30.06,ENE,69,7.0,10.0,77,0.00,,FEW,0.00,134.00,VWS V14.01,2013-11-15 14:00:00,
2013-11-15 09:01:00,78.4,70.6,30.06,East,90,5.0,9.0,77,0.00,,FEW,0.00,135.00,VWS V14.01,2013-11-15 14:01:00,
2013-11-15 09:02:00,78.4,70.6,30.06,East,89,8.0,9.0,77,0.00,,FEW,0.00,135.00,VWS V14.01,2013-11-15 14:02:00,
2013-11-15 09:03:00,78.3,70.5,30.06,ESE,120,3.0,9.0,77,0.00,,FEW,0.00,135.00,VWS V14.01,2013-11-15 14:03:00,
2013-11-15 09:05:00,78.4,70.6,30.06,NE,51,7.0,9.0,77,0.00,,FEW,0.00,134.00,VWS V14.01,2013-11-15 14:05:00,
2013-11-15 09:06:00,78.4,70.6,30.06,ESE,116,9.0,10.0,77,0.00,,FEW,0.00,134.00,VWS V14.01,2013-11-15 14:06:00,
2013-11-15 09:07:00,78.4,70.6,30.06,ENE,71,4.0,10.0,77,0.00,,FEW,0.00,132.00,VWS V14.01,2013-11-15 14:07:00,
2013-11-15 09:08:00,78.4,70.6,30.06,East,82,7.0,10.0,77,0.00,,FEW,0.00,134.00,VWS V14.01,2013-11-15 14:08:00,
2013-11-15 09:10:00,78.5,71.1,30.06,East,96,6.0,10.0,78,0.00,,FEW,0.00,137.00,VWS V14.01,2013-11-15 14:10:00,
2013-11-15 09:11:00,78.5,71.1,30.06,ENE,76,5.0,8.0,78,0.00,,FEW,0.00,137.00,VWS V14.01,2013-11-15 14:11:00,
2013-11-15 09:12:00,78.5,71.1,30.06,East,86,7.0,8.0,78,0.00,,FEW,0.00,139.00,VWS V14.01,2013-11-15 14:12:00,
2013-11-15 09:13:00,78.5,71.1,30.06,ENE,57,2.0,8.0,78,0.00,,FEW,0.00,141.00,VWS V14.01,2013-11-15 14:13:00,
2013-11-15 09:15:00,78.5,71.1,30.06,ENE,71,4.0,9.0,78,0.00,,FEW,0.00,142.00,VWS V14.01,2013-11-15 14:15:00,
2013-11-15 09:16:00,78.5,71.1,30.06,ENE,65,5.0,9.0,78,0.00,,FEW,0.00,144.00,VWS V14.01,2013-11-15 14:16:00,
2013-11-15 09:17:00,78.5,71.1,30.06,East,82,8.0,9.0,78,0.00,,FEW,0.00,146.00,VWS V14.01,2013-11-15 14:17:00,
2013-11-15 09:18:00,78.5,71.1,30.06,East,91,7.0,9.0,78,0.00,,FEW,0.00,146.00,VWS V14.01,2013-11-15 14:18:00,
2013-11-15 09:20:00,78.5,71.1,30.06,East,80,3.0,9.0,78,0.00,,FEW,0.00,149.00,VWS V14.01,2013-11-15 14:20:00,
2013-11-15 09:21:00,78.5,71.1,30.06,ENE,69,3.0,3.0,78,0.00,,FEW,0.00,149.00,VWS V14.01,2013-11-15 14:21:00,
2013-11-15 09:22:00,78.6,71.2,30.06,East,90,7.0,10.0,78,0.00,,FEW,0.00,151.00,VWS V14.01,2013-11-15 14:22:00,
2013-11-15 09:23:00,78.6,71.2,30.06,ENE,76,9.0,10.0,78,0.00,,FEW,0.00,156.00,VWS V14.01,2013-11-15 14:23:00,
2013-11-15 09:25:00,78.6,71.2,30.06,ENE,68,2.0,10.0,78,0.00,,FEW,0.00,162.00,VWS V14.01,2013-11-15 14:25:00,
2013-11-15 09:26:00,78.6,71.2,30.06,NE,49,6.0,10.0,78,0.00,,FEW,0.00,162.00,VWS V14.01,2013-11-15 14:26:00,
2013-11-15 09:27:00,78.6,71.2,30.06,ENE,59,3.0,10.0,78,0.00,,FEW,0.00,163.00,VWS V14.01,2013-11-15 14:27:00,
2013-11-15 09:28:00,78.6,71.2,30.06,East,98,8.0,10.0,78,0.00,,FEW,0.00,169.00,VWS V14.01,2013-11-15 14:28:00,
2013-11-15 09:30:00,78.6,71.2,30.07,NE,55,3.0,10.0,78,0.00,,FEW,0.00,171.00,VWS V14.01,2013-11-15 14:30:00,
2013-11-15 09:31:00,78.6,71.2,30.07,ENE,74,3.0,5.0,78,0.00,,FEW,0.00,172.00,VWS V14.01,2013-11-15 14:31:00,
2013-11-15 09:32:00,78.7,71.3,30.07,ENE,78,3.0,11.0,78,0.00,,FEW,0.00,172.00,VWS V14.01,2013-11-15 14:32:00,
2013-11-15 09:33:00,78.6,71.2,30.07,ENE,68,3.0,11.0,78,0.00,,FEW,0.00,172.00,VWS V14.01,2013-11-15 14:33:00,
2013-11-15 09:34:00,78.7,71.3,30.07,ENE,76,3.0,11.0,78,0.00,,FEW,0.00,172.00,VWS V14.01,2013-11-15 14:34:00,
2013-11-15 09:35:00,78.7,71.3,30.07,NE,56,5.0,11.0,78,0.00,,FEW,0.00,172.00,VWS V14.01,2013-11-15 14:35:00,
2013-11-15 09:36:00,78.7,71.3,30.07,ENE,75,10.0,11.0,78,0.00,,FEW,0.00,171.00,VWS V14.01,2013-11-15 14:36:00,
2013-11-15 09:37:00,78.7,71.3,30.07,East,87,7.0,11.0,78,0.00,,FEW,0.00,174.00,VWS V14.01,2013-11-15 14:37:00,
2013-11-15 09:38:00,78.8,71.4,30.07,ENE,78,4.0,11.0,78,0.00,,FEW,0.00,176.00,VWS V14.01,2013-11-15 14:38:00,
2013-11-15 09:39:00,78.8,71.4,30.07,East,87,9.0,11.0,78,0.00,,FEW,0.00,176.00,VWS V14.01,2013-11-15 14:39:00,
2013-11-15 09:41:00,78.8,71.4,30.07,East,99,13.0,13.0,78,0.00,,FEW,0.00,181.00,VWS V14.01,2013-11-15 14:41:00,
2013-11-15 09:42:00,78.8,71.4,30.07,NE,50,4.0,13.0,78,0.00,,FEW,0.00,185.00,VWS V14.01,2013-11-15 14:42:00,
2013-11-15 09:44:00,78.8,71.4,30.07,East,93,5.0,13.0,78,0.00,,FEW,0.00,188.00,VWS V14.01,2013-11-15 14:44:00,
2013-11-15 09:46:00,78.8,71.4,30.07,NE,46,4.0,13.0,78,0.00,,FEW,0.00,188.00,VWS V14.01,2013-11-15 14:46:00,
2013-11-15 09:47:00,78.9,71.5,30.07,East,88,1.0,13.0,78,0.00,,FEW,0.00,185.00,VWS V14.01,2013-11-15 14:47:00,
2013-11-15 09:48:00,78.9,71.5,30.07,East,82,7.0,13.0,78,0.00,,FEW,0.00,204.00,VWS V14.01,2013-11-15 14:48:00,
2013-11-15 09:49:00,78.9,71.5,30.07,ENE,70,4.0,13.0,78,0.00,,FEW,0.00,216.00,VWS V14.01,2013-11-15 14:49:00,
2013-11-15 09:50:00,78.9,71.5,30.07,NE,51,5.0,13.0,78,0.00,,FEW,0.00,216.00,VWS V14.01,2013-11-15 14:50:00,
2013-11-15 09:51:00,78.9,71.5,30.07,ENE,73,3.0,3.0,78,0.00,,FEW,0.00,220.00,VWS V14.01,2013-11-15 14:51:00,
2013-11-15 09:52:00,79.0,71.6,30.07,East,88,3.0,6.0,78,0.00,,FEW,0.00,234.00,VWS V14.01,2013-11-15 14:52:00,
2013-11-15 09:53:00,79.0,71.6,30.07,ENE,71,7.0,8.0,78,0.00,,FEW,0.00,244.00,VWS V14.01,2013-11-15 14:53:00,
2013-11-15 09:54:00,79.0,71.6,30.07,East,82,8.0,8.0,78,0.00,,FEW,0.00,243.00,VWS V14.01,2013-11-15 14:54:00,
2013-11-15 09:55:00,79.1,71.7,30.07,ENE,76,3.0,8.0,78,0.00,,FEW,0.00,243.00,VWS V14.01,2013-11-15 14:55:00,
2013-11-15 09:56:00,79.1,71.7,30.07,East,89,7.0,11.0,78,0.00,,FEW,0.00,279.00,VWS V14.01,2013-11-15 14:56:00,
2013-11-15 09:57:00,79.1,71.7,30.07,East,95,5.0,11.0,78,0.00,,FEW,0.00,290.00,VWS V14.01,2013-11-15 14:57:00,
2013-11-15 09:59:00,79.1,71.7,30.07,ENE,76,9.0,11.0,78,0.00,,FEW,0.00,316.00,VWS V14.01,2013-11-15 14:59:00,
2013-11-15 10:00:00,79.2,71.8,30.07,ENE,71,3.0,11.0,78,0.00,,FEW,0.00,348.00,VWS V14.01,2013-11-15 15:00:00,
2013-11-15 10:01:00,79.3,71.8,30.07,East,101,3.0,6.0,78,0.00,,FEW,0.00,352.00,VWS V14.01,2013-11-15 15:01:00,
2013-11-15 10:02:00,79.3,71.8,30.07,East,91,1.0,6.0,78,0.00,,FEW,0.00,364.00,VWS V14.01,2013-11-15 15:02:00,
2013-11-15 10:04:00,79.5,72.0,30.07,NE,51,5.0,9.0,78,0.00,,FEW,0.00,339.00,VWS V14.01,2013-11-15 15:04:00,
2013-11-15 10:05:00,79.5,71.7,30.07,East,90,2.0,9.0,77,0.00,,FEW,0.00,385.00,VWS V14.01,2013-11-15 15:05:00,
2013-11-15 10:06:00,79.6,71.8,30.07,ESE,119,7.0,9.0,77,0.00,,FEW,0.00,348.00,VWS V14.01,2013-11-15 15:06:00,
2013-11-15 10:07:00,79.6,71.8,30.07,NE,55,7.0,9.0,77,0.00,,FEW,0.00,348.00,VWS V14.01,2013-11-15 15:07:00,
2013-11-15 10:09:00,79.7,71.9,30.07,East,90,5.0,11.0,77,0.00,,FEW,0.00,287.00,VWS V14.01,2013-11-15 15:09:00,
2013-11-15 10:10:00,79.8,71.9,30.07,ENE,74,9.0,11.0,77,0.00,,FEW,0.00,243.00,VWS V14.01,2013-11-15 15:10:00,
2013-11-15 10:11:00,79.7,71.9,30.07,NE,51,4.0,6.0,77,0.00,,FEW,0.00,243.00,VWS V14.01,2013-11-15 15:11:00,
2013-11-15 10:12:00,79.8,71.9,30.07,East,98,2.0,6.0,77,0.00,,FEW,0.00,185.00,VWS V14.01,2013-11-15 15:12:00,
2013-11-15 10:14:00,79.8,71.9,30.07,ENE,73,4.0,8.0,77,0.00,,FEW,0.00,200.00,VWS V14.01,2013-11-15 15:14:00,
2013-11-15 10:15:00,79.8,71.9,30.07,ENE,72,5.0,8.0,77,0.00,,FEW,0.00,216.00,VWS V14.01,2013-11-15 15:15:00,
2013-11-15 10:16:00,79.8,71.9,30.07,East,84,3.0,8.0,77,0.00,,FEW,0.00,234.00,VWS V14.01,2013-11-15 15:16:00,
2013-11-15 10:17:00,79.8,71.9,30.07,ENE,59,5.0,8.0,77,0.00,,FEW,0.00,243.00,VWS V14.01,2013-11-15 15:17:00,
2013-11-15 10:20:00,79.8,71.9,30.07,East,96,5.0,10.0,77,0.00,,FEW,0.00,236.00,VWS V14.01,2013-11-15 15:20:00,
2013-11-15 10:21:00,79.8,71.9,30.07,ENE,76,4.0,6.0,77,0.00,,FEW,0.00,246.00,VWS V14.01,2013-11-15 15:21:00,
2013-11-15 10:22:00,79.8,71.9,30.07,East,96,7.0,8.0,77,0.00,,FEW,0.00,229.00,VWS V14.01,2013-11-15 15:22:00,
2013-11-15 10:23:00,79.8,71.9,30.07,NE,52,3.0,8.0,77,0.00,,FEW,0.00,209.00,VWS V14.01,2013-11-15 15:23:00,
2013-11-15 10:24:00,79.7,71.9,30.07,East,83,3.0,10.0,77,0.00,,FEW,0.00,202.00,VWS V14.01,2013-11-15 15:24:00,
2013-11-15 10:25:00,79.7,71.9,30.07,East,87,6.0,10.0,77,0.00,,FEW,0.00,195.00,VWS V14.01,2013-11-15 15:25:00,
2013-11-15 10:26:00,79.7,71.9,30.07,East,86,8.0,12.0,77,0.00,,FEW,0.00,178.00,VWS V14.01,2013-11-15 15:26:00,
2013-11-15 10:27:00,79.7,71.9,30.07,ENE,59,4.0,12.0,77,0.00,,FEW,0.00,178.00,VWS V14.01,2013-11-15 15:27:00,
2013-11-15 10:28:00,79.6,71.8,30.07,East,97,3.0,12.0,77,0.00,,FEW,0.00,178.00,VWS V14.01,2013-11-15 15:28:00,
2013-11-15 10:30:00,79.6,71.8,30.07,East,96,1.0,12.0,77,0.00,,FEW,0.00,153.00,VWS V14.01,2013-11-15 15:30:00,
2013-11-15 10:31:00,79.6,71.8,30.07,ESE,109,4.0,5.0,77,0.00,,FEW,0.00,149.00,VWS V14.01,2013-11-15 15:31:00,
2013-11-15 10:32:00,79.6,71.8,30.07,ENE,77,4.0,8.0,77,0.00,,FEW,0.00,142.00,VWS V14.01,2013-11-15 15:32:00,
2013-11-15 10:33:00,79.5,71.7,30.07,NE,44,6.0,9.0,77,0.00,,FEW,0.00,141.00,VWS V14.01,2013-11-15 15:33:00,
2013-11-15 10:35:00,79.5,71.7,30.07,ENE,61,5.0,9.0,77,0.00,,FEW,0.00,121.00,VWS V14.01,2013-11-15 15:35:00,
2013-11-15 10:36:00,79.4,71.6,30.07,ENE,61,4.0,9.0,77,0.00,,FEW,0.00,127.00,VWS V14.01,2013-11-15 15:36:00,
2013-11-15 10:37:00,79.4,71.6,30.07,NE,56,3.0,9.0,77,0.00,,FEW,0.00,132.00,VWS V14.01,2013-11-15 15:37:00,
2013-11-15 10:38:00,79.4,71.6,30.07,East,92,6.0,9.0,77,0.00,,FEW,0.00,134.00,VWS V14.01,2013-11-15 15:38:00,
2013-11-15 10:40:00,79.3,71.5,30.07,East,79,3.0,9.0,77,0.00,,FEW,0.00,134.00,VWS V14.01,2013-11-15 15:40:00,
2013-11-15 10:42:00,79.3,71.5,30.07,East,90,6.0,6.0,77,0.00,,FEW,0.00,149.00,VWS V14.01,2013-11-15 15:42:00,
2013-11-15 10:43:00,79.2,71.4,30.07,ENE,59,7.0,7.0,77,0.00,,FEW,0.00,165.00,VWS V14.01,2013-11-15 15:43:00,
2013-11-15 10:46:00,79.2,71.4,30.07,East,83,5.0,9.0,77,0.00,,FEW,0.00,200.00,VWS V14.01,2013-11-15 15:46:00,
2013-11-15 10:47:00,79.2,71.4,30.07,ENE,69,3.0,9.0,77,0.00,,FEW,0.00,200.00,VWS V14.01,2013-11-15 15:47:00,
2013-11-15 10:48:00,79.2,71.4,30.07,East,83,7.0,9.0,77,0.00,,FEW,0.00,192.00,VWS V14.01,2013-11-15 15:48:00,
2013-11-15 10:51:00,79.3,71.8,30.07,East,82,7.0,7.0,78,0.00,,FEW,0.00,200.00,VWS V14.01,2013-11-15 15:51:00,
2013-11-15 10:52:00,79.4,71.9,30.07,NE,55,3.0,7.0,78,0.00,,FEW,0.00,197.00,VWS V14.01,2013-11-15 15:52:00,
2013-11-15 10:53:00,79.4,71.6,30.07,NE,46,2.0,11.0,77,0.00,,FEW,0.00,176.00,VWS V14.01,2013-11-15 15:53:00,
2013-11-15 10:54:00,79.4,71.6,30.07,ENE,72,3.0,11.0,77,0.00,,FEW,0.00,176.00,VWS V14.01,2013-11-15 15:54:00,
2013-11-15 10:56:00,79.4,71.6,30.07,East,88,5.0,11.0,77,0.00,,FEW,0.00,202.00,VWS V14.01,2013-11-15 15:56:00,
2013-11-15 10:57:00,79.4,71.6,30.07,ESE,105,7.0,11.0,77,0.00,,FEW,0.00,200.00,VWS V14.01,2013-11-15 15:57:00,
2013-11-15 10:58:00,79.4,71.6,30.07,East,86,3.0,11.0,77,0.00,,FEW,0.00,174.00,VWS V14.01,2013-11-15 15:58:00,
2013-11-15 10:59:00,79.4,71.6,30.07,East,91,8.0,11.0,77,0.00,,FEW,0.00,174.00,VWS V14.01,2013-11-15 15:59:00,
2013-11-15 11:01:00,79.4,71.6,30.07,East,80,2.0,8.0,77,0.00,,FEW,0.00,181.00,VWS V14.01,2013-11-15 16:01:00,
2013-11-15 11:02:00,79.4,71.6,30.07,ENE,61,3.0,8.0,77,0.00,,FEW,0.00,202.00,VWS V14.01,2013-11-15 16:02:00,
2013-11-15 11:03:00,79.4,71.6,30.07,East,82,3.0,8.0,77,0.00,,FEW,0.00,207.00,VWS V14.01,2013-11-15 16:03:00,
2013-11-15 11:04:00,79.4,71.6,30.07,ENE,58,5.0,8.0,77,0.00,,FEW,0.00,206.00,VWS V14.01,2013-11-15 16:04:00,
2013-11-15 11:06:00,79.4,71.6,30.07,NE,41,3.0,9.0,77,0.00,,FEW,0.00,199.00,VWS V14.01,2013-11-15 16:06:00,
2013-11-15 11:07:00,79.4,71.6,30.07,NE,53,3.0,9.0,77,0.00,,FEW,0.00,202.00,VWS V14.01,2013-11-15 16:07:00,
2013-11-15 11:08:00,79.4,71.6,30.07,ENE,72,4.0,12.0,77,0.00,,FEW,0.00,202.00,VWS V14.01,2013-11-15 16:08:00,
2013-11-15 11:09:00,79.4,71.6,30.07,East,79,3.0,12.0,77,0.00,,FEW,0.00,181.00,VWS V14.01,2013-11-15 16:09:00,
2013-11-15 11:11:00,79.5,71.7,30.07,ENE,70,4.0,7.0,77,0.00,,FEW,0.00,192.00,VWS V14.01,2013-11-15 16:11:00,
2013-11-15 11:12:00,79.5,71.7,30.07,ENE,72,1.0,7.0,77,0.00,,FEW,0.00,202.00,VWS V14.01,2013-11-15 16:12:00,
2013-11-15 11:13:00,79.5,71.7,30.07,ENE,67,2.0,11.0,77,0.00,,FEW,0.00,225.00,VWS V14.01,2013-11-15 16:13:00,
2013-11-15 11:14:00,79.6,71.8,30.07,East,80,2.0,11.0,77,0.00,,FEW,0.00,225.00,VWS V14.01,2013-11-15 16:14:00,
2013-11-15 11:17:00,79.6,71.8,30.07,ENE,74,3.0,11.0,77,0.00,,FEW,0.00,199.00,VWS V14.01,2013-11-15 16:17:00,
2013-11-15 11:18:00,79.6,71.8,30.07,ENE,76,2.0,11.0,77,0.00,,FEW,0.00,199.00,VWS V14.01,2013-11-15 16:18:00,
2013-11-15 11:19:00,79.6,71.8,30.07,East,89,3.0,11.0,77,0.00,,FEW,0.00,183.00,VWS V14.01,2013-11-15 16:19:00,
2013-11-15 11:23:00,79.7,71.9,30.07,ENE,67,8.0,8.0,77,0.00,,FEW,0.00,202.00,VWS V14.01,2013-11-15 16:23:00,
2013-11-15 11:24:00,79.7,71.9,30.07,East,82,5.0,8.0,77,0.00,,FEW,0.00,190.00,VWS V14.01,2013-11-15 16:24:00,
2013-11-15 11:25:00,79.7,71.9,30.07,ENE,73,2.0,8.0,77,0.00,,FEW,0.00,183.00,VWS V14.01,2013-11-15 16:25:00,
2013-11-15 11:28:00,79.6,71.8,30.07,ENE,69,7.0,9.0,77,0.00,,FEW,0.00,132.00,VWS V14.01,2013-11-15 16:28:00,
2013-11-15 11:29:00,79.6,71.8,30.07,ESE,122,5.0,9.0,77,0.00,,FEW,0.00,149.00,VWS V14.01,2013-11-15 16:29:00,
2013-11-15 11:30:00,79.6,71.8,30.06,ENE,66,2.0,9.0,77,0.00,,FEW,0.00,153.00,VWS V14.01,2013-11-15 16:30:00,
2013-11-15 11:31:00,79.6,72.1,30.06,ESE,102,4.0,9.0,78,0.00,,FEW,0.00,155.00,VWS V14.01,2013-11-15 16:31:00,
2013-11-15 11:33:00,79.6,72.1,30.06,East,91,3.0,5.0,78,0.00,,FEW,0.00,148.00,VWS V14.01,2013-11-15 16:33:00,
2013-11-15 11:34:00,79.6,72.1,30.06,East,94,5.0,5.0,78,0.00,,FEW,0.00,146.00,VWS V14.01,2013-11-15 16:34:00,
2013-11-15 11:36:00,79.6,72.1,30.06,NE,49,3.0,7.0,78,0.00,,FEW,0.00,162.00,VWS V14.01,2013-11-15 16:36:00,
2013-11-15 11:39:00,79.6,72.1,30.06,East,83,3.0,9.0,78,0.00,,FEW,0.00,193.00,VWS V14.01,2013-11-15 16:39:00,
2013-11-15 11:41:00,79.6,72.1,30.06,East,86,8.0,9.0,78,0.00,,FEW,0.00,183.00,VWS V14.01,2013-11-15 16:41:00,
2013-11-15 11:44:00,79.5,72.0,30.06,ENE,65,2.0,9.0,78,0.00,,FEW,0.00,202.00,VWS V14.01,2013-11-15 16:44:00,
2013-11-15 11:45:00,79.5,72.0,30.05,East,84,8.0,9.0,78,0.00,,FEW,0.00,204.00,VWS V14.01,2013-11-15 16:45:00,
2013-11-15 11:46:00,79.5,72.0,30.05,East,86,9.0,9.0,78,0.00,,FEW,0.00,221.00,VWS V14.01,2013-11-15 16:46:00,
2013-11-15 11:49:00,79.5,72.0,30.05,East,88,8.0,10.0,78,0.00,,FEW,0.00,202.00,VWS V14.01,2013-11-15 16:49:00,
2013-11-15 11:50:00,79.6,72.1,30.05,East,96,1.0,10.0,78,0.00,,FEW,0.00,211.00,VWS V14.01,2013-11-15 16:50:00,
2013-11-15 11:51:00,79.6,72.1,30.05,ESE,110,3.0,7.0,78,0.00,,FEW,0.00,232.00,VWS V14.01,2013-11-15 16:51:00,
2013-11-15 11:52:00,79.6,72.1,30.05,SE,131,4.0,8.0,78,0.00,,FEW,0.00,220.00,VWS V14.01,2013-11-15 16:52:00,
2013-11-15 11:54:00,79.6,72.1,30.05,East,96,8.0,11.0,78,0.00,,FEW,0.00,199.00,VWS V14.01,2013-11-15 16:54:00,
2013-11-15 11:55:00,79.6,72.1,30.05,NE,55,7.0,11.0,78,0.00,,FEW,0.00,199.00,VWS V14.01,2013-11-15 16:55:00,
2013-11-15 11:56:00,79.5,72.0,30.05,ENE,69,8.0,11.0,78,0.00,,FEW,0.00,207.00,VWS V14.01,2013-11-15 16:56:00,
2013-11-15 11:57:00,79.5,72.0,30.05,ENE,74,2.0,11.0,78,0.00,,FEW,0.00,207.00,VWS V14.01,2013-11-15 16:57:00,
2013-11-15 11:59:00,79.6,72.1,30.04,ENE,59,7.0,11.0,78,0.00,,FEW,0.00,204.00,VWS V14.01,2013-11-15 16:59:00,
2013-11-15 12:00:00,79.5,72.0,30.04,East,82,5.0,11.0,78,0.00,,FEW,0.00,204.00,VWS V14.01,2013-11-15 17:00:00,
2013-11-15 12:02:00,79.5,72.0,30.04,ENE,66,5.0,10.0,78,0.00,,FEW,0.00,253.00,VWS V14.01,2013-11-15 17:02:00,
2013-11-15 12:05:00,79.6,72.1,30.04,ESE,119,3.0,10.0,78,0.00,,FEW,0.00,216.00,VWS V14.01,2013-11-15 17:05:00,
2013-11-15 12:06:00,79.6,72.5,30.04,East,85,3.0,10.0,79,0.00,,FEW,0.00,288.00,VWS V14.01,2013-11-15 17:06:00,
2013-11-15 12:07:00,79.6,72.5,30.04,East,84,2.0,10.0,79,0.00,,FEW,0.00,309.00,VWS V14.01,2013-11-15 17:07:00,
2013-11-15 12:10:00,79.8,72.3,30.04,ENE,74,4.0,10.0,78,0.00,,FEW,0.00,218.00,VWS V14.01,2013-11-15 17:10:00,
2013-11-15 12:11:00,79.8,72.7,30.04,East,82,3.0,3.0,79,0.00,,FEW,0.00,213.00,VWS V14.01,2013-11-15 17:11:00,
2013-11-15 12:12:00,79.8,72.7,30.04,East,87,8.0,9.0,79,0.00,,FEW,0.00,211.00,VWS V14.01,2013-11-15 17:12:00,
2013-11-15 12:13:00,79.8,72.3,30.04,East,95,2.0,10.0,78,0.00,,FEW,0.00,213.00,VWS V14.01,2013-11-15 17:13:00,
2013-11-15 12:15:00,79.8,72.3,30.03,NE,46,5.0,10.0,78,0.00,,FEW,0.00,209.00,VWS V14.01,2013-11-15 17:15:00,
2013-11-15 12:16:00,79.8,72.3,30.03,East,80,2.0,10.0,78,0.00,,FEW,0.00,197.00,VWS V14.01,2013-11-15 17:16:00,
2013-11-15 12:18:00,79.8,72.3,30.03,ENE,64,3.0,10.0,78,0.00,,FEW,0.00,206.00,VWS V14.01,2013-11-15 17:18:00,
2013-11-15 12:20:00,79.8,71.9,30.03,East,86,2.0,10.0,77,0.00,,FEW,0.00,202.00,VWS V14.01,2013-11-15 17:20:00,
2013-11-15 12:21:00,79.8,71.9,30.03,ENE,71,4.0,4.0,77,0.00,,FEW,0.00,213.00,VWS V14.01,2013-11-15 17:21:00,
2013-11-15 12:23:00,79.8,71.9,30.03,East,82,5.0,8.0,77,0.00,,FEW,0.00,244.00,VWS V14.01,2013-11-15 17:23:00,
2013-11-15 12:26:00,79.8,72.3,30.03,ENE,63,8.0,8.0,78,0.00,,FEW,0.00,260.00,VWS V14.01,2013-11-15 17:26:00,
2013-11-15 12:28:00,79.8,71.9,30.03,ENE,66,8.0,9.0,77,0.00,,FEW,0.00,255.00,VWS V14.01,2013-11-15 17:28:00,
2013-11-15 12:29:00,79.9,72.1,30.03,ENE,78,4.0,9.0,77,0.00,,FEW,0.00,230.00,VWS V14.01,2013-11-15 17:29:00,
2013-11-15 12:31:00,79.9,72.1,30.03,East,84,8.0,8.0,77,0.00,,FEW,0.00,239.00,VWS V14.01,2013-11-15 17:31:00,
2013-11-15 12:33:00,79.9,72.1,30.03,ENE,77,4.0,12.0,77,0.00,,FEW,0.00,255.00,VWS V14.01,2013-11-15 17:33:00,
2013-11-15 12:35:00,79.8,71.9,30.03,ENE,76,5.0,12.0,77,0.00,,FEW,0.00,306.00,VWS V14.01,2013-11-15 17:35:00,
2013-11-15 12:36:00,79.8,71.9,30.03,NE,44,4.0,12.0,77,0.00,,FEW,0.00,353.00,VWS V14.01,2013-11-15 17:36:00,
2013-11-15 12:38:00,79.9,72.1,30.03,ENE,67,8.0,12.0,77,0.00,,FEW,0.00,394.00,VWS V14.01,2013-11-15 17:38:00,
2013-11-15 12:40:00,80.0,72.2,30.03,East,86,9.0,12.0,77,0.00,,FEW,0.00,258.00,VWS V14.01,2013-11-15 17:40:00,
2013-11-15 12:41:00,80.0,72.2,30.03,ESE,109,7.0,7.0,77,0.00,,FEW,0.00,239.00,VWS V14.01,2013-11-15 17:41:00,
2013-11-15 12:42:00,80.0,72.2,30.03,East,82,3.0,7.0,77,0.00,,FEW,0.00,225.00,VWS V14.01,2013-11-15 17:42:00,
2013-11-15 12:43:00,80.0,72.2,30.03,ENE,66,4.0,10.0,77,0.00,,FEW,0.00,225.00,VWS V14.01,2013-11-15 17:43:00,
2013-11-15 12:45:00,80.0,72.2,30.02,ENE,71,2.0,10.0,77,0.00,,FEW,0.00,195.00,VWS V14.01,2013-11-15 17:45:00,
2013-11-15 12:46:00,80.0,72.2,30.02,ESE,107,2.0,10.0,77,0.00,,FEW,0.00,200.00,VWS V14.01,2013-11-15 17:46:00,
2013-11-15 12:47:00,80.0,72.2,30.02,East,90,6.0,10.0,77,0.00,,FEW,0.00,207.00,VWS V14.01,2013-11-15 17:47:00,
2013-11-15 12:48:00,80.0,72.2,30.02,ESE,122,4.0,10.0,77,0.00,,FEW,0.00,232.00,VWS V14.01,2013-11-15 17:48:00,
2013-11-15 12:50:00,80.1,72.2,30.02,East,88,6.0,12.0,77,0.00,,FEW,0.00,260.00,VWS V14.01,2013-11-15 17:50:00,
2013-11-15 12:51:00,80.0,71.8,30.02,East,95,3.0,9.0,76,0.00,,FEW,0.00,271.00,VWS V14.01,2013-11-15 17:51:00,
2013-11-15 12:52:00,80.0,71.8,30.02,ENE,71,5.0,9.0,76,0.00,,FEW,0.00,271.00,VWS V14.01,2013-11-15 17:52:00,
2013-11-15 12:53:00,80.0,71.8,30.02,SE,127,4.0,9.0,76,0.00,,FEW,0.00,345.00,VWS V14.01,2013-11-15 17:53:00,
2013-11-15 12:56:00,80.1,71.9,30.02,ENE,66,1.0,10.0,76,0.00,,FEW,0.00,468.00,VWS V14.01,2013-11-15 17:56:00,
2013-11-15 12:57:00,80.2,72.3,30.02,ENE,71,3.0,10.0,77,0.00,,FEW,0.00,468.00,VWS V14.01,2013-11-15 17:57:00,
2013-11-15 12:58:00,80.3,72.4,30.02,East,92,2.0,10.0,77,0.00,,FEW,0.00,513.00,VWS V14.01,2013-11-15 17:58:00,
2013-11-15 12:59:00,80.3,72.4,30.02,ENE,74,4.0,11.0,77,0.00,,FEW,0.00,513.00,VWS V14.01,2013-11-15 17:59:00,
2013-11-15 13:01:00,80.6,72.7,30.01,ENE,74,4.0,9.0,77,0.00,,FEW,0.00,332.00,VWS V14.01,2013-11-15 18:01:00,
2013-11-15 13:02:00,80.6,72.7,30.01,NE,35,5.0,9.0,77,0.00,,FEW,0.00,346.00,VWS V14.01,2013-11-15 18:02:00,
2013-11-15 13:03:00,80.6,72.3,30.01,ENE,75,9.0,9.0,76,0.00,,FEW,0.00,359.00,VWS V14.01,2013-11-15 18:03:00,
2013-11-15 13:04:00,80.5,72.2,30.01,ENE,71,5.0,9.0,76,0.00,,FEW,0.00,396.00,VWS V14.01,2013-11-15 18:04:00,
2013-11-15 13:06:00,80.5,72.2,30.01,ENE,78,2.0,9.0,76,0.00,,FEW,0.00,322.00,VWS V14.01,2013-11-15 18:06:00,
2013-11-15 13:07:00,80.6,72.3,30.01,ENE,63,3.0,9.0,76,0.00,,FEW,0.00,297.00,VWS V14.01,2013-11-15 18:07:00,
2013-11-15 13:08:00,80.6,72.3,30.01,East,93,7.0,9.0,76,0.00,,FEW,0.00,334.00,VWS V14.01,2013-11-15 18:08:00,
2013-11-15 13:09:00,80.6,72.3,30.01,NE,53,3.0,9.0,76,0.00,,FEW,0.00,410.00,VWS V14.01,2013-11-15 18:09:00,
2013-11-15 13:11:00,80.6,72.3,30.01,East,86,6.0,7.0,76,0.00,,FEW,0.00,580.00,VWS V14.01,2013-11-15 18:11:00,
2013-11-15 13:12:00,80.7,72.4,30.01,NE,48,4.0,7.0,76,0.00,,FEW,0.00,580.00,VWS V14.01,2013-11-15 18:12:00,
2013-11-15 13:13:00,80.8,72.5,30.01,ENE,67,9.0,9.0,76,0.00,,FEW,0.00,399.00,VWS V14.01,2013-11-15 18:13:00,
2013-11-15 13:14:00,80.9,72.6,30.01,ENE,72,8.0,9.0,76,0.00,,FEW,0.00,378.00,VWS V14.01,2013-11-15 18:14:00,
2013-11-15 13:16:00,80.9,72.6,30.00,East,80,5.0,9.0,76,0.00,,FEW,0.00,327.00,VWS V14.01,2013-11-15 18:16:00,
2013-11-15 13:17:00,80.9,72.6,30.00,ESE,117,4.0,9.0,76,0.00,,FEW,0.00,327.00,VWS V14.01,2013-11-15 18:17:00,
2013-11-15 13:18:00,80.8,72.5,30.00,East,89,7.0,13.0,76,0.00,,FEW,0.00,236.00,VWS V14.01,2013-11-15 18:18:00,
2013-11-15 13:19:00,80.8,72.5,30.00,East,96,6.0,13.0,76,0.00,,FEW,0.00,250.00,VWS V14.01,2013-11-15 18:19:00,
2013-11-15 13:21:00,80.7,72.4,30.00,ENE,65,8.0,9.0,76,0.00,,FEW,0.00,225.00,VWS V14.01,2013-11-15 18:21:00,
2013-11-15 13:22:00,80.7,72.4,30.00,NE,56,6.0,9.0,76,0.00,,FEW,0.00,213.00,VWS V14.01,2013-11-15 18:22:00,
2013-11-15 13:23:00,80.6,72.3,30.00,ENE,59,5.0,10.0,76,0.00,,FEW,0.00,213.00,VWS V14.01,2013-11-15 18:23:00,
2013-11-15 13:25:00,80.5,72.2,30.00,East,96,2.0,17.0,76,0.00,,FEW,0.00,223.00,VWS V14.01,2013-11-15 18:25:00,
2013-11-15 13:27:00,80.5,72.2,30.00,East,88,3.0,17.0,76,0.00,,FEW,0.00,267.00,VWS V14.01,2013-11-15 18:27:00,
2013-11-15 13:29:00,80.4,72.2,30.00,East,84,6.0,17.0,76,0.00,,FEW,0.00,267.00,VWS V14.01,2013-11-15 18:29:00,
2013-11-15 13:30:00,80.3,72.4,29.99,East,99,1.0,17.0,77,0.00,,FEW,0.00,269.00,VWS V14.01,2013-11-15 18:30:00,
2013-11-15 13:32:00,80.4,72.5,29.99,East,94,8.0,8.0,77,0.00,,FEW,0.00,272.00,VWS V14.01,2013-11-15 18:32:00,
2013-11-15 13:33:00,80.4,72.5,29.99,SSE,161,4.0,8.0,77,0.00,,FEW,0.00,287.00,VWS V14.01,2013-11-15 18:33:00,
2013-11-15 13:34:00,80.4,72.5,29.99,NE,54,3.0,8.0,77,0.00,,FEW,0.00,288.00,VWS V14.01,2013-11-15 18:34:00,
2013-11-15 13:36:00,80.4,72.5,29.99,ENE,62,5.0,8.0,77,0.00,,FEW,0.00,309.00,VWS V14.01,2013-11-15 18:36:00,
2013-11-15 13:37:00,80.4,72.5,29.99,ENE,63,10.0,12.0,77,0.00,,FEW,0.00,322.00,VWS V14.01,2013-11-15 18:37:00,
2013-11-15 13:38:00,80.3,72.4,29.99,ENE,57,5.0,12.0,77,0.00,,FEW,0.00,364.00,VWS V14.01,2013-11-15 18:38:00,
2013-11-15 13:39:00,80.4,72.5,29.99,ENE,73,9.0,12.0,77,0.00,,FEW,0.00,413.00,VWS V14.01,2013-11-15 18:39:00,
2013-11-15 13:41:00,80.4,72.5,29.99,SE,129,5.0,6.0,77,0.00,,FEW,0.00,302.00,VWS V14.01,2013-11-15 18:41:00,
2013-11-15 13:42:00,80.4,72.5,29.99,ENE,78,7.0,7.0,77,0.00,,FEW,0.00,343.00,VWS V14.01,2013-11-15 18:42:00,
2013-11-15 13:44:00,80.4,72.5,29.99,ESE,105,5.0,8.0,77,0.00,,FEW,0.00,329.00,VWS V14.01,2013-11-15 18:44:00,
2013-11-15 13:46:00,80.5,72.2,29.98,ENE,69,3.0,11.0,76,0.00,,FEW,0.00,387.00,VWS V14.01,2013-11-15 18:46:00,
2013-11-15 13:47:00,80.4,72.2,29.98,ESE,106,4.0,11.0,76,0.00,,FEW,0.00,343.00,VWS V14.01,2013-11-15 18:47:00,
2013-11-15 13:48:00,80.5,72.2,29.98,East,86,3.0,11.0,76,0.00,,FEW,0.00,318.00,VWS V14.01,2013-11-15 18:48:00,
2013-11-15 13:49:00,80.5,72.2,29.98,ENE,71,2.0,11.0,76,0.00,,FEW,0.00,373.00,VWS V14.01,2013-11-15 18:49:00,
2013-11-15 13:50:00,80.6,72.3,29.98,ENE,63,7.0,11.0,76,0.00,,FEW,0.00,357.00,VWS V14.01,2013-11-15 18:50:00,
2013-11-15 13:52:00,80.7,72.4,29.98,ESE,108,8.0,9.0,76,0.00,,FEW,0.00,396.00,VWS V14.01,2013-11-15 18:52:00,
2013-11-15 13:53:00,80.7,72.4,29.98,ENE,63,9.0,11.0,76,0.00,,FEW,0.00,345.00,VWS V14.01,2013-11-15 18:53:00,
2013-11-15 13:54:00,80.7,72.4,29.98,ENE,63,4.0,11.0,76,0.00,,FEW,0.00,306.00,VWS V14.01,2013-11-15 18:54:00,
2013-11-15 13:55:00,80.6,72.3,29.98,East,93,9.0,11.0,76,0.00,,FEW,0.00,350.00,VWS V14.01,2013-11-15 18:55:00,
2013-11-15 13:57:00,80.6,72.3,29.98,ENE,73,4.0,11.0,76,0.00,,FEW,0.00,362.00,VWS V14.01,2013-11-15 18:57:00,
2013-11-15 13:58:00,80.6,72.3,29.98,East,80,6.0,11.0,76,0.00,,FEW,0.00,520.00,VWS V14.01,2013-11-15 18:58:00,
2013-11-15 13:59:00,80.7,72.4,29.98,East,84,9.0,11.0,76,0.00,,FEW,0.00,278.00,VWS V14.01,2013-11-15 18:59:00,
2013-11-15 14:00:00,80.7,72.4,29.97,ENE,57,4.0,11.0,76,0.00,,FEW,0.00,288.00,VWS V14.01,2013-11-15 19:00:00,
2013-11-15 14:02:00,80.6,72.3,29.97,ENE,65,4.0,8.0,76,0.00,,FEW,0.00,480.00,VWS V14.01,2013-11-15 19:02:00,
2013-11-15 14:03:00,80.7,72.4,29.97,ESE,118,4.0,8.0,76,0.00,,FEW,0.00,480.00,VWS V14.01,2013-11-15 19:03:00,
2013-11-15 14:04:00,80.7,72.4,29.97,ENE,61,9.0,9.0,76,0.00,,FEW,0.00,308.00,VWS V14.01,2013-11-15 19:04:00,
2013-11-15 14:05:00,80.7,72.4,29.97,ESE,105,5.0,9.0,76,0.00,,FEW,0.00,338.00,VWS V14.01,2013-11-15 19:05:00,
2013-11-15 14:07:00,80.7,72.4,29.97,East,88,3.0,10.0,76,0.00,,FEW,0.00,294.00,VWS V14.01,2013-11-15 19:07:00,
2013-11-15 14:08:00,80.7,72.4,29.97,ENE,69,5.0,10.0,76,0.00,,FEW,0.00,318.00,VWS V14.01,2013-11-15 19:08:00,
2013-11-15 14:09:00,80.7,72.4,29.97,ENE,71,5.0,10.0,76,0.00,,FEW,0.00,350.00,VWS V14.01,2013-11-15 19:09:00,
2013-11-15 14:10:00,80.7,72.4,29.97,NE,43,6.0,6.0,76,0.00,,FEW,0.00,390.00,VWS V14.01,2013-11-15 19:10:00,
2013-11-15 14:12:00,80.6,72.3,29.97,East,84,3.0,8.0,76,0.00,,FEW,0.00,390.00,VWS V14.01,2013-11-15 19:12:00,
2013-11-15 14:13:00,80.7,72.4,29.97,SE,130,5.0,8.0,76,0.00,,FEW,0.00,390.00,VWS V14.01,2013-11-15 19:13:00,
2013-11-15 14:14:00,80.8,72.5,29.97,ENE,76,5.0,11.0,76,0.00,,FEW,0.00,390.00,VWS V14.01,2013-11-15 19:14:00,
2013-11-15 14:16:00,80.8,72.5,29.97,ENE,63,3.0,11.0,76,0.00,,FEW,0.00,281.00,VWS V14.01,2013-11-15 19:16:00,
2013-11-15 14:17:00,80.8,72.5,29.97,ESE,105,5.0,11.0,76,0.00,,FEW,0.00,272.00,VWS V14.01,2013-11-15 19:17:00,
2013-11-15 14:18:00,80.8,72.5,29.97,ENE,78,11.0,11.0,76,0.00,,FEW,0.00,272.00,VWS V14.01,2013-11-15 19:18:00,
2013-11-15 14:19:00,80.7,72.4,29.97,ENE,58,2.0,11.0,76,0.00,,FEW,0.00,311.00,VWS V14.01,2013-11-15 19:19:00,
2013-11-15 14:21:00,80.7,72.8,29.97,ESE,115,1.0,4.0,77,0.00,,FEW,0.00,327.00,VWS V14.01,2013-11-15 19:21:00,
2013-11-15 14:22:00,80.7,72.8,29.97,ESE,105,2.0,8.0,77,0.00,,FEW,0.00,229.00,VWS V14.01,2013-11-15 19:22:00,
2013-11-15 14:23:00,80.8,72.9,29.97,East,87,3.0,8.0,77,0.00,,FEW,0.00,183.00,VWS V14.01,2013-11-15 19:23:00,
2013-11-15 14:25:00,80.7,72.8,29.97,ENE,69,7.0,10.0,77,0.00,,FEW,0.00,156.00,VWS V14.01,2013-11-15 19:25:00,
2013-11-15 14:26:00,80.7,72.8,29.97,East,84,6.0,10.0,77,0.00,,FEW,0.00,165.00,VWS V14.01,2013-11-15 19:26:00,
2013-11-15 14:27:00,80.7,72.8,29.97,ENE,73,3.0,10.0,77,0.00,,FEW,0.00,172.00,VWS V14.01,2013-11-15 19:27:00,
2013-11-15 14:28:00,80.6,72.7,29.97,East,92,6.0,10.0,77,0.00,,FEW,0.00,169.00,VWS V14.01,2013-11-15 19:28:00,
2013-11-15 14:29:00,80.5,72.6,29.97,ENE,71,1.0,10.0,77,0.00,,FEW,0.00,151.00,VWS V14.01,2013-11-15 19:29:00,
2013-11-15 14:30:00,80.5,72.6,29.97,ESE,103,3.0,10.0,77,0.00,,FEW,0.00,134.00,VWS V14.01,2013-11-15 19:30:00,
2013-11-15 14:31:00,80.5,72.6,29.97,ENE,60,2.0,4.0,77,0.00,,FEW,0.00,127.00,VWS V14.01,2013-11-15 19:31:00,
2013-11-15 14:33:00,80.5,72.6,29.97,ENE,76,3.0,6.0,77,0.00,,FEW,0.00,134.00,VWS V14.01,2013-11-15 19:33:00,
2013-11-15 14:34:00,80.4,72.5,29.97,ESE,115,3.0,7.0,77,0.00,,FEW,0.00,151.00,VWS V14.01,2013-11-15 19:34:00,
2013-11-15 14:35:00,80.4,72.5,29.97,East,94,3.0,7.0,77,0.00,,FEW,0.00,162.00,VWS V14.01,2013-11-15 19:35:00,
2013-11-15 14:37:00,80.3,72.4,29.97,East,90,2.0,9.0,77,0.00,,FEW,0.00,127.00,VWS V14.01,2013-11-15 19:37:00,
2013-11-15 14:38:00,80.2,72.3,29.97,ESE,116,3.0,9.0,77,0.00,,FEW,0.00,118.00,VWS V14.01,2013-11-15 19:38:00,
2013-11-15 14:39:00,80.2,72.3,29.97,ESE,105,7.0,9.0,77,0.00,,FEW,0.00,118.00,VWS V14.01,2013-11-15 19:39:00,
2013-11-15 14:40:00,80.1,72.2,29.97,East,80,6.0,9.0,77,0.00,,FEW,0.00,121.00,VWS V14.01,2013-11-15 19:40:00,
2013-11-15 14:42:00,80.1,72.2,29.97,ESE,123,4.0,8.0,77,0.00,,FEW,0.00,127.00,VWS V14.01,2013-11-15 19:42:00,
2013-11-15 14:43:00,80.0,72.2,29.97,NE,55,6.0,9.0,77,0.00,,FEW,0.00,128.00,VWS V14.01,2013-11-15 19:43:00,
2013-11-15 14:44:00,80.0,72.2,29.97,East,83,6.0,9.0,77,0.00,,FEW,0.00,128.00,VWS V14.01,2013-11-15 19:44:00,
2013-11-15 14:45:00,80.0,72.5,29.97,ENE,59,4.0,9.0,78,0.00,,FEW,0.00,130.00,VWS V14.01,2013-11-15 19:45:00,
2013-11-15 14:47:00,79.9,72.4,29.97,South,169,6.0,9.0,78,0.00,,FEW,0.00,130.00,VWS V14.01,2013-11-15 19:47:00,
2013-11-15 14:48:00,79.9,72.4,29.97,ENE,75,11.0,11.0,78,0.00,,FEW,0.00,118.00,VWS V14.01,2013-11-15 19:48:00,
2013-11-15 14:49:00,79.8,72.3,29.97,NE,56,3.0,11.0,78,0.00,,FEW,0.00,109.00,VWS V14.01,2013-11-15 19:49:00,
2013-11-15 14:50:00,79.8,72.3,29.97,ENE,67,2.0,11.0,78,0.00,,FEW,0.00,104.00,VWS V14.01,2013-11-15 19:50:00,
2013-11-15 14:52:00,79.8,72.3,29.97,NNE,26,6.0,8.0,78,0.00,,FEW,0.00,104.00,VWS V14.01,2013-11-15 19:52:00,
2013-11-15 14:53:00,79.7,72.2,29.97,East,80,8.0,13.0,78,0.00,,FEW,0.00,104.00,VWS V14.01,2013-11-15 19:53:00,
2013-11-15 14:54:00,79.7,72.2,29.97,NE,50,4.0,13.0,78,0.00,,FEW,0.00,107.00,VWS V14.01,2013-11-15 19:54:00,
2013-11-15 14:55:00,79.6,72.1,29.97,East,101,6.0,13.0,78,0.00,,FEW,0.00,109.00,VWS V14.01,2013-11-15 19:55:00,
2013-11-15 14:57:00,79.6,72.1,29.97,ENE,69,5.0,13.0,78,0.00,,FEW,0.00,107.00,VWS V14.01,2013-11-15 19:57:00,
2013-11-15 14:59:00,79.6,72.1,29.97,East,84,6.0,13.0,78,0.00,,FEW,0.00,118.00,VWS V14.01,2013-11-15 19:59:00,
2013-11-15 15:00:00,79.6,72.1,29.97,ENE,58,9.0,13.0,78,0.00,,FEW,0.00,125.00,VWS V14.01,2013-11-15 20:00:00,
2013-11-15 15:01:00,79.5,72.0,29.97,NE,53,3.0,8.0,78,0.00,,FEW,0.00,130.00,VWS V14.01,2013-11-15 20:01:00,
2013-11-15 15:02:00,79.5,72.4,29.97,East,96,8.0,9.0,79,0.00,,FEW,0.00,132.00,VWS V14.01,2013-11-15 20:02:00,
2013-11-15 15:04:00,79.5,72.4,29.97,East,85,8.0,9.0,79,0.00,,FEW,0.00,123.00,VWS V14.01,2013-11-15 20:04:00,
2013-11-15 15:05:00,79.5,72.0,29.97,ENE,58,8.0,10.0,78,0.00,,FEW,0.00,116.00,VWS V14.01,2013-11-15 20:05:00,
2013-11-15 15:06:00,79.4,71.9,29.97,ENE,76,5.0,10.0,78,0.00,,FEW,0.00,109.00,VWS V14.01,2013-11-15 20:06:00,
2013-11-15 15:07:00,79.4,71.9,29.97,East,82,7.0,10.0,78,0.00,,FEW,0.00,98.00,VWS V14.01,2013-11-15 20:07:00,
2013-11-15 15:09:00,79.4,71.9,29.97,ENE,72,2.0,10.0,78,0.00,,FEW,0.00,93.00,VWS V14.01,2013-11-15 20:09:00,
2013-11-15 15:10:00,79.4,72.3,29.97,ENE,61,7.0,10.0,79,0.00,,FEW,0.00,90.00,VWS V14.01,2013-11-15 20:10:00,
2013-11-15 15:11:00,79.4,72.3,29.97,ENE,60,4.0,8.0,79,0.00,,FEW,0.00,84.00,VWS V14.01,2013-11-15 20:11:00,
2013-11-15 15:12:00,79.4,72.3,29.97,East,80,6.0,8.0,79,0.00,,FEW,0.00,77.00,VWS V14.01,2013-11-15 20:12:00,
2013-11-15 15:14:00,79.4,72.3,29.97,NNE,22,4.0,8.0,79,0.00,,FEW,0.00,84.00,VWS V14.01,2013-11-15 20:14:00,
2013-11-15 15:15:00,79.4,72.3,29.97,ENE,77,5.0,8.0,79,0.00,,FEW,0.00,90.00,VWS V14.01,2013-11-15 20:15:00,
2013-11-15 15:16:00,79.4,72.3,29.97,ESE,102,2.0,8.0,79,0.00,,FEW,0.00,109.00,VWS V14.01,2013-11-15 20:16:00,
2013-11-15 15:17:00,79.4,72.3,29.97,ENE,72,5.0,9.0,79,0.00,,FEW,0.00,109.00,VWS V14.01,2013-11-15 20:17:00,
2013-11-15 15:19:00,79.4,72.3,29.97,ESE,105,2.0,10.0,79,0.00,,FEW,0.00,120.00,VWS V14.01,2013-11-15 20:19:00,
2013-11-15 15:20:00,79.4,72.3,29.97,ESE,117,4.0,10.0,79,0.00,,FEW,0.00,127.00,VWS V14.01,2013-11-15 20:20:00,
2013-11-15 15:21:00,79.4,72.3,29.97,East,84,6.0,9.0,79,0.00,,FEW,0.00,114.00,VWS V14.01,2013-11-15 20:21:00,
2013-11-15 15:22:00,79.4,72.3,29.97,NE,55,2.0,9.0,79,0.00,,FEW,0.00,95.00,VWS V14.01,2013-11-15 20:22:00,
2013-11-15 15:24:00,79.4,72.7,29.97,SE,136,3.0,9.0,80,0.00,,FEW,0.00,63.00,VWS V14.01,2013-11-15 20:24:00,
2013-11-15 15:25:00,79.4,72.7,29.97,East,79,3.0,9.0,80,0.00,,FEW,0.00,63.00,VWS V14.01,2013-11-15 20:25:00,
2013-11-15 15:26:00,79.4,72.7,29.97,NE,49,4.0,9.0,80,0.00,,FEW,0.00,62.00,VWS V14.01,2013-11-15 20:26:00,
2013-11-15 15:27:00,79.4,72.7,29.97,ENE,59,8.0,11.0,80,0.00,,FEW,0.00,46.00,VWS V14.01,2013-11-15 20:27:00,
2013-11-15 15:28:00,79.4,72.7,29.97,East,92,6.0,11.0,80,0.00,,FEW,0.00,46.00,VWS V14.01,2013-11-15 20:28:00,
2013-11-15 15:29:00,79.3,72.6,29.97,NE,49,2.0,11.0,80,0.00,,FEW,0.00,37.00,VWS V14.01,2013-11-15 20:29:00,
2013-11-15 15:30:00,79.2,72.5,29.97,ENE,59,10.0,11.0,80,0.00,,FEW,0.00,37.00,VWS V14.01,2013-11-15 20:30:00,
2013-11-15 15:31:00,79.2,72.9,29.97,East,80,6.0,7.0,81,0.00,,FEW,0.00,37.00,VWS V14.01,2013-11-15 20:31:00,
2013-11-15 15:32:00,79.1,72.8,29.97,ENE,66,3.0,7.0,81,0.00,,FEW,0.00,32.00,VWS V14.01,2013-11-15 20:32:00,
2013-11-15 15:33:00,79.1,72.8,29.97,ENE,66,2.0,7.0,81,0.00,,FEW,0.00,32.00,VWS V14.01,2013-11-15 20:33:00,
2013-11-15 15:35:00,79.0,73.0,29.97,ENE,67,4.0,7.0,82,0.00,,FEW,0.00,28.00,VWS V14.01,2013-11-15 20:35:00,
2013-11-15 15:36:00,79.0,73.0,29.97,NE,54,2.0,7.0,82,0.00,,FEW,0.00,28.00,VWS V14.01,2013-11-15 20:36:00,
2013-11-15 15:38:00,78.8,72.8,29.97,East,100,2.0,8.0,82,0.01,,FEW,0.01,30.00,VWS V14.01,2013-11-15 20:38:00,
2013-11-15 15:40:00,78.8,73.2,29.97,NNE,32,2.0,8.0,83,0.01,,FEW,0.01,42.00,VWS V14.01,2013-11-15 20:40:00,
2013-11-15 15:41:00,78.7,73.1,29.97,East,92,2.0,7.0,83,0.01,,FEW,0.01,49.00,VWS V14.01,2013-11-15 20:41:00,
2013-11-15 15:43:00,78.5,73.3,29.97,ESE,111,1.0,7.0,84,0.02,,FEW,0.02,54.00,VWS V14.01,2013-11-15 20:43:00,
2013-11-15 15:45:00,78.3,73.1,29.97,East,88,5.0,7.0,84,0.03,,FEW,0.03,42.00,VWS V14.01,2013-11-15 20:45:00,
2013-11-15 15:46:00,78.2,73.0,29.97,ENE,68,2.0,7.0,84,0.03,,FEW,0.03,33.00,VWS V14.01,2013-11-15 20:46:00,
2013-11-15 15:48:00,77.9,73.0,29.97,NNE,23,3.0,7.0,85,0.04,,FEW,0.04,26.00,VWS V14.01,2013-11-15 20:48:00,
2013-11-15 15:50:00,77.7,72.8,29.97,ENE,69,1.0,7.0,85,0.04,,FEW,0.04,25.00,VWS V14.01,2013-11-15 20:50:00,
2013-11-15 15:51:00,77.6,73.1,29.97,ENE,63,2.0,7.0,86,0.05,,FEW,0.05,26.00,VWS V14.01,2013-11-15 20:51:00,
2013-11-15 15:52:00,77.6,73.1,29.97,ENE,75,1.0,7.0,86,0.06,,FEW,0.06,26.00,VWS V14.01,2013-11-15 20:52:00,
2013-11-15 15:53:00,77.5,73.0,29.97,ENE,59,2.0,7.0,86,0.06,,FEW,0.06,25.00,VWS V14.01,2013-11-15 20:53:00,
2013-11-15 15:55:00,77.3,72.8,29.97,ENE,76,0.0,7.0,86,0.07,,FEW,0.07,32.00,VWS V14.01,2013-11-15 20:55:00,
2013-11-15 15:56:00,77.2,73.0,29.97,ENE,64,4.0,7.0,87,0.07,,FEW,0.07,37.00,VWS V14.01,2013-11-15 20:56:00,
2013-11-15 15:57:00,77.2,73.0,29.97,ENE,64,4.0,7.0,87,0.07,,FEW,0.07,37.00,VWS V14.01,2013-11-15 20:57:00,
2013-11-15 15:58:00,77.1,72.9,29.97,ENE,71,3.0,7.0,87,0.07,,FEW,0.07,30.00,VWS V14.01,2013-11-15 20:58:00,
2013-11-15 16:00:00,76.8,72.6,29.97,East,92,3.0,7.0,87,0.08,,FEW,0.08,25.00,VWS V14.01,2013-11-15 21:00:00,
2013-11-15 16:01:00,76.7,72.5,29.97,NE,51,2.0,7.0,87,0.08,,FEW,0.08,23.00,VWS V14.01,2013-11-15 21:01:00,
2013-11-15 16:02:00,76.7,72.5,29.97,NE,52,1.0,7.0,87,0.08,,FEW,0.08,23.00,VWS V14.01,2013-11-15 21:02:00,
2013-11-15 16:03:00,76.6,72.8,29.97,ENE,61,3.0,7.0,88,0.08,,FEW,0.08,25.00,VWS V14.01,2013-11-15 21:03:00,
2013-11-15 16:06:00,76.5,72.7,29.97,East,88,1.0,7.0,88,0.09,,FEW,0.09,32.00,VWS V14.01,2013-11-15 21:06:00,
2013-11-15 16:07:00,76.4,72.6,29.97,East,87,6.0,7.0,88,0.09,,FEW,0.09,32.00,VWS V14.01,2013-11-15 21:07:00,
2013-11-15 16:08:00,76.4,72.9,29.97,ENE,78,2.0,7.0,89,0.09,,FEW,0.09,32.00,VWS V14.01,2013-11-15 21:08:00,
2013-11-15 16:09:00,76.3,72.8,29.97,ENE,63,2.0,7.0,89,0.09,,FEW,0.09,32.00,VWS V14.01,2013-11-15 21:09:00,
2013-11-15 16:11:00,76.2,72.7,29.97,NE,53,1.0,3.0,89,0.09,,FEW,0.09,30.00,VWS V14.01,2013-11-15 21:11:00,
2013-11-15 16:12:00,76.2,72.7,29.97,ENE,65,2.0,5.0,89,0.09,,FEW,0.09,30.00,VWS V14.01,2013-11-15 21:12:00,
2013-11-15 16:13:00,76.1,72.6,29.97,East,89,2.0,5.0,89,0.09,,FEW,0.09,26.00,VWS V14.01,2013-11-15 21:13:00,
2013-11-15 16:14:00,76.1,72.6,29.97,NE,40,4.0,5.0,89,0.09,,FEW,0.09,26.00,VWS V14.01,2013-11-15 21:14:00,
2013-11-15 16:16:00,76.0,72.5,29.97,ENE,58,3.0,8.0,89,0.10,,FEW,0.10,25.00,VWS V14.01,2013-11-15 21:16:00,
2013-11-15 16:17:00,76.0,72.9,29.97,NE,55,1.0,8.0,90,0.11,,FEW,0.11,23.00,VWS V14.01,2013-11-15 21:17:00,
2013-11-15 16:18:00,75.9,72.8,29.97,NE,52,3.0,8.0,90,0.11,,FEW,0.11,21.00,VWS V14.01,2013-11-15 21:18:00,
2013-11-15 16:19:00,75.9,72.8,29.97,NNE,32,2.0,8.0,90,0.11,,FEW,0.11,21.00,VWS V14.01,2013-11-15 21:19:00,
2013-11-15 16:21:00,75.8,72.7,29.97,East,85,6.0,10.0,90,0.12,,FEW,0.12,16.00,VWS V14.01,2013-11-15 21:21:00,
2013-11-15 16:22:00,75.8,72.7,29.97,NE,47,3.0,10.0,90,0.12,,FEW,0.12,16.00,VWS V14.01,2013-11-15 21:22:00,
2013-11-15 16:23:00,75.7,72.6,29.97,NE,38,4.0,10.0,90,0.12,,FEW,0.12,18.00,VWS V14.01,2013-11-15 21:23:00,
2013-11-15 16:24:00,75.7,72.6,29.97,NE,53,1.0,10.0,90,0.13,,FEW,0.13,18.00,VWS V14.01,2013-11-15 21:24:00,
2013-11-15 16:25:00,75.7,72.9,29.97,NE,39,4.0,10.0,91,0.13,,FEW,0.13,16.00,VWS V14.01,2013-11-15 21:25:00,
2013-11-15 16:26:00,75.7,72.9,29.97,NNE,33,4.0,10.0,91,0.13,,FEW,0.13,14.00,VWS V14.01,2013-11-15 21:26:00,
2013-11-15 16:27:00,75.6,72.8,29.97,NE,38,4.0,10.0,91,0.13,,FEW,0.13,14.00,VWS V14.01,2013-11-15 21:27:00,
2013-11-15 16:28:00,75.6,72.8,29.97,NE,49,4.0,10.0,91,0.14,,FEW,0.14,12.00,VWS V14.01,2013-11-15 21:28:00,
2013-11-15 16:29:00,75.6,72.8,29.97,ENE,57,5.0,10.0,91,0.14,,FEW,0.14,11.00,VWS V14.01,2013-11-15 21:29:00,
2013-11-15 16:30:00,75.5,72.7,29.97,NNE,28,5.0,10.0,91,0.14,,FEW,0.14,12.00,VWS V14.01,2013-11-15 21:30:00,
2013-11-15 16:32:00,75.5,72.7,29.97,ENE,61,2.0,7.0,91,0.14,,FEW,0.14,14.00,VWS V14.01,2013-11-15 21:32:00,
2013-11-15 16:33:00,75.5,72.7,29.97,NNE,32,5.0,7.0,91,0.14,,FEW,0.14,12.00,VWS V14.01,2013-11-15 21:33:00,
2013-11-15 16:34:00,75.5,72.7,29.97,NNE,31,3.0,7.0,91,0.14,,FEW,0.14,12.00,VWS V14.01,2013-11-15 21:34:00,
2013-11-15 16:35:00,75.4,72.6,29.97,NE,46,5.0,7.0,91,0.15,,FEW,0.15,11.00,VWS V14.01,2013-11-15 21:35:00,
2013-11-15 16:37:00,75.4,72.9,29.97,ENE,67,2.0,7.0,92,0.15,,FEW,0.15,11.00,VWS V14.01,2013-11-15 21:37:00,
2013-11-15 16:38:00,75.4,72.9,29.97,NNE,33,3.0,7.0,92,0.15,,FEW,0.15,11.00,VWS V14.01,2013-11-15 21:38:00,
2013-11-15 16:39:00,75.4,72.9,29.97,NNE,32,6.0,7.0,92,0.15,,FEW,0.15,11.00,VWS V14.01,2013-11-15 21:39:00,
2013-11-15 16:40:00,75.4,72.9,29.97,ENE,65,5.0,7.0,92,0.15,,FEW,0.15,11.00,VWS V14.01,2013-11-15 21:40:00,
2013-11-15 16:42:00,75.3,72.8,29.97,ENE,58,4.0,5.0,92,0.14,,FEW,0.15,9.00,VWS V14.01,2013-11-15 21:42:00,
2013-11-15 16:43:00,75.3,72.8,29.97,East,86,2.0,7.0,92,0.14,,FEW,0.15,9.00,VWS V14.01,2013-11-15 21:43:00,
2013-11-15 16:44:00,75.2,72.7,29.97,NE,47,4.0,8.0,92,0.14,,FEW,0.15,9.00,VWS V14.01,2013-11-15 21:44:00,
2013-11-15 16:45:00,75.2,72.7,29.97,NNE,29,7.0,8.0,92,0.15,,FEW,0.16,7.00,VWS V14.01,2013-11-15 21:45:00,
2013-11-15 16:46:00,75.2,72.7,29.97,NE,41,3.0,8.0,92,0.15,,FEW,0.16,7.00,VWS V14.01,2013-11-15 21:46:00,
2013-11-15 16:47:00,75.2,72.7,29.97,NE,38,3.0,11.0,92,0.15,,FEW,0.16,7.00,VWS V14.01,2013-11-15 21:47:00,
2013-11-15 16:48:00,75.2,72.7,29.97,NNE,23,5.0,11.0,92,0.15,,FEW,0.16,7.00,VWS V14.01,2013-11-15 21:48:00,
2013-11-15 16:49:00,75.2,72.7,29.97,ENE,71,7.0,11.0,92,0.15,,FEW,0.16,7.00,VWS V14.01,2013-11-15 21:49:00,
2013-11-15 16:50:00,75.2,72.7,29.97,ENE,76,4.0,11.0,92,0.15,,FEW,0.16,7.00,VWS V14.01,2013-11-15 21:50:00,
2013-11-15 16:51:00,75.2,72.7,29.97,NE,45,7.0,7.0,92,0.11,,FEW,0.16,7.00,VWS V14.01,2013-11-15 21:51:00,
2013-11-15 16:52:00,75.2,73.0,29.97,NE,49,4.0,9.0,93,0.11,,FEW,0.16,7.00,VWS V14.01,2013-11-15 21:52:00,
2013-11-15 16:53:00,75.2,73.0,29.97,NNE,30,4.0,9.0,93,0.11,,FEW,0.16,7.00,VWS V14.01,2013-11-15 21:53:00,
2013-11-15 16:54:00,75.2,72.7,29.97,NE,34,4.0,10.0,92,0.11,,FEW,0.16,7.00,VWS V14.01,2013-11-15 21:54:00,
2013-11-15 16:55:00,75.2,73.0,29.97,NNE,22,9.0,10.0,93,0.11,,FEW,0.16,7.00,VWS V14.01,2013-11-15 21:55:00,
2013-11-15 16:56:00,75.2,73.0,29.97,NE,42,3.0,10.0,93,0.11,,FEW,0.16,7.00,VWS V14.01,2013-11-15 21:56:00,
2013-11-15 16:58:00,75.2,73.0,29.97,NE,54,4.0,10.0,93,0.11,,FEW,0.16,5.00,VWS V14.01,2013-11-15 21:58:00,
2013-11-15 16:59:00,75.2,73.0,29.97,ENE,63,5.0,10.0,93,0.11,,FEW,0.16,0.00,VWS V14.01,2013-11-15 21:59:00,
2013-11-15 17:00:00,75.2,73.0,29.97,ENE,76,1.0,10.0,93,0.11,,FEW,0.16,0.00,VWS V14.01,2013-11-15 22:00:00,
2013-11-15 17:02:00,75.2,73.0,29.97,NE,41,2.0,2.0,93,0.08,,FEW,0.16,0.00,VWS V14.01,2013-11-15 22:02:00,
2013-11-15 17:03:00,75.2,73.0,29.97,NE,34,4.0,7.0,93,0.08,,FEW,0.16,0.00,VWS V14.01,2013-11-15 22:03:00,
2013-11-15 17:04:00,75.2,73.0,29.97,NNE,29,1.0,9.0,93,0.09,,FEW,0.17,0.00,VWS V14.01,2013-11-15 22:04:00,
2013-11-15 17:05:00,75.2,73.0,29.97,NNE,32,5.0,9.0,93,0.09,,FEW,0.17,0.00,VWS V14.01,2013-11-15 22:05:00,
2013-11-15 17:06:00,75.2,73.0,29.97,NE,36,8.0,9.0,93,0.09,,FEW,0.17,5.00,VWS V14.01,2013-11-15 22:06:00,
2013-11-15 17:07:00,75.2,73.0,29.97,NE,37,7.0,9.0,93,0.09,,FEW,0.17,5.00,VWS V14.01,2013-11-15 22:07:00,
2013-11-15 17:08:00,75.2,73.0,29.97,NNE,17,2.0,9.0,93,0.10,,FEW,0.18,5.00,VWS V14.01,2013-11-15 22:08:00,
2013-11-15 17:10:00,75.1,72.9,29.97,NNE,33,4.0,9.0,93,0.10,,FEW,0.18,0.00,VWS V14.01,2013-11-15 22:10:00,
2013-11-15 17:11:00,75.1,72.9,29.97,NE,36,7.0,7.0,93,0.09,,FEW,0.18,5.00,VWS V14.01,2013-11-15 22:11:00,
2013-11-15 17:12:00,75.1,72.9,29.97,ENE,69,7.0,7.0,93,0.09,,FEW,0.18,5.00,VWS V14.01,2013-11-15 22:12:00,
2013-11-15 17:13:00,75.1,72.9,29.97,ENE,57,3.0,7.0,93,0.09,,FEW,0.18,5.00,VWS V14.01,2013-11-15 22:13:00,
2013-11-15 17:15:00,75.1,72.9,29.97,NE,44,4.0,10.0,93,0.09,,FEW,0.18,0.00,VWS V14.01,2013-11-15 22:15:00,
2013-11-15 17:16:00,75.1,72.9,29.97,NE,55,6.0,10.0,93,0.09,,FEW,0.18,0.00,VWS V14.01,2013-11-15 22:16:00,
2013-11-15 17:18:00,75.1,72.9,29.97,ENE,67,10.0,11.0,93,0.09,,FEW,0.18,0.00,VWS V14.01,2013-11-15 22:18:00,
2013-11-15 17:20:00,75.1,72.9,29.97,NE,38,5.0,11.0,93,0.09,,FEW,0.18,0.00,VWS V14.01,2013-11-15 22:20:00,
2013-11-15 17:21:00,75.0,72.8,29.97,NNE,31,6.0,6.0,93,0.06,,FEW,0.18,0.00,VWS V14.01,2013-11-15 22:21:00,
2013-11-15 17:23:00,75.1,72.9,29.97,NE,35,3.0,6.0,93,0.06,,FEW,0.18,0.00,VWS V14.01,2013-11-15 22:23:00,
2013-11-15 17:24:00,75.1,72.9,29.97,NE,40,4.0,7.0,93,0.06,,FEW,0.18,0.00,VWS V14.01,2013-11-15 22:24:00,
2013-11-15 17:25:00,75.0,72.8,29.97,NE,36,4.0,7.0,93,0.06,,FEW,0.18,0.00,VWS V14.01,2013-11-15 22:25:00,
2013-11-15 17:26:00,75.0,72.8,29.97,NE,36,4.0,7.0,93,0.06,,FEW,0.18,0.00,VWS V14.01,2013-11-15 22:26:00,
2013-11-15 17:28:00,75.0,72.8,29.97,NNE,26,3.0,7.0,93,0.06,,FEW,0.18,0.00,VWS V14.01,2013-11-15 22:28:00,
2013-11-15 17:29:00,75.0,72.8,29.97,NE,50,4.0,7.0,93,0.06,,FEW,0.18,0.00,VWS V14.01,2013-11-15 22:29:00,
2013-11-15 17:31:00,74.9,72.7,29.97,NE,43,8.0,8.0,93,0.04,,FEW,0.18,0.00,VWS V14.01,2013-11-15 22:31:00,
2013-11-15 17:33:00,74.8,72.6,29.97,NNE,12,4.0,9.0,93,0.05,,FEW,0.19,0.00,VWS V14.01,2013-11-15 22:33:00,
2013-11-15 17:34:00,74.8,72.6,29.97,NNE,18,8.0,9.0,93,0.05,,FEW,0.19,0.00,VWS V14.01,2013-11-15 22:34:00,
2013-11-15 17:36:00,74.8,72.6,29.97,NE,42,5.0,9.0,93,0.05,,FEW,0.19,0.00,VWS V14.01,2013-11-15 22:36:00,
2013-11-15 17:38:00,74.8,72.6,29.97,NE,46,7.0,10.0,93,0.05,,FEW,0.19,0.00,VWS V14.01,2013-11-15 22:38:00,
2013-11-15 17:39:00,74.8,73.0,29.97,ENE,59,4.0,10.0,94,0.05,,FEW,0.19,0.00,VWS V14.01,2013-11-15 22:39:00,
2013-11-15 17:40:00,74.8,73.0,29.97,NNE,28,7.0,10.0,94,0.05,,FEW,0.19,0.00,VWS V14.01,2013-11-15 22:40:00,
2013-11-15 17:41:00,74.8,73.0,29.97,NE,49,5.0,8.0,94,0.04,,FEW,0.19,0.00,VWS V14.01,2013-11-15 22:41:00,
2013-11-15 17:43:00,74.8,73.0,29.97,NE,46,5.0,8.0,94,0.04,,FEW,0.19,0.00,VWS V14.01,2013-11-15 22:43:00,
2013-11-15 17:44:00,74.9,73.1,29.97,NE,38,10.0,10.0,94,0.04,,FEW,0.19,0.00,VWS V14.01,2013-11-15 22:44:00,
2013-11-15 17:45:00,74.8,73.0,29.97,NE,34,5.0,10.0,94,0.04,,FEW,0.19,0.00,VWS V14.01,2013-11-15 22:45:00,
2013-11-15 17:46:00,74.8,73.0,29.97,NE,51,6.0,10.0,94,0.04,,FEW,0.19,0.00,VWS V14.01,2013-11-15 22:46:00,
2013-11-15 17:47:00,74.9,73.1,29.97,NE,49,3.0,10.0,94,0.04,,FEW,0.19,0.00,VWS V14.01,2013-11-15 22:47:00,
2013-11-15 17:48:00,74.8,73.0,29.97,NE,44,3.0,10.0,94,0.04,,FEW,0.19,0.00,VWS V14.01,2013-11-15 22:48:00,
2013-11-15 17:50:00,74.8,73.0,29.97,NE,47,5.0,10.0,94,0.04,,FEW,0.19,0.00,VWS V14.01,2013-11-15 22:50:00,
2013-11-15 17:51:00,74.8,73.0,29.97,NE,44,2.0,5.0,94,0.03,,FEW,0.19,0.00,VWS V14.01,2013-11-15 22:51:00,
2013-11-15 17:52:00,74.8,73.0,29.97,NE,34,3.0,5.0,94,0.03,,FEW,0.19,0.00,VWS V14.01,2013-11-15 22:52:00,
2013-11-15 17:53:00,74.8,73.0,29.97,NE,53,7.0,9.0,94,0.03,,FEW,0.19,0.00,VWS V14.01,2013-11-15 22:53:00,
2013-11-15 17:55:00,74.8,73.0,29.97,NE,37,1.0,9.0,94,0.03,,FEW,0.19,0.00,VWS V14.01,2013-11-15 22:55:00,
2013-11-15 17:56:00,74.8,73.0,29.97,NE,45,3.0,9.0,94,0.03,,FEW,0.19,0.00,VWS V14.01,2013-11-15 22:56:00,
2013-11-15 17:57:00,74.8,73.0,29.97,NE,38,5.0,9.0,94,0.03,,FEW,0.19,0.00,VWS V14.01,2013-11-15 22:57:00,
2013-11-15 17:58:00,74.8,73.0,29.97,NE,35,4.0,9.0,94,0.03,,FEW,0.19,0.00,VWS V14.01,2013-11-15 22:58:00,
2013-11-15 18:00:00,74.8,73.0,29.97,NNE,27,2.0,9.0,94,0.03,,FEW,0.19,0.00,VWS V14.01,2013-11-15 23:00:00,
2013-11-15 18:01:00,74.8,73.0,29.97,NE,46,6.0,7.0,94,0.03,,FEW,0.19,0.00,VWS V14.01,2013-11-15 23:01:00,
2013-11-15 18:02:00,74.8,73.0,29.97,NE,43,4.0,10.0,94,0.03,,FEW,0.19,0.00,VWS V14.01,2013-11-15 23:02:00,
2013-11-15 18:03:00,74.8,73.0,29.97,NE,45,5.0,10.0,94,0.03,,FEW,0.19,0.00,VWS V14.01,2013-11-15 23:03:00,
2013-11-15 18:06:00,74.8,73.0,29.97,NNE,32,7.0,10.0,94,0.03,,FEW,0.19,0.00,VWS V14.01,2013-11-15 23:06:00,
2013-11-15 18:07:00,74.8,73.0,29.97,NNE,14,8.0,10.0,94,0.03,,FEW,0.19,0.00,VWS V14.01,2013-11-15 23:07:00,
2013-11-15 18:08:00,74.8,73.0,29.97,NE,44,4.0,10.0,94,0.03,,FEW,0.19,0.00,VWS V14.01,2013-11-15 23:08:00,
2013-11-15 18:09:00,74.8,73.0,29.97,NE,46,6.0,10.0,94,0.03,,FEW,0.19,0.00,VWS V14.01,2013-11-15 23:09:00,
2013-11-15 18:11:00,74.8,73.0,29.97,NE,43,11.0,11.0,94,0.01,,FEW,0.19,0.00,VWS V14.01,2013-11-15 23:11:00,
2013-11-15 18:12:00,74.7,72.9,29.97,East,99,9.0,11.0,94,0.01,,FEW,0.19,0.00,VWS V14.01,2013-11-15 23:12:00,
2013-11-15 18:13:00,74.7,72.9,29.97,NE,50,7.0,11.0,94,0.01,,FEW,0.19,0.00,VWS V14.01,2013-11-15 23:13:00,
2013-11-15 18:14:00,74.7,72.9,29.97,NNE,33,3.0,11.0,94,0.01,,FEW,0.19,0.00,VWS V14.01,2013-11-15 23:14:00,
2013-11-15 18:16:00,74.7,72.9,29.97,North,5,7.0,13.0,94,0.01,,FEW,0.19,0.00,VWS V14.01,2013-11-15 23:16:00,
2013-11-15 18:17:00,74.7,72.9,29.97,NE,38,8.0,13.0,94,0.01,,FEW,0.19,0.00,VWS V14.01,2013-11-15 23:17:00,
2013-11-15 18:18:00,74.7,72.9,29.97,NE,34,6.0,13.0,94,0.01,,FEW,0.19,0.00,VWS V14.01,2013-11-15 23:18:00,
2013-11-15 18:19:00,74.7,72.9,29.97,NE,49,9.0,13.0,94,0.01,,FEW,0.19,0.00,VWS V14.01,2013-11-15 23:19:00,
2013-11-15 18:21:00,74.6,72.8,29.97,NE,54,5.0,10.0,94,0.01,,FEW,0.19,0.00,VWS V14.01,2013-11-15 23:21:00,
2013-11-15 18:22:00,74.6,72.8,29.97,NE,44,7.0,11.0,94,0.01,,FEW,0.19,0.00,VWS V14.01,2013-11-15 23:22:00,
2013-11-15 18:23:00,74.6,72.8,29.97,NE,56,3.0,11.0,94,0.01,,FEW,0.19,0.00,VWS V14.01,2013-11-15 23:23:00,
2013-11-15 18:24:00,74.6,72.8,29.97,NE,52,4.0,11.0,94,0.01,,FEW,0.19,0.00,VWS V14.01,2013-11-15 23:24:00,
2013-11-15 18:26:00,74.5,72.7,29.97,NNE,31,9.0,11.0,94,0.01,,FEW,0.19,0.00,VWS V14.01,2013-11-15 23:26:00,
2013-11-15 18:27:00,74.5,72.7,29.97,ENE,65,7.0,11.0,94,0.02,,FEW,0.20,0.00,VWS V14.01,2013-11-15 23:27:00,
2013-11-15 18:28:00,74.6,72.8,29.97,ENE,62,5.0,11.0,94,0.02,,FEW,0.20,0.00,VWS V14.01,2013-11-15 23:28:00,
2013-11-15 18:29:00,74.5,72.7,29.97,ENE,57,3.0,11.0,94,0.02,,FEW,0.20,0.00,VWS V14.01,2013-11-15 23:29:00,
2013-11-15 18:31:00,74.5,72.7,29.97,East,84,10.0,10.0,94,0.02,,FEW,0.20,0.00,VWS V14.01,2013-11-15 23:31:00,
2013-11-15 18:32:00,74.5,72.7,29.97,NE,44,8.0,12.0,94,0.02,,FEW,0.20,0.00,VWS V14.01,2013-11-15 23:32:00,
2013-11-15 18:33:00,74.5,72.7,29.97,NE,45,7.0,12.0,94,0.02,,FEW,0.20,0.00,VWS V14.01,2013-11-15 23:33:00,
2013-11-15 18:34:00,74.5,72.7,29.97,NNE,32,4.0,12.0,94,0.02,,FEW,0.20,0.00,VWS V14.01,2013-11-15 23:34:00,
2013-11-15 18:37:00,74.5,72.7,29.97,NE,48,3.0,12.0,94,0.02,,FEW,0.20,0.00,VWS V14.01,2013-11-15 23:37:00,
2013-11-15 18:38:00,74.6,73.1,29.97,NE,44,6.0,12.0,95,0.02,,FEW,0.20,0.00,VWS V14.01,2013-11-15 23:38:00,
2013-11-15 18:39:00,74.6,73.1,29.97,ENE,70,5.0,12.0,95,0.02,,FEW,0.20,0.00,VWS V14.01,2013-11-15 23:39:00,
2013-11-15 18:42:00,74.6,72.8,29.97,ENE,71,11.0,11.0,94,0.01,,FEW,0.20,0.00,VWS V14.01,2013-11-15 23:42:00,
2013-11-15 18:43:00,74.6,72.8,29.97,NE,40,11.0,11.0,94,0.02,,FEW,0.21,0.00,VWS V14.01,2013-11-15 23:43:00,
2013-11-15 18:44:00,74.6,72.8,29.97,NE,51,3.0,11.0,94,0.02,,FEW,0.21,0.00,VWS V14.01,2013-11-15 23:44:00,
2013-11-15 18:45:00,74.6,72.8,29.97,NNE,21,5.0,11.0,94,0.02,,FEW,0.21,0.00,VWS V14.01,2013-11-15 23:45:00,
2013-11-15 18:47:00,74.6,72.8,29.97,NNE,31,5.0,11.0,94,0.02,,FEW,0.21,0.00,VWS V14.01,2013-11-15 23:47:00,
2013-11-15 18:48:00,74.5,73.0,29.97,NE,46,3.0,11.0,95,0.02,,FEW,0.21,0.00,VWS V14.01,2013-11-15 23:48:00,
2013-11-15 18:49:00,74.6,73.1,29.97,NE,41,3.0,11.0,95,0.02,,FEW,0.21,0.00,VWS V14.01,2013-11-15 23:49:00,
2013-11-15 18:50:00,74.6,73.1,29.97,ESE,114,4.0,11.0,95,0.03,,FEW,0.22,0.00,VWS V14.01,2013-11-15 23:50:00,
2013-11-15 18:52:00,74.5,73.0,29.97,ENE,73,11.0,11.0,95,0.03,,FEW,0.22,0.00,VWS V14.01,2013-11-15 23:52:00,
2013-11-15 18:53:00,74.6,73.1,29.97,NNE,22,4.0,11.0,95,0.04,,FEW,0.23,0.00,VWS V14.01,2013-11-15 23:53:00,
2013-11-15 18:54:00,74.6,73.1,29.97,NE,51,1.0,11.0,95,0.04,,FEW,0.23,0.00,VWS V14.01,2013-11-15 23:54:00,
2013-11-15 18:56:00,74.5,73.0,29.97,ENE,63,2.0,11.0,95,0.05,,FEW,0.24,0.00,VWS V14.01,2013-11-15 23:56:00,
2013-11-15 18:58:00,74.5,73.0,29.97,ENE,69,4.0,11.0,95,0.05,,FEW,0.24,0.00,VWS V14.01,2013-11-15 23:58:00,
2013-11-15 18:59:00,74.5,73.0,29.97,NNE,22,5.0,11.0,95,0.05,,FEW,0.24,0.00,VWS V14.01,2013-11-15 23:59:00,
2013-11-15 19:01:00,74.5,73.0,29.98,NE,42,5.0,7.0,95,0.05,,FEW,0.24,0.00,VWS V14.01,2013-11-16 00:01:00,
2013-11-15 19:03:00,74.4,72.9,29.98,ENE,65,3.0,7.0,95,0.05,,FEW,0.24,0.00,VWS V14.01,2013-11-16 00:03:00,
2013-11-15 19:04:00,74.4,72.9,29.98,NE,44,4.0,9.0,95,0.05,,FEW,0.24,0.00,VWS V14.01,2013-11-16 00:04:00,
2013-11-15 19:05:00,74.4,72.9,29.98,NE,55,5.0,9.0,95,0.05,,FEW,0.24,0.00,VWS V14.01,2013-11-16 00:05:00,
2013-11-15 19:06:00,74.4,72.9,29.98,East,82,3.0,9.0,95,0.05,,FEW,0.24,0.00,VWS V14.01,2013-11-16 00:06:00,
2013-11-15 19:08:00,74.4,72.9,29.98,NNE,30,5.0,9.0,95,0.05,,FEW,0.24,0.00,VWS V14.01,2013-11-16 00:08:00,
2013-11-15 19:09:00,74.4,72.9,29.98,East,91,7.0,9.0,95,0.05,,FEW,0.24,0.00,VWS V14.01,2013-11-16 00:09:00,
2013-11-15 19:10:00,74.4,72.9,29.98,NE,34,5.0,9.0,95,0.05,,FEW,0.24,0.00,VWS V14.01,2013-11-16 00:10:00,
2013-11-15 19:11:00,74.3,72.8,29.98,NE,39,2.0,8.0,95,0.05,,FEW,0.24,0.00,VWS V14.01,2013-11-16 00:11:00,
2013-11-15 19:13:00,74.4,72.9,29.98,NE,46,4.0,9.0,95,0.05,,FEW,0.24,0.00,VWS V14.01,2013-11-16 00:13:00,
2013-11-15 19:14:00,74.4,72.9,29.98,NNE,16,7.0,9.0,95,0.05,,FEW,0.24,0.00,VWS V14.01,2013-11-16 00:14:00,
2013-11-15 19:15:00,74.4,72.9,29.98,NE,42,3.0,9.0,95,0.05,,FEW,0.24,0.00,VWS V14.01,2013-11-16 00:15:00,
2013-11-15 19:16:00,74.4,72.9,29.98,NE,39,2.0,9.0,95,0.05,,FEW,0.24,0.00,VWS V14.01,2013-11-16 00:16:00,
2013-11-15 19:18:00,74.3,72.8,29.98,NNE,19,6.0,9.0,95,0.05,,FEW,0.24,0.00,VWS V14.01,2013-11-16 00:18:00,
2013-11-15 19:20:00,74.3,72.8,29.98,NNE,28,8.0,10.0,95,0.05,,FEW,0.24,0.00,VWS V14.01,2013-11-16 00:20:00,
2013-11-15 19:22:00,74.3,72.8,29.98,NNE,30,7.0,10.0,95,0.05,,FEW,0.24,0.00,VWS V14.01,2013-11-16 00:22:00,
2013-11-15 19:23:00,74.3,72.8,29.98,NE,34,8.0,10.0,95,0.05,,FEW,0.24,0.00,VWS V14.01,2013-11-16 00:23:00,
2013-11-15 19:25:00,74.3,72.8,29.98,ENE,65,5.0,10.0,95,0.05,,FEW,0.24,0.00,VWS V14.01,2013-11-16 00:25:00,
2013-11-15 19:26:00,74.4,72.9,29.98,NNE,32,6.0,10.0,95,0.05,,FEW,0.24,0.00,VWS V14.01,2013-11-16 00:26:00,
2013-11-15 19:27:00,74.4,72.9,29.98,NNE,28,6.0,10.0,95,0.05,,FEW,0.24,0.00,VWS V14.01,2013-11-16 00:27:00,
2013-11-15 19:29:00,74.4,72.9,29.98,NNE,24,10.0,11.0,95,0.05,,FEW,0.24,0.00,VWS V14.01,2013-11-16 00:29:00,
2013-11-15 19:30:00,74.4,72.9,29.98,NE,48,7.0,11.0,95,0.05,,FEW,0.24,0.00,VWS V14.01,2013-11-16 00:30:00,
2013-11-15 19:31:00,74.5,73.0,29.98,NE,44,3.0,7.0,95,0.04,,FEW,0.24,0.00,VWS V14.01,2013-11-16 00:31:00,
2013-11-15 19:32:00,74.6,73.1,29.98,NNE,33,5.0,9.0,95,0.04,,FEW,0.24,0.00,VWS V14.01,2013-11-16 00:32:00,
2013-11-15 19:34:00,74.6,73.1,29.98,NNE,32,6.0,9.0,95,0.04,,FEW,0.24,0.00,VWS V14.01,2013-11-16 00:34:00,
2013-11-15 19:35:00,74.7,73.2,29.98,NNE,13,6.0,9.0,95,0.04,,FEW,0.24,0.00,VWS V14.01,2013-11-16 00:35:00,
2013-11-15 19:37:00,74.7,73.2,29.98,NE,53,2.0,9.0,95,0.04,,FEW,0.24,0.00,VWS V14.01,2013-11-16 00:37:00,
2013-11-15 19:39:00,74.8,73.3,29.98,NE,53,4.0,9.0,95,0.04,,FEW,0.24,0.00,VWS V14.01,2013-11-16 00:39:00,
2013-11-15 19:40:00,74.8,73.3,29.98,ENE,74,4.0,9.0,95,0.04,,FEW,0.24,0.00,VWS V14.01,2013-11-16 00:40:00,
2013-11-15 19:41:00,74.8,73.3,29.98,ENE,78,4.0,7.0,95,0.04,,FEW,0.24,0.00,VWS V14.01,2013-11-16 00:41:00,
2013-11-15 19:42:00,74.8,73.3,29.98,NE,54,3.0,9.0,95,0.04,,FEW,0.24,0.00,VWS V14.01,2013-11-16 00:42:00,
2013-11-15 19:44:00,74.8,73.3,29.98,ENE,59,2.0,9.0,95,0.04,,FEW,0.24,0.00,VWS V14.01,2013-11-16 00:44:00,
2013-11-15 19:45:00,74.8,73.3,29.98,NNE,32,5.0,9.0,95,0.04,,FEW,0.24,0.00,VWS V14.01,2013-11-16 00:45:00,
2013-11-15 19:46:00,74.8,73.3,29.98,East,79,6.0,9.0,95,0.04,,FEW,0.24,0.00,VWS V14.01,2013-11-16 00:46:00,
2013-11-15 19:47:00,74.8,73.3,29.98,NNE,24,6.0,9.0,95,0.04,,FEW,0.24,0.00,VWS V14.01,2013-11-16 00:47:00,
2013-11-15 19:49:00,74.8,73.3,29.98,East,92,2.0,9.0,95,0.04,,FEW,0.24,0.00,VWS V14.01,2013-11-16 00:49:00,
2013-11-15 19:50:00,74.7,73.2,29.98,NNE,33,8.0,10.0,95,0.04,,FEW,0.24,0.00,VWS V14.01,2013-11-16 00:50:00,
2013-11-15 19:51:00,74.8,73.3,29.98,NE,45,2.0,8.0,95,0.02,,FEW,0.24,0.00,VWS V14.01,2013-11-16 00:51:00,
2013-11-15 19:52:00,74.8,73.3,29.98,NE,50,4.0,8.0,95,0.02,,FEW,0.24,0.00,VWS V14.01,2013-11-16 00:52:00,
2013-11-15 19:53:00,74.8,73.3,29.98,NNE,25,1.0,8.0,95,0.02,,FEW,0.24,0.00,VWS V14.01,2013-11-16 00:53:00,
2013-11-15 19:54:00,74.8,73.3,29.98,NE,40,3.0,8.0,95,0.02,,FEW,0.24,0.00,VWS V14.01,2013-11-16 00:54:00,
2013-11-15 19:55:00,74.8,73.3,29.98,ENE,69,5.0,10.0,95,0.02,,FEW,0.24,0.00,VWS V14.01,2013-11-16 00:55:00,
2013-11-15 19:56:00,74.8,73.3,29.98,NE,53,3.0,11.0,95,0.02,,FEW,0.24,0.00,VWS V14.01,2013-11-16 00:56:00,
2013-11-15 19:58:00,74.8,73.3,29.98,NE,51,7.0,11.0,95,0.02,,FEW,0.24,0.00,VWS V14.01,2013-11-16 00:58:00,
2013-11-15 19:59:00,74.8,73.3,29.98,NE,38,2.0,11.0,95,0.03,,FEW,0.25,0.00,VWS V14.01,2013-11-16 00:59:00,
2013-11-15 20:00:00,74.9,73.4,29.98,ENE,70,3.0,11.0,95,0.03,,FEW,0.25,0.00,VWS V14.01,2013-11-16 01:00:00,
2013-11-15 20:01:00,74.8,73.3,29.98,NE,52,7.0,9.0,95,0.01,,FEW,0.25,0.00,VWS V14.01,2013-11-16 01:01:00,
2013-11-15 20:03:00,74.9,73.4,29.98,NE,38,1.0,11.0,95,0.01,,FEW,0.25,0.00,VWS V14.01,2013-11-16 01:03:00,
2013-11-15 20:04:00,74.8,73.3,29.98,East,79,6.0,11.0,95,0.02,,FEW,0.26,0.00,VWS V14.01,2013-11-16 01:04:00,
2013-11-15 20:05:00,74.8,73.3,29.98,ENE,76,3.0,11.0,95,0.02,,FEW,0.26,0.00,VWS V14.01,2013-11-16 01:05:00,
2013-11-15 20:06:00,74.9,73.4,29.98,NE,40,3.0,11.0,95,0.02,,FEW,0.26,0.00,VWS V14.01,2013-11-16 01:06:00,
2013-11-15 20:08:00,74.9,73.4,29.98,NE,50,5.0,11.0,95,0.03,,FEW,0.27,0.00,VWS V14.01,2013-11-16 01:08:00,
2013-11-15 20:09:00,74.9,73.4,29.98,ENE,71,5.0,11.0,95,0.03,,FEW,0.27,0.00,VWS V14.01,2013-11-16 01:09:00,
2013-11-15 20:10:00,74.9,73.4,29.98,East,81,5.0,11.0,95,0.03,,FEW,0.27,0.00,VWS V14.01,2013-11-16 01:10:00,
2013-11-15 20:11:00,74.9,73.4,29.98,ENE,74,5.0,8.0,95,0.03,,FEW,0.27,0.00,VWS V14.01,2013-11-16 01:11:00,
2013-11-15 20:13:00,74.9,73.4,29.98,East,86,7.0,8.0,95,0.03,,FEW,0.27,0.00,VWS V14.01,2013-11-16 01:13:00,
2013-11-15 20:14:00,74.9,73.4,29.98,ENE,71,1.0,8.0,95,0.03,,FEW,0.27,0.00,VWS V14.01,2013-11-16 01:14:00,
2013-11-15 20:15:00,74.9,73.4,29.99,ENE,75,5.0,8.0,95,0.03,,FEW,0.27,0.00,VWS V14.01,2013-11-16 01:15:00,
2013-11-15 20:17:00,74.9,73.4,29.99,North,5,5.0,8.0,95,0.03,,FEW,0.27,0.00,VWS V14.01,2013-11-16 01:17:00,
2013-11-15 20:18:00,74.9,73.4,29.99,NE,42,5.0,9.0,95,0.03,,FEW,0.27,0.00,VWS V14.01,2013-11-16 01:18:00,
2013-11-15 20:19:00,74.9,73.4,29.99,NE,49,3.0,9.0,95,0.03,,FEW,0.27,0.00,VWS V14.01,2013-11-16 01:19:00,
2013-11-15 20:20:00,74.9,73.4,29.99,ENE,65,4.0,9.0,95,0.03,,FEW,0.27,0.00,VWS V14.01,2013-11-16 01:20:00,
2013-11-15 20:22:00,74.9,73.4,29.99,ENE,63,2.0,5.0,95,0.03,,FEW,0.27,0.00,VWS V14.01,2013-11-16 01:22:00,
2013-11-15 20:23:00,75.0,73.5,29.99,ENE,59,1.0,5.0,95,0.03,,FEW,0.27,0.00,VWS V14.01,2013-11-16 01:23:00,
2013-11-15 20:24:00,75.0,73.5,29.99,ENE,59,1.0,5.0,95,0.03,,FEW,0.27,0.00,VWS V14.01,2013-11-16 01:24:00,
2013-11-15 20:26:00,75.0,73.5,29.99,ENE,74,1.0,7.0,95,0.03,,FEW,0.27,0.00,VWS V14.01,2013-11-16 01:26:00,
2013-11-15 20:27:00,75.0,73.5,29.99,NE,34,2.0,7.0,95,0.03,,FEW,0.27,0.00,VWS V14.01,2013-11-16 01:27:00,
2013-11-15 20:28:00,75.0,73.5,29.99,NNE,29,3.0,7.0,95,0.03,,FEW,0.27,0.00,VWS V14.01,2013-11-16 01:28:00,
2013-11-15 20:29:00,75.0,73.5,29.99,NE,48,3.0,7.0,95,0.03,,FEW,0.27,0.00,VWS V14.01,2013-11-16 01:29:00,
2013-11-15 20:31:00,75.0,73.5,29.99,ENE,68,2.0,4.0,95,0.03,,FEW,0.27,0.00,VWS V14.01,2013-11-16 01:31:00,
2013-11-15 20:32:00,75.0,73.5,29.99,NE,54,3.0,4.0,95,0.03,,FEW,0.27,0.00,VWS V14.01,2013-11-16 01:32:00,
2013-11-15 20:33:00,75.0,73.5,29.99,ENE,62,1.0,6.0,95,0.03,,FEW,0.27,0.00,VWS V14.01,2013-11-16 01:33:00,
2013-11-15 20:34:00,75.0,73.5,29.99,NNE,23,4.0,6.0,95,0.03,,FEW,0.27,0.00,VWS V14.01,2013-11-16 01:34:00,
2013-11-15 20:36:00,75.0,73.5,29.99,ENE,62,1.0,8.0,95,0.03,,FEW,0.27,0.00,VWS V14.01,2013-11-16 01:36:00,
2013-11-15 20:37:00,75.0,73.5,29.99,ENE,61,5.0,8.0,95,0.03,,FEW,0.27,0.00,VWS V14.01,2013-11-16 01:37:00,
2013-11-15 20:38:00,75.0,73.5,29.99,NE,49,1.0,8.0,95,0.03,,FEW,0.27,0.00,VWS V14.01,2013-11-16 01:38:00,
2013-11-15 20:39:00,75.0,73.5,29.99,NE,53,1.0,8.0,95,0.03,,FEW,0.27,0.00,VWS V14.01,2013-11-16 01:39:00,
2013-11-15 20:40:00,75.0,73.5,29.99,NE,53,1.0,8.0,95,0.03,,FEW,0.27,0.00,VWS V14.01,2013-11-16 01:40:00,
2013-11-15 20:41:00,75.0,73.5,29.99,NE,47,4.0,6.0,95,0.03,,FEW,0.27,0.00,VWS V14.01,2013-11-16 01:41:00,
2013-11-15 20:42:00,75.0,73.5,29.99,East,84,2.0,6.0,95,0.03,,FEW,0.27,0.00,VWS V14.01,2013-11-16 01:42:00,
2013-11-15 20:44:00,75.0,73.5,29.99,NE,53,2.0,7.0,95,0.03,,FEW,0.27,0.00,VWS V14.01,2013-11-16 01:44:00,
2013-11-15 20:45:00,75.1,73.6,29.99,NE,53,3.0,7.0,95,0.03,,FEW,0.27,0.00,VWS V14.01,2013-11-16 01:45:00,
2013-11-15 20:46:00,75.1,73.6,29.99,ENE,76,1.0,7.0,95,0.03,,FEW,0.27,0.00,VWS V14.01,2013-11-16 01:46:00,
2013-11-15 20:47:00,75.1,73.6,29.99,ENE,59,3.0,7.0,95,0.03,,FEW,0.27,0.00,VWS V14.01,2013-11-16 01:47:00,
2013-11-15 20:49:00,75.1,73.6,29.99,East,85,2.0,7.0,95,0.03,,FEW,0.27,0.00,VWS V14.01,2013-11-16 01:49:00,
2013-11-15 20:50:00,75.1,73.6,29.99,ENE,71,4.0,7.0,95,0.03,,FEW,0.27,0.00,VWS V14.01,2013-11-16 01:50:00,
2013-11-15 20:51:00,75.1,73.6,29.99,East,86,2.0,7.0,95,0.03,,FEW,0.27,0.00,VWS V14.01,2013-11-16 01:51:00,
2013-11-15 20:53:00,75.2,73.7,29.99,ENE,63,3.0,11.0,95,0.03,,FEW,0.27,0.00,VWS V14.01,2013-11-16 01:53:00,
2013-11-15 20:54:00,75.2,73.7,29.99,East,94,6.0,11.0,95,0.03,,FEW,0.27,0.00,VWS V14.01,2013-11-16 01:54:00,
2013-11-15 20:55:00,75.2,73.7,29.99,ENE,61,2.0,11.0,95,0.03,,FEW,0.27,0.00,VWS V14.01,2013-11-16 01:55:00,
2013-11-15 20:56:00,75.3,73.8,29.99,East,80,6.0,11.0,95,0.03,,FEW,0.27,0.00,VWS V14.01,2013-11-16 01:56:00,
2013-11-15 20:58:00,75.3,73.8,29.99,East,85,3.0,11.0,95,0.03,,FEW,0.27,0.00,VWS V14.01,2013-11-16 01:58:00,
2013-11-15 20:59:00,75.3,73.8,29.99,SE,142,5.0,11.0,95,0.03,,FEW,0.27,0.00,VWS V14.01,2013-11-16 01:59:00,
2013-11-15 21:00:00,75.3,73.5,29.99,NE,55,2.0,11.0,94,0.03,,FEW,0.27,0.00,VWS V14.01,2013-11-16 02:00:00,
2013-11-15 21:01:00,75.2,73.4,29.99,SE,130,4.0,9.0,94,0.02,,FEW,0.27,0.00,VWS V14.01,2013-11-16 02:01:00,
2013-11-15 21:02:00,75.2,73.4,29.99,ESE,115,3.0,9.0,94,0.02,,FEW,0.27,0.00,VWS V14.01,2013-11-16 02:02:00,
2013-11-15 21:03:00,75.2,73.4,29.99,NNE,30,6.0,9.0,94,0.02,,FEW,0.27,0.00,VWS V14.01,2013-11-16 02:03:00,
2013-11-15 21:05:00,75.2,73.4,29.99,ESE,107,5.0,9.0,94,0.02,,FEW,0.27,0.00,VWS V14.01,2013-11-16 02:05:00,
2013-11-15 21:06:00,75.3,73.5,29.99,East,90,5.0,9.0,94,0.02,,FEW,0.27,0.00,VWS V14.01,2013-11-16 02:06:00,
2013-11-15 21:07:00,75.3,73.5,29.99,ENE,76,7.0,10.0,94,0.02,,FEW,0.27,0.00,VWS V14.01,2013-11-16 02:07:00,
2013-11-15 21:08:00,75.4,73.6,29.99,East,82,11.0,11.0,94,0.02,,FEW,0.27,0.00,VWS V14.01,2013-11-16 02:08:00,
2013-11-15 21:10:00,75.5,73.7,29.99,ENE,69,5.0,11.0,94,0.02,,FEW,0.27,0.00,VWS V14.01,2013-11-16 02:10:00,
2013-11-15 21:11:00,75.7,73.8,29.99,ENE,69,3.0,8.0,94,0.00,,FEW,0.27,0.00,VWS V14.01,2013-11-16 02:11:00,
2013-11-15 21:12:00,75.7,73.8,29.99,East,88,2.0,8.0,94,0.00,,FEW,0.27,0.00,VWS V14.01,2013-11-16 02:12:00,
2013-11-15 21:13:00,75.8,73.9,29.99,East,98,9.0,9.0,94,0.00,,FEW,0.27,0.00,VWS V14.01,2013-11-16 02:13:00,
2013-11-15 21:15:00,76.0,73.8,30.00,ENE,76,4.0,9.0,93,0.00,,FEW,0.27,0.00,VWS V14.01,2013-11-16 02:15:00,
2013-11-15 21:16:00,76.0,73.8,30.00,East,87,5.0,9.0,93,0.00,,FEW,0.27,0.00,VWS V14.01,2013-11-16 02:16:00,
2013-11-15 21:17:00,76.1,73.9,30.00,East,98,5.0,10.0,93,0.00,,FEW,0.27,0.00,VWS V14.01,2013-11-16 02:17:00,
2013-11-15 21:19:00,76.1,73.9,30.00,East,81,6.0,10.0,93,0.00,,FEW,0.27,0.00,VWS V14.01,2013-11-16 02:19:00,
2013-11-15 21:20:00,76.2,74.0,30.00,NE,53,5.0,12.0,93,0.00,,FEW,0.27,0.00,VWS V14.01,2013-11-16 02:20:00,
2013-11-15 21:21:00,76.3,74.1,30.00,East,85,8.0,8.0,93,0.00,,FEW,0.27,0.00,VWS V14.01,2013-11-16 02:21:00,
2013-11-15 21:22:00,76.3,74.1,30.00,ENE,65,12.0,12.0,93,0.00,,FEW,0.27,0.00,VWS V14.01,2013-11-16 02:22:00,
2013-11-15 21:24:00,76.4,74.2,30.00,ENE,78,8.0,12.0,93,0.00,,FEW,0.27,0.00,VWS V14.01,2013-11-16 02:24:00,
2013-11-15 21:26:00,76.5,74.0,30.00,ESE,122,4.0,12.0,92,0.00,,FEW,0.27,0.00,VWS V14.01,2013-11-16 02:26:00,
2013-11-15 21:27:00,76.6,74.1,30.00,ESE,114,9.0,12.0,92,0.00,,FEW,0.27,0.00,VWS V14.01,2013-11-16 02:27:00,
2013-11-15 21:28:00,76.6,74.1,30.00,East,98,8.0,12.0,92,0.00,,FEW,0.27,0.00,VWS V14.01,2013-11-16 02:28:00,
2013-11-15 21:29:00,76.7,74.2,30.00,ENE,65,8.0,13.0,92,0.00,,FEW,0.27,0.00,VWS V14.01,2013-11-16 02:29:00,
2013-11-15 21:31:00,76.8,74.3,30.00,East,82,3.0,5.0,92,0.00,,FEW,0.27,0.00,VWS V14.01,2013-11-16 02:31:00,
2013-11-15 21:32:00,76.8,74.3,30.00,ENE,63,7.0,8.0,92,0.00,,FEW,0.27,0.00,VWS V14.01,2013-11-16 02:32:00,
2013-11-15 21:33:00,76.9,74.1,30.00,ENE,76,4.0,8.0,91,0.00,,FEW,0.27,0.00,VWS V14.01,2013-11-16 02:33:00,
2013-11-15 21:34:00,77.0,74.2,30.00,East,83,3.0,8.0,91,0.00,,FEW,0.27,0.00,VWS V14.01,2013-11-16 02:34:00,
2013-11-15 21:36:00,77.0,74.2,30.00,ENE,58,3.0,8.0,91,0.00,,FEW,0.27,0.00,VWS V14.01,2013-11-16 02:36:00,
2013-11-15 21:37:00,77.0,74.2,30.00,ENE,73,3.0,8.0,91,0.00,,FEW,0.27,0.00,VWS V14.01,2013-11-16 02:37:00,
2013-11-15 21:38:00,77.1,74.3,30.00,East,88,5.0,10.0,91,0.00,,FEW,0.27,0.00,VWS V14.01,2013-11-16 02:38:00,
2013-11-15 21:39:00,77.1,74.3,30.00,East,88,6.0,10.0,91,0.00,,FEW,0.27,0.00,VWS V14.01,2013-11-16 02:39:00,
2013-11-15 21:41:00,77.1,74.3,30.00,East,81,6.0,7.0,91,0.00,,FEW,0.27,0.00,VWS V14.01,2013-11-16 02:41:00,
2013-11-15 21:42:00,77.1,74.3,30.00,ENE,65,7.0,14.0,91,0.00,,FEW,0.27,0.00,VWS V14.01,2013-11-16 02:42:00,
2013-11-15 21:43:00,77.1,74.3,30.00,ENE,72,8.0,14.0,91,0.00,,FEW,0.27,0.00,VWS V14.01,2013-11-16 02:43:00,
2013-11-15 21:44:00,77.1,73.9,30.00,East,87,6.0,14.0,90,0.00,,FEW,0.27,0.00,VWS V14.01,2013-11-16 02:44:00,
2013-11-15 21:46:00,77.1,73.9,30.01,ESE,106,5.0,14.0,90,0.00,,FEW,0.27,0.00,VWS V14.01,2013-11-16 02:46:00,
2013-11-15 21:47:00,77.1,73.9,30.01,NE,52,3.0,14.0,90,0.01,,FEW,0.28,0.00,VWS V14.01,2013-11-16 02:47:00,
2013-11-15 21:48:00,77.1,73.9,30.01,ENE,77,7.0,14.0,90,0.01,,FEW,0.28,0.00,VWS V14.01,2013-11-16 02:48:00,
2013-11-15 21:49:00,77.2,74.0,30.01,East,100,13.0,14.0,90,0.01,,FEW,0.28,0.00,VWS V14.01,2013-11-16 02:49:00,
2013-11-15 21:52:00,77.2,74.0,30.01,ESE,123,3.0,6.0,90,0.01,,FEW,0.28,0.00,VWS V14.01,2013-11-16 02:52:00,
2013-11-15 21:53:00,77.3,74.1,30.01,East,86,3.0,15.0,90,0.01,,FEW,0.28,0.00,VWS V14.01,2013-11-16 02:53:00,
2013-11-15 21:55:00,77.2,74.0,30.01,ENE,65,5.0,15.0,90,0.01,,FEW,0.28,0.00,VWS V14.01,2013-11-16 02:55:00,
2013-11-15 21:57:00,77.2,73.7,30.01,East,86,10.0,15.0,89,0.01,,FEW,0.28,0.00,VWS V14.01,2013-11-16 02:57:00,
2013-11-15 21:58:00,77.3,73.8,30.01,ENE,78,7.0,15.0,89,0.01,,FEW,0.28,0.00,VWS V14.01,2013-11-16 02:58:00,
2013-11-15 22:00:00,77.4,73.9,30.01,East,88,5.0,15.0,89,0.01,,FEW,0.28,0.00,VWS V14.01,2013-11-16 03:00:00,
2013-11-15 22:01:00,77.4,73.9,30.01,East,99,9.0,10.0,89,0.01,,FEW,0.28,0.00,VWS V14.01,2013-11-16 03:01:00,
2013-11-15 22:02:00,77.4,73.9,30.01,ESE,111,7.0,10.0,89,0.01,,FEW,0.28,0.00,VWS V14.01,2013-11-16 03:02:00,
2013-11-15 22:03:00,77.4,73.9,30.01,SE,129,7.0,10.0,89,0.01,,FEW,0.28,0.00,VWS V14.01,2013-11-16 03:03:00,
2013-11-15 22:05:00,77.5,74.0,30.01,East,84,8.0,11.0,89,0.01,,FEW,0.28,0.00,VWS V14.01,2013-11-16 03:05:00,
2013-11-15 22:06:00,77.5,74.0,30.01,ENE,78,4.0,11.0,89,0.01,,FEW,0.28,0.00,VWS V14.01,2013-11-16 03:06:00,
2013-11-15 22:07:00,77.5,74.0,30.01,ENE,63,5.0,11.0,89,0.01,,FEW,0.28,0.00,VWS V14.01,2013-11-16 03:07:00,
2013-11-15 22:08:00,77.6,74.1,30.01,ENE,75,5.0,11.0,89,0.01,,FEW,0.28,0.00,VWS V14.01,2013-11-16 03:08:00,
2013-11-15 22:10:00,77.6,73.8,30.01,East,95,3.0,11.0,88,0.01,,FEW,0.28,0.00,VWS V14.01,2013-11-16 03:10:00,
2013-11-15 22:11:00,77.6,73.8,30.01,ENE,71,4.0,9.0,88,0.01,,FEW,0.28,0.00,VWS V14.01,2013-11-16 03:11:00,
2013-11-15 22:12:00,77.7,73.9,30.01,ENE,67,5.0,9.0,88,0.01,,FEW,0.28,0.00,VWS V14.01,2013-11-16 03:12:00,
2013-11-15 22:13:00,77.7,73.9,30.01,East,82,3.0,9.0,88,0.01,,FEW,0.28,0.00,VWS V14.01,2013-11-16 03:13:00,
2013-11-15 22:14:00,77.8,74.0,30.01,ENE,76,3.0,9.0,88,0.01,,FEW,0.28,0.00,VWS V14.01,2013-11-16 03:14:00,
2013-11-15 22:16:00,77.8,74.0,30.01,East,86,3.0,10.0,88,0.01,,FEW,0.28,0.00,VWS V14.01,2013-11-16 03:16:00,
2013-11-15 22:17:00,77.9,74.1,30.01,ENE,60,4.0,10.0,88,0.01,,FEW,0.28,0.00,VWS V14.01,2013-11-16 03:17:00,
2013-11-15 22:18:00,77.9,74.1,30.01,East,86,6.0,10.0,88,0.01,,FEW,0.28,0.00,VWS V14.01,2013-11-16 03:18:00,
2013-11-15 22:19:00,78.0,74.2,30.01,ENE,75,5.0,10.0,88,0.01,,FEW,0.28,0.00,VWS V14.01,2013-11-16 03:19:00,
2013-11-15 22:20:00,78.0,74.2,30.01,ESE,113,5.0,10.0,88,0.01,,FEW,0.28,0.00,VWS V14.01,2013-11-16 03:20:00,
2013-11-15 22:21:00,78.0,74.2,30.01,East,93,2.0,7.0,88,0.01,,FEW,0.28,0.00,VWS V14.01,2013-11-16 03:21:00,
2013-11-15 22:22:00,78.0,74.2,30.01,East,82,5.0,7.0,88,0.01,,FEW,0.28,0.00,VWS V14.01,2013-11-16 03:22:00,
2013-11-15 22:23:00,78.0,74.2,30.01,ESE,121,4.0,10.0,88,0.01,,FEW,0.28,0.00,VWS V14.01,2013-11-16 03:23:00,
2013-11-15 22:24:00,78.0,74.2,30.01,ENE,78,5.0,10.0,88,0.01,,FEW,0.28,0.00,VWS V14.01,2013-11-16 03:24:00,
2013-11-15 22:25:00,78.0,74.2,30.01,ENE,78,5.0,10.0,88,0.01,,FEW,0.28,0.00,VWS V14.01,2013-11-16 03:25:00,
2013-11-15 22:26:00,78.0,74.2,30.01,ENE,74,4.0,10.0,88,0.01,,FEW,0.28,0.00,VWS V14.01,2013-11-16 03:26:00,
2013-11-15 22:27:00,78.0,74.2,30.01,SE,137,5.0,11.0,88,0.01,,FEW,0.28,0.00,VWS V14.01,2013-11-16 03:27:00,
2013-11-15 22:28:00,78.0,74.2,30.01,East,94,1.0,11.0,88,0.01,,FEW,0.28,0.00,VWS V14.01,2013-11-16 03:28:00,
2013-11-15 22:29:00,78.0,74.2,30.01,East,92,8.0,11.0,88,0.01,,FEW,0.28,0.00,VWS V14.01,2013-11-16 03:29:00,
2013-11-15 22:31:00,78.0,74.2,30.01,East,82,5.0,8.0,88,0.01,,FEW,0.28,0.00,VWS V14.01,2013-11-16 03:31:00,
2013-11-15 22:32:00,78.0,74.2,30.01,ESE,107,7.0,9.0,88,0.01,,FEW,0.28,0.00,VWS V14.01,2013-11-16 03:32:00,
2013-11-15 22:33:00,78.0,74.2,30.01,ESE,106,4.0,10.0,88,0.01,,FEW,0.28,0.00,VWS V14.01,2013-11-16 03:33:00,
2013-11-15 22:34:00,77.9,74.1,30.01,ENE,67,2.0,10.0,88,0.01,,FEW,0.28,0.00,VWS V14.01,2013-11-16 03:34:00,
2013-11-15 22:36:00,77.9,74.1,30.01,SE,134,4.0,10.0,88,0.01,,FEW,0.28,0.00,VWS V14.01,2013-11-16 03:36:00,
2013-11-15 22:38:00,77.8,74.0,30.01,East,95,5.0,10.0,88,0.01,,FEW,0.28,0.00,VWS V14.01,2013-11-16 03:38:00,
2013-11-15 22:39:00,77.8,74.0,30.01,ESE,119,4.0,10.0,88,0.01,,FEW,0.28,0.00,VWS V14.01,2013-11-16 03:39:00,
2013-11-15 22:41:00,77.8,74.3,30.01,East,91,9.0,9.0,89,0.01,,FEW,0.28,0.00,VWS V14.01,2013-11-16 03:41:00,
2013-11-15 22:42:00,77.8,74.3,30.01,ESE,121,4.0,9.0,89,0.01,,FEW,0.28,0.00,VWS V14.01,2013-11-16 03:42:00,
2013-11-15 22:43:00,77.8,74.3,30.01,ESE,105,3.0,10.0,89,0.01,,FEW,0.28,0.00,VWS V14.01,2013-11-16 03:43:00,
2013-11-15 22:44:00,77.7,74.2,30.01,ENE,69,5.0,10.0,89,0.01,,FEW,0.28,0.00,VWS V14.01,2013-11-16 03:44:00,
2013-11-15 22:45:00,77.7,74.2,30.02,ESE,112,0.0,10.0,89,0.01,,FEW,0.28,0.00,VWS V14.01,2013-11-16 03:45:00,
2013-11-15 22:46:00,77.6,74.1,30.02,NE,52,5.0,10.0,89,0.01,,FEW,0.28,0.00,VWS V14.01,2013-11-16 03:46:00,
2013-11-15 22:47:00,77.6,74.1,30.02,East,82,6.0,10.0,89,0.01,,FEW,0.28,0.00,VWS V14.01,2013-11-16 03:47:00,
2013-11-15 22:48:00,77.5,74.0,30.02,ENE,68,3.0,10.0,89,0.01,,FEW,0.28,0.00,VWS V14.01,2013-11-16 03:48:00,
2013-11-15 22:49:00,77.5,74.0,30.02,East,94,7.0,10.0,89,0.01,,FEW,0.28,0.00,VWS V14.01,2013-11-16 03:49:00,
2013-11-15 22:50:00,77.5,74.0,30.02,NE,38,6.0,11.0,89,0.01,,FEW,0.28,0.00,VWS V14.01,2013-11-16 03:50:00,
2013-11-15 22:52:00,77.4,73.9,30.02,ENE,57,8.0,9.0,89,0.00,,FEW,0.28,0.00,VWS V14.01,2013-11-16 03:52:00,
2013-11-15 22:53:00,77.4,73.9,30.02,ENE,63,3.0,9.0,89,0.00,,FEW,0.28,0.00,VWS V14.01,2013-11-16 03:53:00,
2013-11-15 22:54:00,77.4,73.9,30.02,ENE,74,3.0,11.0,89,0.00,,FEW,0.28,0.00,VWS V14.01,2013-11-16 03:54:00,
2013-11-15 22:55:00,77.4,73.9,30.02,East,84,2.0,11.0,89,0.00,,FEW,0.28,0.00,VWS V14.01,2013-11-16 03:55:00,
2013-11-15 22:57:00,77.4,73.9,30.02,ENE,61,5.0,11.0,89,0.00,,FEW,0.28,0.00,VWS V14.01,2013-11-16 03:57:00,
2013-11-15 22:58:00,77.4,73.9,30.02,ENE,65,7.0,11.0,89,0.00,,FEW,0.28,0.00,VWS V14.01,2013-11-16 03:58:00,
2013-11-15 22:59:00,77.4,73.9,30.02,ESE,107,4.0,11.0,89,0.00,,FEW,0.28,0.00,VWS V14.01,2013-11-16 03:59:00,
2013-11-15 23:00:00,77.4,73.9,30.00,ESE,115,2.0,11.0,89,0.00,,FEW,0.28,0.00,VWS V14.01,2013-11-16 04:00:00,
2013-11-15 23:02:00,77.3,73.8,30.00,ESE,107,4.0,7.0,89,0.00,,FEW,0.28,0.00,VWS V14.01,2013-11-16 04:02:00,
2013-11-15 23:04:00,77.2,73.7,30.00,ESE,119,2.0,7.0,89,0.00,,FEW,0.28,0.00,VWS V14.01,2013-11-16 04:04:00,
2013-11-15 23:05:00,77.2,73.7,30.00,ENE,66,2.0,9.0,89,0.00,,FEW,0.28,0.00,VWS V14.01,2013-11-16 04:05:00,
2013-11-15 23:07:00,77.1,73.6,30.00,ESE,107,3.0,10.0,89,0.00,,FEW,0.28,0.00,VWS V14.01,2013-11-16 04:07:00,
2013-11-15 23:08:00,77.1,73.6,30.00,East,99,2.0,10.0,89,0.00,,FEW,0.28,0.00,VWS V14.01,2013-11-16 04:08:00,
2013-11-15 23:09:00,77.1,73.6,30.00,ESE,115,10.0,10.0,89,0.00,,FEW,0.28,0.00,VWS V14.01,2013-11-16 04:09:00,
2013-11-15 23:10:00,77.1,73.6,30.00,East,87,3.0,10.0,89,0.00,,FEW,0.28,0.00,VWS V14.01,2013-11-16 04:10:00,
2013-11-15 23:12:00,77.3,73.8,30.00,ESE,121,5.0,5.0,89,0.00,,FEW,0.28,0.00,VWS V14.01,2013-11-16 04:12:00,
2013-11-15 23:13:00,77.3,73.8,30.00,East,93,3.0,5.0,89,0.00,,FEW,0.28,0.00,VWS V14.01,2013-11-16 04:13:00,
2013-11-15 23:14:00,77.3,73.8,30.00,ESE,112,3.0,10.0,89,0.00,,FEW,0.28,0.00,VWS V14.01,2013-11-16 04:14:00,
2013-11-15 23:15:00,77.3,73.8,30.00,East,88,6.0,10.0,89,0.00,,FEW,0.28,0.00,VWS V14.01,2013-11-16 04:15:00,
2013-11-15 23:17:00,77.3,73.8,30.00,ESE,111,11.0,11.0,89,0.00,,FEW,0.28,0.00,VWS V14.01,2013-11-16 04:17:00,
2013-11-15 23:18:00,77.3,73.8,30.00,East,96,5.0,11.0,89,0.00,,FEW,0.28,0.00,VWS V14.01,2013-11-16 04:18:00,
2013-11-15 23:19:00,77.4,73.9,30.00,SE,140,4.0,11.0,89,0.00,,FEW,0.28,0.00,VWS V14.01,2013-11-16 04:19:00,
2013-11-15 23:20:00,77.4,73.9,30.00,East,100,3.0,11.0,89,0.00,,FEW,0.28,0.00,VWS V14.01,2013-11-16 04:20:00,
2013-11-15 23:22:00,77.4,73.6,30.00,ENE,64,3.0,10.0,88,0.00,,FEW,0.28,0.00,VWS V14.01,2013-11-16 04:22:00,
2013-11-15 23:23:00,77.4,73.6,30.00,ESE,113,1.0,10.0,88,0.00,,FEW,0.28,0.00,VWS V14.01,2013-11-16 04:23:00,
2013-11-15 23:24:00,77.4,73.6,30.00,ESE,111,2.0,10.0,88,0.00,,FEW,0.28,0.00,VWS V14.01,2013-11-16 04:24:00,
2013-11-15 23:25:00,77.5,74.0,30.00,SSE,165,2.0,10.0,89,0.00,,FEW,0.28,0.00,VWS V14.01,2013-11-16 04:25:00,
2013-11-15 23:28:00,77.6,74.1,30.00,ESE,115,4.0,10.0,89,0.00,,FEW,0.28,0.00,VWS V14.01,2013-11-16 04:28:00,
2013-11-15 23:29:00,77.6,74.1,30.00,ESE,122,8.0,10.0,89,0.00,,FEW,0.28,0.00,VWS V14.01,2013-11-16 04:29:00,
2013-11-15 23:30:00,77.6,74.1,30.01,ESE,112,3.0,10.0,89,0.00,,FEW,0.28,0.00,VWS V14.01,2013-11-16 04:30:00,
2013-11-15 23:31:00,77.6,74.1,30.01,East,98,2.0,8.0,89,0.00,,FEW,0.28,0.00,VWS V14.01,2013-11-16 04:31:00,
2013-11-15 23:33:00,77.6,74.1,30.01,NE,47,3.0,8.0,89,0.00,,FEW,0.28,0.00,VWS V14.01,2013-11-16 04:33:00,
2013-11-15 23:34:00,77.6,74.1,30.01,East,88,2.0,10.0,89,0.00,,FEW,0.28,0.00,VWS V14.01,2013-11-16 04:34:00,
2013-11-15 23:35:00,77.6,74.1,30.01,SE,132,3.0,10.0,89,0.00,,FEW,0.28,0.00,VWS V14.01,2013-11-16 04:35:00,
2013-11-15 23:36:00,77.5,74.0,30.01,East,90,6.0,10.0,89,0.00,,FEW,0.28,0.00,VWS V14.01,2013-11-16 04:36:00,
2013-11-15 23:38:00,77.6,74.1,30.01,ESE,111,1.0,10.0,89,0.00,,FEW,0.28,0.00,VWS V14.01,2013-11-16 04:38:00,
2013-11-15 23:39:00,77.5,74.0,30.01,SE,126,3.0,10.0,89,0.00,,FEW,0.28,0.00,VWS V14.01,2013-11-16 04:39:00,
2013-11-15 23:40:00,77.5,74.0,30.01,ENE,69,9.0,10.0,89,0.00,,FEW,0.28,0.00,VWS V14.01,2013-11-16 04:40:00,
2013-11-15 23:41:00,77.5,73.7,30.01,ENE,75,1.0,6.0,88,0.00,,FEW,0.28,0.00,VWS V14.01,2013-11-16 04:41:00,
2013-11-15 23:43:00,77.5,74.0,30.01,ENE,72,5.0,6.0,89,0.00,,FEW,0.28,0.00,VWS V14.01,2013-11-16 04:43:00,
2013-11-15 23:44:00,77.5,74.0,30.01,ENE,59,4.0,9.0,89,0.00,,FEW,0.28,0.00,VWS V14.01,2013-11-16 04:44:00,
2013-11-15 23:45:00,77.5,73.7,30.00,East,83,3.0,9.0,88,0.00,,FEW,0.28,0.00,VWS V14.01,2013-11-16 04:45:00,
2013-11-15 23:46:00,77.6,73.8,30.00,East,94,3.0,9.0,88,0.00,,FEW,0.28,0.00,VWS V14.01,2013-11-16 04:46:00,
2013-11-15 23:49:00,77.6,73.8,30.00,East,95,7.0,9.0,88,0.00,,FEW,0.28,0.00,VWS V14.01,2013-11-16 04:49:00,
2013-11-15 23:50:00,77.6,73.8,30.00,NE,48,3.0,9.0,88,0.00,,FEW,0.28,0.00,VWS V14.01,2013-11-16 04:50:00,
2013-11-15 23:52:00,77.7,74.2,30.00,East,85,0.0,5.0,89,0.00,,FEW,0.28,0.00,VWS V14.01,2013-11-16 04:52:00,
2013-11-15 23:54:00,77.7,74.2,30.00,East,82,2.0,6.0,89,0.00,,FEW,0.28,0.00,VWS V14.01,2013-11-16 04:54:00,
2013-11-15 23:55:00,77.7,73.9,30.00,ESE,113,4.0,12.0,88,0.00,,FEW,0.28,0.00,VWS V14.01,2013-11-16 04:55:00,
2013-11-15 23:56:00,77.7,73.9,30.00,ESE,109,3.0,12.0,88,0.00,,FEW,0.28,0.00,VWS V14.01,2013-11-16 04:56:00,
2013-11-15 23:57:00,77.7,73.9,30.00,ESE,103,3.0,12.0,88,0.00,,FEW,0.28,0.00,VWS V14.01,2013-11-16 04:57:00,
2013-11-15 23:59:00,77.7,73.9,30.00,ESE,103,2.0,12.0,88,0.00,,FEW,0.28,0.00,VWS V14.01,2013-11-16 04:59:00,